[[{"header":{"parameterUnit":"m.s-1","parameterCategory":1,"la1":31.0,"la2":29.5877,"lo1":-88.7671,"lo2":-86.6584,"dx":0.0162,"dy":0.0185,"nx":115,"ny":88,"refTime":"2023-01-06T18:00:00:Z","depth":0,"parameterNumber":2,"parameterNumberName":"U-component_of_WINDS"},"data":[0.0,0.0,0.0,0.0,0.0,0.0,0.0,0.0,0.0,0.0,0.0,0.0,0.0,0.0,0.0,0.0,0.0,0.0,0.0,0.0,0.0,0.0,0.0,0.0,0.0,0.0,0.0,0.0,0.0,0.0,0.0,0.0,0.0,0.0,0.0,0.0,0.0,0.0,0.0,0.0,0.0,0.0,0.0,0.0,0.0,0.0,0.0,0.0,0.0,0.0,0.0,0.0,0.0,0.0,0.0,0.0,0.0,0.0,0.0,0.0,0.0,0.0,0.0,0.0,0.0,0.0,0.0,0.0,0.0,0.0,0.0,0.0,0.0,0.0,0.0,0.0,0.0,0.0,0.0,0.0,0.0,0.0,0.0,0.0,0.0,0.0,0.0,0.0,0.0,0.0,0.0,0.0,0.0,0.0,0.0,0.0,0.0,0.0,0.0,0.0,0.0,0.0,0.0,0.0,0.0,0.0,0.0,0.0,0.0,0.0,0.0,0.0,0.0,0.0,0.0,0.0,0.0,0.0,0.0,0.0,0.0,0.0,0.0,0.0,0.0,0.0,0.0,0.0,0.0,0.0,0.0,0.0,0.0,0.0,0.0,0.0,0.0,0.0,0.0,0.0,0.0,0.0,0.0,0.0,0.0,0.0,0.0,0.0,0.0,0.0,0.0,0.0,0.0,0.0,0.0,0.0,0.0,0.0,0.0,0.0,0.0,0.0,0.0,0.0,0.0,0.0,0.0,0.0,0.0,0.0,0.0,0.0,0.0,0.0,0.0,0.0,0.0,0.0,0.0,0.0,0.0,0.0,0.0,0.0,0.0,0.0,0.0,0.0,0.0,0.0,0.0,0.0,0.0,0.0,0.0,0.0,0.0,0.0,0.0,0.0,0.0,0.0,0.0,0.0,0.0,0.0,0.0,0.0,0.0,0.0,0.0,0.0,0.0,0.0,0.0,0.0,0.0,0.0,0.0,0.0,0.0,0.0,0.0,0.0,0.0,0.0,0.0,0.0,0.0,0.0,0.0,0.0,0.0,0.0,0.0,0.0,0.0,0.0,0.0,0.0,0.0,0.0,0.0,0.0,0.0,0.0,0.0,0.0,0.0,0.0,0.0,0.0,0.0,0.0,0.0,0.0,0.0,0.0,0.0,0.0,0.0,0.0,0.0,0.0,0.0,0.0,0.0,0.0,0.0,0.0,0.0,0.0,0.0,0.0,0.0,0.0,0.0,0.0,0.0,0.0,0.0,0.0,0.0,0.0,0.0,0.0,0.0,0.0,0.0,0.0,0.0,0.0,0.0,0.0,0.0,0.0,0.0,0.0,0.0,0.0,0.0,0.0,0.0,0.0,0.0,0.0,0.0,0.0,0.0,0.0,0.0,0.0,0.0,0.0,0.0,0.0,0.0,0.0,0.0,0.0,0.0,0.0,0.0,0.0,0.0,0.0,0.0,0.0,0.0,0.0,0.0,0.0,0.0,0.0,0.0,0.0,0.0,0.0,0.0,0.0,0.0,0.0,0.0,0.0,0.0,0.0,0.0,0.0,0.0,0.0,0.0,0.0,0.0,0.0,0.0,0.0,0.0,0.0,0.0,0.0,0.0,0.0,0.0,0.0,0.0,0.0,0.0,0.0,0.0,0.0,0.0,0.0,0.0,0.0,0.0,0.0,0.0,0.0,0.0,0.0,0.0,0.0,0.0,0.0,0.0,0.0,0.0,0.0,0.0,0.0,0.0,0.0,0.0,0.0,0.0,0.0,0.0,0.0,0.0,0.0,0.0,0.0,0.0,0.0,0.0,0.0,0.0,0.0,0.0,0.0,0.0,0.0,0.0,0.0,0.0,0.0,0.0,0.0,0.0,0.0,0.0,0.0,0.0,0.0,0.0,0.0,0.0,0.0,0.0,0.0,0.0,0.0,0.0,0.0,0.0,0.0,0.0,0.0,0.0,0.0,0.0,0.0,0.0,0.0,0.0,0.0,0.0,0.0,0.0,0.0,0.0,0.0,0.0,0.0,0.0,0.0,0.0,0.0,0.0,0.0,0.0,0.0,0.0,0.0,0.0,0.0,0.0,0.0,0.0,0.0,0.0,0.0,0.0,0.0,0.0,0.0,0.0,0.0,0.0,0.0,0.0,0.0,0.0,0.0,0.0,0.0,0.0,0.0,0.0,0.0,0.0,0.0,0.0,0.0,0.0,0.0,0.0,0.0,0.0,0.0,0.0,0.0,0.0,0.0,0.0,0.0,0.0,0.0,0.0,0.0,0.0,0.0,0.0,0.0,0.0,0.0,0.0,0.0,0.0,0.0,0.0,0.0,0.0,0.0,0.0,0.0,0.0,0.0,0.0,0.0,0.0,0.0,0.0,0.0,0.0,0.0,0.0,0.0,0.0,0.0,0.0,0.0,0.0,0.0,0.0,0.0,0.0,0.0,0.0,0.0,0.0,0.0,0.0,0.0,0.0,0.0,0.0,0.0,0.0,0.0,0.0,0.0,0.0,0.0,0.0,0.0,0.0,0.0,0.0,0.0,0.0,0.0,0.0,0.0,0.0,0.0,0.0,0.0,0.0,0.0,0.0,0.0,0.0,0.0,0.0,0.0,0.0,0.0,0.0,0.0,0.0,0.0,0.0,0.0,0.0,0.0,0.0,0.0,0.0,0.0,0.0,0.0,0.0,0.0,0.0,0.0,0.0,0.0,0.0,0.0,0.0,0.0,0.0,0.0,0.0,0.0,0.0,0.0,0.0,0.0,0.0,0.0,0.0,0.0,0.0,0.0,0.0,0.0,0.0,0.0,0.0,0.0,0.0,0.0,0.0,0.0,0.0,0.0,0.0,0.0,0.0,0.0,0.0,0.0,0.0,0.0,0.0,0.0,0.0,0.0,0.0,0.0,0.0,0.0,0.0,0.0,0.0,0.0,0.0,0.0,0.0,0.0,0.0,0.0,0.0,0.0,0.0,0.0,0.0,0.0,0.0,0.0,0.0,0.0,0.0,0.0,0.0,0.0,0.0,0.0,0.0,0.0,0.0,0.0,0.0,0.0,0.0,0.0,0.0,0.0,0.0,0.0,0.0,0.0,0.0,0.0,0.0,0.0,0.0,0.0,0.0,0.0,0.0,0.0,0.0,0.0,0.0,0.0,0.0,0.0,0.0,0.0,0.0,0.0,0.0,0.0,0.0,0.0,0.0,0.0,0.0,0.0,0.0,0.0,0.0,0.0,0.0,0.0,0.0,0.0,0.0,0.0,0.0,0.0,0.0,0.0,0.0,0.0,0.0,0.0,0.0,0.0,0.0,0.0,0.0,0.0,0.0,0.0,0.0,0.0,0.0,0.0,0.0,0.0,0.0,0.0,0.0,0.0,0.0,0.0,0.0,0.0,0.0,0.0,0.0,0.0,0.0,0.0,0.0,0.0,0.0,0.0,0.0,0.0,0.0,0.0,0.0,0.0,0.0,0.0,0.0,0.0,0.0,0.0,0.0,0.0,0.0,0.0,0.0,0.0,0.0,0.0,0.0,0.0,0.0,0.0,0.0,0.0,0.0,0.0,0.0,0.0,0.0,0.0,0.0,0.0,0.0,0.0,0.0,0.0,0.0,0.0,0.0,0.0,0.0,0.0,0.0,0.0,0.0,0.0,0.0,0.0,0.0,0.0,0.0,0.0,0.0,0.0,0.0,0.0,0.0,0.0,0.0,0.0,0.0,0.0,0.0,0.0,0.0,0.0,0.0,0.0,0.0,0.0,0.0,0.0,0.0,0.0,0.0,0.0,0.0,0.0,0.0,0.0,0.0,0.0,0.0,0.0,0.0,0.0,0.0,0.0,0.0,0.0,0.0,0.0,0.0,0.0,0.0,0.0,0.0,0.0,0.0,0.0,0.0,0.0,0.0,0.0,0.0,0.0,0.0,0.0,0.0,0.0,0.0,0.0,0.0,0.0,0.0,0.0,0.0,0.0,0.0,0.0,0.0,0.0,0.0,0.0,0.0,0.0,0.0,0.0,0.0,0.0,0.0,0.0,0.0,0.0,0.0,0.0,0.0,0.0,0.0,0.0,0.0,0.0,0.0,0.0,0.0,0.0,0.0,0.0,0.0,0.0,0.0,0.0,0.0,0.0,0.0,0.0,0.0,0.0,0.0,0.0,0.0,0.0,0.0,0.0,0.0,0.0,0.0,0.0,0.0,0.0,0.0,0.0,0.0,0.0,0.0,0.0,0.0,0.0,0.0,0.0,0.0,0.0,0.0,0.0,0.0,0.0,0.0,0.0,-2.3586,0.0,0.0,0.0,-2.3084,0.0,0.0,0.0,0.0,0.0,0.0,0.0,0.0,0.0,0.0,0.0,0.0,0.0,0.0,0.0,0.0,0.0,0.0,0.0,0.0,0.0,0.0,0.0,0.0,0.0,0.0,0.0,0.0,0.0,0.0,0.0,0.0,0.0,0.0,0.0,0.0,0.0,0.0,0.0,0.0,0.0,0.0,0.0,0.0,0.0,0.0,0.0,0.0,0.0,0.0,0.0,0.0,0.0,0.0,0.0,0.0,0.0,0.0,0.0,0.0,0.0,0.0,0.0,0.0,0.0,0.0,0.0,0.0,0.0,0.0,0.0,0.0,0.0,0.0,0.0,0.0,0.0,0.0,0.0,0.0,0.0,0.0,0.0,0.0,0.0,0.0,0.0,0.0,0.0,0.0,0.0,0.0,0.0,0.0,0.0,0.0,0.0,0.0,0.0,0.0,0.0,0.0,0.0,0.0,0.0,0.0,0.0,0.0,0.0,0.0,-2.3563,-2.2931,-2.3882,-2.3925,-2.2946,0.0,0.0,0.0,0.0,0.0,0.0,0.0,0.0,0.0,0.0,0.0,0.0,0.0,0.0,0.0,0.0,0.0,0.0,0.0,0.0,0.0,0.0,0.0,0.0,0.0,0.0,0.0,0.0,0.0,0.0,0.0,0.0,0.0,0.0,0.0,0.0,0.0,0.0,0.0,0.0,0.0,0.0,0.0,0.0,0.0,0.0,0.0,0.0,0.0,0.0,0.0,0.0,0.0,0.0,0.0,0.0,0.0,0.0,0.0,0.0,0.0,0.0,0.0,0.0,0.0,0.0,0.0,0.0,0.0,0.0,0.0,0.0,0.0,0.0,0.0,0.0,0.0,0.0,0.0,0.0,0.0,0.0,0.0,0.0,0.0,0.0,0.0,0.0,0.0,0.0,0.0,0.0,0.0,0.0,0.0,0.0,0.0,0.0,0.0,0.0,0.0,0.0,0.0,0.0,0.0,0.0,0.0,0.0,0.0,0.0,0.0,0.0,-2.407,-2.4143,-2.3186,0.0,0.0,0.0,0.0,0.0,0.0,0.0,0.0,0.0,0.0,0.0,0.0,0.0,0.0,0.0,0.0,0.0,0.0,0.0,0.0,0.0,0.0,0.0,0.0,0.0,0.0,0.0,0.0,0.0,0.0,0.0,0.0,0.0,0.0,0.0,0.0,0.0,0.0,0.0,0.0,0.0,0.0,0.0,0.0,0.0,0.0,0.0,0.0,0.0,0.0,0.0,0.0,0.0,0.0,0.0,0.0,0.0,0.0,0.0,0.0,0.0,0.0,0.0,0.0,0.0,0.0,0.0,0.0,0.0,0.0,0.0,0.0,0.0,0.0,0.0,0.0,0.0,0.0,0.0,0.0,0.0,0.0,0.0,0.0,0.0,0.0,0.0,0.0,0.0,0.0,0.0,0.0,0.0,0.0,0.0,0.0,0.0,0.0,0.0,0.0,0.0,0.0,0.0,0.0,0.0,0.0,0.0,0.0,0.0,0.0,-2.3258,-2.3789,-2.3929,0.0,-2.378,0.0,0.0,0.0,0.0,0.0,0.0,0.0,0.0,0.0,0.0,0.0,0.0,0.0,0.0,0.0,0.0,0.0,0.0,0.0,0.0,0.0,0.0,0.0,0.0,0.0,0.0,0.0,0.0,0.0,0.0,0.0,0.0,0.0,0.0,0.0,0.0,0.0,0.0,0.0,0.0,0.0,0.0,0.0,0.0,0.0,0.0,0.0,0.0,0.0,0.0,0.0,0.0,0.0,0.0,0.0,0.0,0.0,0.0,0.0,0.0,0.0,0.0,0.0,0.0,0.0,0.0,0.0,0.0,0.0,0.0,0.0,0.0,0.0,0.0,0.0,0.0,0.0,0.0,0.0,0.0,0.0,0.0,0.0,0.0,0.0,0.0,0.0,0.0,0.0,0.0,0.0,0.0,0.0,0.0,0.0,0.0,0.0,0.0,0.0,0.0,0.0,0.0,0.0,0.0,0.0,0.0,0.0,0.0,0.0,0.0,-2.3374,-2.4356,-2.4371,-2.4048,0.0,0.0,0.0,0.0,0.0,0.0,0.0,0.0,0.0,0.0,0.0,0.0,0.0,0.0,0.0,0.0,0.0,0.0,0.0,0.0,0.0,0.0,0.0,0.0,0.0,0.0,0.0,0.0,0.0,0.0,0.0,0.0,0.0,0.0,0.0,0.0,0.0,0.0,0.0,0.0,0.0,0.0,0.0,0.0,0.0,0.0,0.0,0.0,0.0,0.0,0.0,0.0,0.0,0.0,0.0,0.0,0.0,0.0,0.0,0.0,0.0,0.0,0.0,0.0,0.0,0.0,0.0,0.0,0.0,0.0,0.0,0.0,0.0,0.0,0.0,0.0,0.0,0.0,0.0,0.0,0.0,0.0,0.0,0.0,0.0,0.0,0.0,0.0,0.0,0.0,0.0,0.0,0.0,0.0,0.0,0.0,0.0,0.0,0.0,0.0,0.0,0.0,0.0,0.0,0.0,0.0,0.0,0.0,0.0,0.0,-2.3531,-2.3963,-2.5055,-2.4822,-2.4276,-2.339,0.0,0.0,0.0,0.0,0.0,0.0,0.0,0.0,0.0,0.0,0.0,0.0,0.0,0.0,0.0,0.0,0.0,0.0,0.0,0.0,0.0,0.0,0.0,0.0,0.0,0.0,0.0,0.0,0.0,0.0,0.0,0.0,0.0,0.0,0.0,0.0,0.0,0.0,0.0,0.0,0.0,0.0,0.0,0.0,0.0,0.0,0.0,0.0,0.0,0.0,0.0,0.0,0.0,0.0,0.0,0.0,0.0,0.0,0.0,0.0,0.0,0.0,0.0,0.0,0.0,0.0,0.0,0.0,0.0,0.0,0.0,0.0,0.0,0.0,0.0,0.0,0.0,0.0,0.0,0.0,0.0,0.0,0.0,0.0,0.0,0.0,0.0,0.0,0.0,0.0,0.0,0.0,0.0,0.0,0.0,0.0,0.0,0.0,0.0,0.0,0.0,0.0,0.0,0.0,0.0,0.0,0.0,0.0,-2.4814,-2.4706,-2.5122,-2.612,-2.5175,-2.459,0.0,0.0,0.0,0.0,0.0,0.0,0.0,0.0,0.0,0.0,0.0,0.0,0.0,0.0,0.0,0.0,0.0,0.0,0.0,0.0,0.0,0.0,0.0,0.0,0.0,0.0,0.0,0.0,0.0,0.0,0.0,0.0,0.0,0.0,0.0,0.0,0.0,0.0,0.0,0.0,0.0,0.0,0.0,0.0,0.0,0.0,0.0,0.0,0.0,0.0,0.0,0.0,0.0,0.0,0.0,0.0,0.0,0.0,0.0,0.0,0.0,0.0,0.0,0.0,0.0,0.0,0.0,0.0,0.0,0.0,0.0,0.0,0.0,0.0,0.0,0.0,0.0,0.0,0.0,0.0,0.0,0.0,0.0,0.0,0.0,0.0,0.0,0.0,0.0,0.0,0.0,0.0,0.0,0.0,0.0,0.0,0.0,0.0,0.0,0.0,0.0,0.0,0.0,0.0,0.0,0.0,0.0,0.0,0.0,-2.38,-2.4649,-2.514,-2.5272,-2.587,-2.5889,0.0,0.0,0.0,0.0,0.0,0.0,0.0,0.0,0.0,0.0,0.0,0.0,0.0,0.0,0.0,0.0,0.0,0.0,0.0,0.0,0.0,0.0,0.0,0.0,0.0,0.0,0.0,0.0,0.0,0.0,0.0,0.0,0.0,0.0,0.0,0.0,0.0,0.0,0.0,0.0,0.0,0.0,0.0,0.0,0.0,0.0,0.0,0.0,0.0,0.0,0.0,0.0,0.0,0.0,0.0,0.0,0.0,0.0,0.0,0.0,0.0,0.0,0.0,0.0,0.0,0.0,0.0,0.0,0.0,0.0,0.0,0.0,0.0,0.0,0.0,0.0,0.0,0.0,0.0,0.0,0.0,0.0,0.0,0.0,0.0,0.0,0.0,0.0,0.0,0.0,0.0,0.0,0.0,0.0,0.0,0.0,0.0,0.0,0.0,0.0,0.0,0.0,0.0,0.0,0.0,0.0,0.0,0.0,0.0,-2.4179,-2.5316,-2.5848,-2.5713,-2.6586,-2.6663,0.0,0.0,0.0,0.0,0.0,0.0,0.0,0.0,0.0,0.0,0.0,0.0,0.0,0.0,0.0,0.0,0.0,0.0,0.0,0.0,0.0,0.0,0.0,0.0,0.0,0.0,0.0,0.0,0.0,0.0,0.0,0.0,0.0,0.0,0.0,0.0,0.0,0.0,0.0,0.0,0.0,0.0,0.0,0.0,0.0,0.0,0.0,0.0,0.0,0.0,0.0,0.0,0.0,0.0,0.0,0.0,0.0,0.0,0.0,0.0,0.0,0.0,0.0,0.0,0.0,0.0,0.0,0.0,0.0,0.0,0.0,0.0,0.0,0.0,0.0,0.0,0.0,0.0,0.0,0.0,0.0,0.0,0.0,0.0,0.0,0.0,0.0,0.0,0.0,0.0,0.0,0.0,0.0,0.0,0.0,0.0,0.0,0.0,0.0,0.0,0.0,0.0,0.0,0.0,0.0,0.0,0.0,0.0,-2.4022,-2.6202,-2.6834,-2.7219,-2.7639,-2.7311,-2.6804,0.0,0.0,0.0,0.0,0.0,0.0,0.0,0.0,0.0,0.0,0.0,0.0,0.0,0.0,0.0,0.0,0.0,0.0,0.0,0.0,0.0,0.0,0.0,0.0,0.0,0.0,0.0,0.0,0.0,0.0,0.0,0.0,0.0,0.0,0.0,0.0,0.0,0.0,0.0,0.0,0.0,0.0,0.0,0.0,0.0,0.0,0.0,0.0,0.0,0.0,0.0,0.0,0.0,0.0,0.0,0.0,0.0,0.0,0.0,0.0,0.0,0.0,0.0,0.0,0.0,0.0,0.0,0.0,0.0,0.0,0.0,0.0,0.0,0.0,0.0,0.0,0.0,0.0,0.0,0.0,0.0,0.0,0.0,0.0,0.0,0.0,0.0,0.0,0.0,0.0,0.0,0.0,0.0,0.0,0.0,0.0,0.0,0.0,0.0,0.0,0.0,0.0,0.0,0.0,0.0,0.0,0.0,0.0,0.0,-2.4495,-2.5839,-2.6816,-2.7306,-2.7923,-2.8004,0.0,0.0,0.0,0.0,0.0,0.0,0.0,0.0,0.0,0.0,0.0,0.0,0.0,0.0,0.0,0.0,0.0,0.0,0.0,0.0,0.0,0.0,0.0,0.0,0.0,0.0,0.0,0.0,0.0,0.0,0.0,0.0,0.0,0.0,0.0,0.0,0.0,0.0,0.0,0.0,0.0,0.0,0.0,0.0,0.0,0.0,0.0,0.0,0.0,0.0,0.0,0.0,0.0,0.0,0.0,0.0,0.0,0.0,0.0,0.0,0.0,0.0,0.0,0.0,0.0,0.0,0.0,0.0,0.0,0.0,0.0,0.0,0.0,0.0,0.0,0.0,0.0,0.0,0.0,0.0,0.0,0.0,0.0,0.0,0.0,0.0,0.0,0.0,0.0,0.0,0.0,0.0,0.0,0.0,0.0,0.0,0.0,0.0,0.0,0.0,0.0,0.0,0.0,0.0,0.0,0.0,0.0,0.0,0.0,-2.4268,-2.6001,-2.704,-2.7209,-2.8321,-2.8471,-2.7536,0.0,0.0,0.0,0.0,0.0,0.0,0.0,0.0,0.0,0.0,0.0,0.0,0.0,0.0,0.0,0.0,0.0,0.0,0.0,0.0,0.0,0.0,0.0,0.0,0.0,0.0,0.0,0.0,0.0,0.0,0.0,0.0,0.0,0.0,0.0,0.0,0.0,0.0,0.0,0.0,0.0,0.0,0.0,0.0,0.0,0.0,0.0,0.0,0.0,0.0,0.0,0.0,0.0,0.0,0.0,0.0,0.0,0.0,0.0,0.0,0.0,0.0,0.0,0.0,0.0,0.0,0.0,0.0,0.0,0.0,0.0,0.0,0.0,0.0,0.0,0.0,0.0,0.0,0.0,0.0,0.0,0.0,0.0,0.0,0.0,0.0,0.0,0.0,0.0,0.0,0.0,0.0,0.0,0.0,0.0,0.0,0.0,0.0,0.0,0.0,0.0,0.0,0.0,0.0,0.0,0.0,0.0,0.0,-2.515,-2.7013,-2.7791,-2.7404,-2.8403,-2.8259,0.0,0.0,0.0,0.0,0.0,0.0,0.0,0.0,0.0,0.0,0.0,0.0,0.0,0.0,0.0,0.0,0.0,0.0,0.0,0.0,0.0,0.0,0.0,0.0,0.0,0.0,0.0,0.0,0.0,0.0,0.0,0.0,0.0,0.0,0.0,0.0,0.0,0.0,0.0,0.0,0.0,0.0,0.0,0.0,0.0,0.0,0.0,0.0,0.0,0.0,0.0,0.0,0.0,0.0,0.0,0.0,0.0,0.0,0.0,0.0,0.0,0.0,0.0,0.0,0.0,0.0,0.0,0.0,0.0,0.0,0.0,0.0,0.0,0.0,0.0,0.0,0.0,0.0,0.0,0.0,0.0,0.0,0.0,0.0,0.0,0.0,0.0,0.0,0.0,0.0,0.0,0.0,0.0,0.0,0.0,0.0,0.0,0.0,0.0,0.0,0.0,0.0,0.0,0.0,0.0,0.0,0.0,0.0,0.0,-2.5866,-2.674,-2.7136,-2.6974,-2.7395,-2.7196,0.0,0.0,0.0,0.0,0.0,0.0,0.0,0.0,0.0,0.0,0.0,0.0,0.0,0.0,0.0,0.0,0.0,0.0,0.0,0.0,0.0,0.0,0.0,0.0,0.0,0.0,0.0,0.0,0.0,0.0,0.0,0.0,0.0,0.0,0.0,0.0,0.0,0.0,0.0,0.0,0.0,0.0,0.0,0.0,0.0,0.0,0.0,0.0,0.0,0.0,0.0,0.0,0.0,0.0,0.0,0.0,0.0,0.0,0.0,0.0,0.0,0.0,0.0,0.0,0.0,0.0,0.0,0.0,0.0,0.0,0.0,0.0,0.0,0.0,0.0,0.0,0.0,0.0,0.0,0.0,0.0,0.0,0.0,0.0,0.0,0.0,0.0,0.0,0.0,0.0,0.0,0.0,0.0,0.0,0.0,0.0,0.0,0.0,0.0,0.0,0.0,0.0,0.0,0.0,0.0,0.0,0.0,0.0,-2.6279,-2.6383,-2.6683,-2.6845,-2.6792,-2.6991,-2.6627,0.0,0.0,0.0,0.0,0.0,0.0,0.0,0.0,0.0,0.0,0.0,0.0,0.0,0.0,0.0,0.0,0.0,0.0,0.0,0.0,0.0,0.0,0.0,0.0,0.0,0.0,0.0,0.0,0.0,0.0,0.0,0.0,0.0,0.0,0.0,0.0,0.0,0.0,0.0,0.0,0.0,0.0,0.0,0.0,0.0,0.0,0.0,0.0,0.0,0.0,0.0,0.0,0.0,0.0,0.0,0.0,0.0,0.0,0.0,0.0,0.0,0.0,0.0,0.0,0.0,0.0,0.0,0.0,0.0,0.0,0.0,0.0,0.0,0.0,0.0,0.0,0.0,0.0,0.0,0.0,0.0,0.0,0.0,0.0,0.0,0.0,0.0,0.0,0.0,0.0,0.0,0.0,0.0,0.0,0.0,0.0,0.0,0.0,0.0,0.0,0.0,0.0,0.0,0.0,0.0,0.0,0.0,0.0,-2.6287,-2.6763,-2.682,-2.682,-2.6806,-2.6852,-2.6312,0.0,0.0,0.0,0.0,0.0,0.0,0.0,0.0,0.0,0.0,0.0,0.0,0.0,0.0,0.0,0.0,0.0,0.0,0.0,0.0,0.0,0.0,0.0,0.0,0.0,0.0,0.0,0.0,0.0,0.0,0.0,0.0,0.0,0.0,0.0,0.0,0.0,0.0,0.0,0.0,0.0,0.0,0.0,0.0,0.0,0.0,0.0,0.0,0.0,0.0,0.0,0.0,0.0,0.0,0.0,0.0,0.0,0.0,0.0,0.0,0.0,0.0,0.0,0.0,0.0,0.0,0.0,0.0,0.0,0.0,0.0,0.0,0.0,0.0,0.0,0.0,0.0,0.0,0.0,0.0,0.0,0.0,0.0,0.0,0.0,0.0,0.0,0.0,0.0,0.0,0.0,0.0,0.0,0.0,0.0,0.0,0.0,0.0,0.0,0.0,0.0,0.0,0.0,0.0,0.0,0.0,0.0,0.0,-2.5882,-2.6715,-2.6996,-2.6996,-2.6715,-2.5992,-2.5454,0.0,0.0,0.0,0.0,0.0,0.0,0.0,0.0,0.0,0.0,0.0,0.0,0.0,0.0,0.0,0.0,0.0,0.0,0.0,0.0,0.0,0.0,0.0,0.0,0.0,0.0,0.0,0.0,0.0,0.0,0.0,0.0,0.0,0.0,0.0,0.0,0.0,0.0,0.0,0.0,0.0,0.0,0.0,0.0,0.0,0.0,0.0,0.0,-0.4037,0.0,0.0,0.0,0.0,0.0,0.0,0.0,0.0,0.0,0.0,0.0,0.0,0.0,0.0,0.0,0.0,0.0,0.0,0.0,0.0,0.0,0.0,0.0,0.0,0.0,0.0,0.0,0.0,0.0,0.0,0.0,0.0,0.0,0.0,0.0,0.0,0.0,0.0,0.0,0.0,0.0,0.0,0.0,0.0,0.0,0.0,0.0,0.0,0.0,0.0,0.0,0.0,0.0,0.0,0.0,0.0,0.0,0.0,0.0,-2.6129,-2.7114,-2.7312,-2.7312,-2.7074,-2.607,-2.5479,0.0,0.0,0.0,0.0,0.0,0.0,0.0,0.0,0.0,0.0,0.0,0.0,0.0,0.0,0.0,0.0,0.0,0.0,0.0,0.0,0.0,0.0,0.0,0.0,0.0,0.0,0.0,0.0,0.0,0.0,0.0,0.0,0.0,0.0,0.0,0.0,0.0,0.0,0.0,0.0,0.0,0.0,0.0,0.0,0.0,0.0,0.0,0.0,0.0,0.0,0.0,0.0,0.0,0.0,0.0,0.0,0.0,0.0,0.0,0.0,0.0,0.0,0.0,0.0,0.0,0.0,0.0,0.0,0.0,0.0,0.0,0.0,0.0,0.0,0.0,0.0,0.0,0.0,0.0,0.0,0.0,0.0,0.0,0.0,0.0,0.0,0.0,0.0,0.0,0.0,0.0,0.0,0.0,0.0,0.0,0.0,0.0,0.0,0.0,0.0,0.0,0.0,0.0,0.0,0.0,0.0,0.0,-2.547,-2.6453,-2.7578,-2.7665,-2.7656,-2.7566,-2.662,-2.6004,-2.5771,0.0,0.0,0.0,0.0,0.0,0.0,0.0,0.0,0.0,0.0,0.0,0.0,0.0,0.0,0.0,0.0,0.0,0.0,0.0,0.0,0.0,0.0,0.0,0.0,0.0,0.0,0.0,0.0,0.0,0.0,0.0,0.0,0.0,0.0,0.0,0.0,0.0,0.0,-0.6418,-0.5681,0.0,0.0,0.0,0.0,0.0,0.0,0.0,0.0,-0.297,0.0,0.0,0.0,0.0,0.0,0.0,0.0,0.0,0.0,0.0,0.0,0.0,0.0,0.0,0.0,0.0,0.0,0.0,0.0,0.0,0.0,0.0,0.0,0.0,0.0,0.0,0.0,0.0,0.0,0.0,0.0,0.0,0.0,0.0,0.0,0.0,0.0,0.0,0.0,0.0,0.0,0.0,0.0,0.0,0.0,0.0,0.0,0.0,0.0,0.0,0.0,0.0,0.0,0.0,0.0,0.0,-2.4743,-2.4828,-2.5795,-2.7717,-2.7941,-2.7867,-2.7532,-2.7176,-2.6848,-2.6514,0.0,0.0,0.0,0.0,0.0,0.0,0.0,0.0,0.0,0.0,0.0,0.0,0.0,0.0,0.0,0.0,0.0,0.0,0.0,0.0,0.0,0.0,0.0,0.0,0.0,0.0,0.0,0.0,0.0,0.0,0.0,0.0,0.0,0.0,0.0,0.0,0.0,0.0,0.0,-0.4484,-0.4307,0.0,0.0,0.0,0.0,0.0,0.0,0.0,0.0,-0.2402,0.0,0.0,0.0,0.0,0.0,0.0,0.0,0.0,0.0,0.0,0.0,0.0,0.0,0.0,0.0,0.0,0.0,0.0,0.0,0.0,0.0,0.0,0.0,0.0,0.0,0.0,0.0,0.0,0.0,0.0,0.0,0.0,0.0,0.0,0.0,0.0,0.0,0.0,0.0,0.0,0.0,0.0,0.0,0.0,0.0,0.0,0.0,0.0,0.0,0.0,0.0,0.0,0.0,0.0,0.0,-2.4341,-2.467,-2.5617,-2.7163,-2.7499,-2.7689,-2.7789,-2.7576,-2.7286,0.0,0.0,0.0,0.0,0.0,0.0,0.0,0.0,0.0,0.0,0.0,0.0,0.0,0.0,0.0,0.0,0.0,0.0,0.0,0.0,0.0,0.0,0.0,0.0,0.0,0.0,0.0,0.0,0.0,0.0,0.0,0.0,0.0,0.0,0.0,0.0,0.0,0.0,0.0,0.0,-0.4726,-0.4519,-0.4805,0.0,0.0,0.0,0.0,0.0,0.0,-0.3335,-0.2506,0.0,0.0,0.0,0.0,0.0,0.0,0.0,0.0,0.0,0.0,0.0,0.0,0.0,0.0,0.0,0.0,0.0,0.0,0.0,0.0,0.0,0.0,0.0,0.0,0.0,0.0,0.0,0.0,0.0,0.0,0.0,0.0,0.0,0.0,0.0,0.0,0.0,0.0,0.0,0.0,0.0,0.0,0.0,0.0,0.0,0.0,0.0,0.0,0.0,0.0,0.0,0.0,0.0,0.0,0.0,-2.3817,-2.4387,-2.5263,-2.6543,-2.682,-2.7209,-2.7802,-2.7632,-2.7377,0.0,0.0,0.0,0.0,0.0,0.0,0.0,0.0,0.0,0.0,0.0,0.0,0.0,0.0,0.0,0.0,0.0,0.0,0.0,0.0,0.0,0.0,0.0,0.0,0.0,0.0,0.0,0.0,0.0,0.0,0.0,0.0,0.0,0.0,0.0,0.0,0.0,0.0,0.0,0.0,0.0,-0.4851,-0.4893,-0.4789,0.0,0.0,0.0,0.0,-0.489,-0.3602,0.0,0.0,0.0,0.0,0.0,0.0,0.0,0.0,0.0,0.0,0.0,0.0,0.0,0.0,0.0,0.0,0.0,0.0,0.0,0.0,0.0,0.0,0.0,0.0,0.0,0.0,0.0,0.0,0.0,0.0,0.0,0.0,0.0,0.0,0.0,0.0,0.0,0.0,0.0,0.0,0.0,0.0,0.0,0.0,0.0,0.0,0.0,0.0,0.0,0.0,0.0,0.0,0.0,0.0,0.0,0.0,-2.3224,-2.3432,-2.4366,-2.607,-2.6107,-2.6324,-2.685,-2.682,-2.6811,0.0,0.0,0.0,0.0,0.0,0.0,0.0,0.0,0.0,0.0,0.0,0.0,0.0,0.0,0.0,0.0,0.0,0.0,0.0,0.0,0.0,0.0,0.0,0.0,0.0,0.0,0.0,0.0,0.0,0.0,0.0,0.0,0.0,0.0,0.0,0.0,0.0,0.0,0.0,0.0,0.0,-0.4496,-0.5392,-0.5131,-0.5005,0.0,0.0,-0.5201,-0.4553,-0.3645,0.0,0.0,0.0,0.0,0.0,0.0,0.0,0.0,0.0,0.0,0.0,0.0,0.0,0.0,0.0,0.0,0.0,0.0,0.0,0.0,0.0,0.0,0.0,0.0,0.0,0.0,0.0,0.0,0.0,0.0,0.0,0.0,0.0,0.0,0.0,0.0,0.0,0.0,0.0,0.0,0.0,0.0,0.0,0.0,0.0,0.0,0.0,0.0,0.0,0.0,0.0,0.0,0.0,0.0,0.0,-2.1398,-2.1879,-2.2509,-2.3472,-2.477,-2.4933,-2.5486,-2.6492,-2.6697,-2.6716,0.0,0.0,0.0,0.0,0.0,0.0,0.0,0.0,0.0,0.0,0.0,0.0,0.0,0.0,0.0,0.0,0.0,0.0,0.0,0.0,0.0,0.0,0.0,0.0,0.0,0.0,0.0,0.0,0.0,0.0,0.0,0.0,0.0,0.0,0.0,0.0,0.0,0.0,0.0,0.0,0.0,0.0,-0.4768,-0.4969,0.0,0.0,0.0,-0.4846,-0.4309,0.0,0.0,0.0,0.0,0.0,0.0,0.0,0.0,0.0,0.0,0.0,0.0,0.0,0.0,0.0,0.0,0.0,0.0,0.0,0.0,0.0,0.0,0.0,0.0,0.0,0.0,0.0,0.0,0.0,0.0,0.0,0.0,0.0,0.0,0.0,0.0,0.0,0.0,0.0,0.0,0.0,0.0,0.0,0.0,0.0,0.0,0.0,0.0,0.0,0.0,0.0,0.0,0.0,0.0,0.0,0.0,0.0,-2.068,-2.1566,-2.2433,-2.3243,-2.3529,-2.4267,-2.5414,-2.5703,0.0,0.0,0.0,0.0,0.0,0.0,0.0,0.0,0.0,0.0,0.0,0.0,0.0,0.0,0.0,0.0,0.0,0.0,0.0,0.0,0.0,0.0,0.0,0.0,0.0,0.0,0.0,-0.644,0.0,0.0,0.0,0.0,0.0,0.0,0.0,0.0,0.0,0.0,0.0,0.0,0.0,0.0,-0.5076,-0.4068,-0.4421,-0.4618,0.0,0.0,-0.4445,-0.4088,-0.3421,-0.2889,0.0,0.0,0.0,0.0,0.0,0.0,0.0,0.0,0.0,0.0,0.0,0.0,0.0,0.0,0.0,0.0,0.0,0.0,0.0,0.0,0.0,0.0,0.0,0.0,0.0,0.0,0.0,0.0,0.0,0.0,0.0,0.0,0.0,0.0,0.0,0.0,0.0,0.0,0.0,0.0,0.0,0.0,0.0,0.0,0.0,0.0,0.0,0.0,0.0,0.0,0.0,0.0,0.0,0.0,0.0,-1.9949,-2.0402,-2.1031,-2.1918,-2.1945,-2.2253,-2.2833,-2.2896,-2.3679,0.0,0.0,0.0,0.0,0.0,0.0,0.0,0.0,0.0,0.0,0.0,0.0,0.0,0.0,0.0,0.0,0.0,0.0,0.0,0.0,0.0,0.0,0.0,0.0,0.0,0.0,0.0,0.0,0.0,0.0,0.0,0.0,0.0,0.0,0.0,0.0,0.0,0.0,0.0,0.0,0.0,-0.4654,-0.3602,-0.3485,-0.3448,0.0,0.0,-0.4073,-0.3851,-0.3775,-0.3631,-0.3295,0.0,0.0,0.0,0.0,0.0,0.0,0.0,0.0,0.0,0.0,0.0,0.0,0.0,0.0,0.0,0.0,0.0,0.0,0.0,0.0,0.0,0.0,0.0,0.0,0.0,0.0,0.0,0.0,0.0,0.0,0.0,0.0,0.0,0.0,0.0,0.0,0.0,0.0,0.0,0.0,0.0,0.0,0.0,0.0,0.0,0.0,0.0,0.0,0.0,0.0,0.0,0.0,0.0,-1.7639,-1.7995,-1.8628,-1.9374,-2.0187,-2.0711,-2.1375,-2.2103,-2.2113,-2.2467,0.0,0.0,0.0,0.0,0.0,0.0,0.0,0.0,0.0,0.0,0.0,0.0,0.0,0.0,0.0,0.0,0.0,0.0,0.0,0.0,0.0,0.0,0.0,0.0,0.0,0.0,0.0,0.0,-0.7037,-0.7074,-0.7,0.0,0.0,0.0,0.0,0.0,0.0,0.0,0.0,0.0,0.0,-0.4107,-0.3171,-0.3488,0.0,0.0,-0.3201,-0.3531,-0.2794,-0.2966,-0.3082,-0.2701,-0.2843,0.0,0.0,0.0,0.0,0.0,0.0,0.0,0.0,0.0,0.0,0.0,0.0,0.0,0.0,0.0,0.0,0.0,0.0,0.0,0.0,0.0,0.0,0.0,0.0,0.0,0.0,0.0,0.0,0.0,0.0,0.0,0.0,0.0,0.0,0.0,0.0,0.0,0.0,0.0,0.0,0.0,0.0,0.0,0.0,0.0,0.0,0.0,0.0,0.0,0.0,0.0,0.0,-1.6758,-1.6789,-1.7334,-1.79,-1.8443,-1.9049,-1.9767,-2.0624,-2.0411,-2.0779,0.0,0.0,0.0,0.0,0.0,0.0,0.0,0.0,0.0,0.0,0.0,0.0,0.0,0.0,0.0,0.0,0.0,0.0,0.0,0.0,0.0,0.0,0.0,0.0,0.0,0.0,0.0,0.0,-0.724,-0.7277,-0.7237,0.0,0.0,0.0,0.0,0.0,0.0,0.0,0.0,0.0,0.0,-0.3401,-0.2495,-0.3149,-0.3479,-0.2501,-0.3381,-0.3873,-0.32,-0.3166,-0.3096,-0.2701,0.0,0.0,0.0,0.0,0.0,0.0,0.0,0.0,0.0,0.0,0.0,0.0,0.0,0.0,0.0,0.0,0.0,0.0,0.0,0.0,0.0,0.0,0.0,0.0,0.0,0.0,0.0,0.0,0.0,0.0,-1.5638,0.0,0.0,0.0,0.0,0.0,0.0,0.0,0.0,0.0,0.0,0.0,0.0,0.0,0.0,0.0,0.0,0.0,0.0,0.0,0.0,0.0,0.0,-1.6756,-1.6772,-1.6763,-1.6755,-1.6796,-1.678,-1.7245,-1.8095,-1.7261,-1.8345,-2.1432,0.0,0.0,0.0,0.0,0.0,0.0,0.0,0.0,0.0,0.0,0.0,0.0,0.0,0.0,0.0,0.0,0.0,0.0,0.0,0.0,0.0,0.0,0.0,0.0,0.0,0.0,-0.7037,-0.7314,-0.7553,0.0,0.0,0.0,0.0,0.0,0.0,0.0,0.0,0.0,0.0,-0.3041,-0.2513,-0.1504,-0.2356,-0.3141,-0.3273,-0.444,-0.5362,-0.5413,-0.4813,-0.412,0.0,0.0,0.0,0.0,0.0,0.0,0.0,0.0,0.0,0.0,0.0,0.0,0.0,0.0,0.0,0.0,0.0,0.0,0.0,0.0,0.0,0.0,0.0,0.0,0.0,0.0,0.0,-1.7018,-1.7044,0.0,0.0,0.0,0.0,0.0,0.0,0.0,0.0,0.0,0.0,0.0,-1.3071,-1.231,0.0,0.0,0.0,0.0,0.0,0.0,0.0,0.0,0.0,0.0,0.0,0.0,-1.5677,-1.5867,-1.605,-1.6229,-1.6447,-1.7005,-1.7432,-1.7722,-1.7243,-1.7813,-1.9602,0.0,0.0,0.0,0.0,0.0,0.0,0.0,0.0,0.0,0.0,0.0,0.0,0.0,0.0,0.0,0.0,0.0,0.0,0.0,0.0,0.0,0.0,0.0,0.0,0.0,-0.7909,0.0,0.0,0.0,0.0,0.0,0.0,0.0,0.0,0.0,0.0,0.0,-0.3723,-0.3058,-0.254,-0.2001,-0.1371,-0.1907,-0.2275,0.0,0.0,0.0,0.0,0.0,0.0,0.0,0.0,0.0,0.0,0.0,0.0,0.0,0.0,-0.1391,-0.1391,-0.1451,-0.1466,-0.1466,0.0,0.0,0.0,0.0,0.0,0.0,0.0,0.0,0.0,0.0,0.0,0.0,0.0,0.0,-1.6259,0.0,-1.5433,0.0,0.0,0.0,0.0,0.0,0.0,0.0,0.0,-1.2237,-1.2087,-1.1883,-1.1497,-1.1262,0.0,-1.0689,-1.0546,0.0,0.0,0.0,0.0,0.0,0.0,0.0,0.0,-1.4359,-1.4184,-1.4539,-1.4865,-1.5198,-1.6046,-1.6709,-1.7121,-1.7216,-1.7268,-1.7227,-1.7125,-1.7165,0.0,0.0,0.0,0.0,0.0,0.0,0.0,0.0,0.0,0.0,0.0,0.0,0.0,0.0,0.0,0.0,0.0,0.0,0.0,0.0,0.0,0.0,0.0,-0.7609,0.0,0.0,0.0,0.0,0.0,0.0,0.0,0.0,0.0,-0.5379,-0.3914,-0.2685,-0.2398,-0.1994,-0.1632,-0.136,0.0,0.0,0.0,0.0,0.0,0.0,0.0,-0.3665,-0.2654,-0.3016,-0.3208,-0.2536,-0.2176,-0.196,-0.1988,0.0,0.0,-0.1395,-0.1451,-0.1465,-0.1465,-0.1465,-0.1465,-0.1465,-0.1449,-0.1391,0.0,0.0,0.0,0.0,0.0,0.0,0.0,0.0,-1.6493,-1.5695,0.0,-1.403,0.0,0.0,0.0,0.0,0.0,-1.1547,0.0,0.0,-1.1224,-1.1273,-1.116,-1.026,-0.983,-0.9781,-0.8789,-0.8789,-0.9792,-1.0533,0.0,0.0,0.0,0.0,0.0,0.0,-1.2964,-1.1948,-1.2464,-1.2836,-1.3139,-1.4,-1.4997,-1.6094,-1.6925,-1.6395,-1.4482,-1.5183,-1.5099,-1.3933,-1.3665,0.0,0.0,0.0,0.0,0.0,0.0,0.0,0.0,0.0,0.0,0.0,0.0,0.0,0.0,0.0,0.0,0.0,0.0,0.0,0.0,-0.6031,0.0,0.0,0.0,0.0,0.0,0.0,0.0,0.0,0.0,0.0,-0.4144,-0.3406,-0.248,-0.1431,0.0,0.0,0.0,0.0,-0.3041,-0.2865,-0.3953,-0.4643,-0.4372,-0.3643,-0.3075,-0.2925,0.0,0.0,-0.1518,-0.1482,-0.1547,-0.1606,-0.1541,-0.1461,-0.1405,-0.1398,-0.1398,-0.1397,-0.1399,-0.1395,-0.1395,-0.1401,-0.1398,-1.9218,0.0,0.0,0.0,0.0,-1.6548,-1.6013,-1.5565,-1.4647,-1.4223,-1.4111,-1.3434,0.0,0.0,0.0,0.0,0.0,0.0,-1.0969,-1.0669,-1.0353,-1.0168,-0.9981,-0.882,-0.8351,-0.8425,-0.7601,-0.7326,-0.7632,-0.8408,-0.9902,-1.2104,0.0,0.0,0.0,0.0,-1.2391,-1.23,-1.2389,-1.2559,-1.2797,-1.3091,-1.3269,-1.3431,-1.3697,-1.3439,-1.2643,-1.2896,-1.2773,-1.2292,-1.2175,0.0,0.0,0.0,0.0,0.0,0.0,0.0,0.0,0.0,0.0,0.0,0.0,0.0,0.0,0.0,0.0,0.0,0.0,0.0,-0.7329,-0.6317,-0.5852,0.0,0.0,0.0,0.0,0.0,0.0,0.0,0.0,0.0,-0.304,-0.233,-0.1644,0.0,0.0,-0.1398,-0.1419,-0.1697,-0.1882,-0.1838,-0.2161,0.0,-0.2305,-0.2731,-0.281,-0.207,-0.1662,-0.1493,-0.151,-0.1513,-0.1519,-0.1537,-0.1532,-0.1473,-0.1458,-0.1453,-0.1453,-0.1453,-0.1453,-0.15,-0.15,-0.1453,-0.1453,-1.7897,-1.7273,-1.7505,-1.7226,-1.6539,-1.5641,-1.4961,-1.443,-1.381,-1.3357,-1.2987,-1.2508,-1.232,-1.2388,-1.1441,0.0,0.0,0.0,-0.9577,-0.9278,-0.8713,-0.84,-0.8207,-0.7556,-0.7273,-0.7356,-0.6852,-0.6646,-0.6694,-0.7106,-0.8203,-0.9992,0.0,0.0,-1.1719,-1.1631,-1.1445,-1.1162,-1.1448,-1.1696,-1.1963,-1.2442,-1.2614,-1.2474,-1.2469,-1.2173,-1.1533,-1.1476,-1.1236,-1.0653,-1.087,-1.075,0.0,0.0,0.0,0.0,0.0,0.0,0.0,0.0,0.0,0.0,0.0,-0.7293,-0.7389,0.0,0.0,0.0,-0.5769,-0.6041,-0.6087,-0.5181,0.0,0.0,0.0,0.0,0.0,0.0,0.0,-0.3911,-0.2877,-0.221,-0.2113,-0.1696,-0.1361,-0.1416,-0.1412,-0.1418,-0.1449,0.0,-0.1412,-0.1423,-0.1425,-0.1476,-0.1487,-0.2026,-0.2228,-0.1595,-0.1514,-0.1531,-0.1543,-0.1544,-0.1549,-0.151,-0.1513,-0.1562,-0.1513,-0.1562,-0.1552,-0.1483,-0.1478,-0.1478,-0.1478,-0.1478,-0.1478,-1.6116,-1.5311,-1.6595,-1.661,-1.5711,-1.4993,-1.4269,-1.3655,-1.3605,-1.2901,-1.1672,-1.1356,-1.1123,-1.0893,-1.0587,0.0,-0.9121,-0.8155,-0.765,-0.7391,-0.6729,-0.6424,-0.6439,-0.6518,-0.6535,-0.655,-0.6357,-0.6371,-0.6531,-0.6421,-0.657,-0.6991,-0.9404,-1.0461,-1.0236,-1.0447,-1.0026,-0.898,-0.9868,-1.0473,-1.0801,-1.1897,-1.2441,-1.2436,-1.2457,-1.1928,-1.0862,-1.0767,-1.0204,-0.9125,-0.9629,-0.9565,-0.8729,0.0,0.0,0.0,0.0,0.0,0.0,0.0,0.0,0.0,0.0,0.0,0.0,0.0,0.0,0.0,-0.3552,0.0,-0.3317,-0.3284,0.0,0.0,0.0,-0.4786,-0.438,-0.3657,-0.3077,-0.2823,0.0,0.0,-0.1394,-0.1467,-0.1464,-0.1408,-0.1425,-0.1407,-0.148,-0.1485,-0.1495,-0.1523,-0.1481,-0.154,-0.1564,-0.1604,-0.1595,-0.1549,-0.1492,-0.1556,-0.158,-0.1585,-0.1595,-0.1619,-0.1624,-0.1573,-0.1624,-0.1624,-0.1606,-0.1551,-0.1538,-0.1535,-0.1538,-0.149,-0.1491,-1.5383,-1.5036,-1.4399,-1.4297,-1.452,-1.434,-1.3936,-1.3381,-1.2846,-1.2236,-1.1499,-1.095,-1.0462,-1.0054,-0.9403,-0.8772,-0.8221,-0.7352,-0.6941,-0.6879,-0.6697,-0.6701,-0.6842,-0.6255,-0.608,-0.6113,-0.5475,-0.5192,-0.5264,-0.5834,-0.6145,-0.6297,-0.748,-0.7993,-0.7852,-0.7876,-0.7784,-0.7513,-0.84,-0.9217,-0.9898,-1.0186,-1.0355,-1.0355,-1.0495,-1.0382,-0.9915,-0.9482,-0.8962,-0.8442,-0.8002,-0.7547,-0.7152,-0.8088,0.0,0.0,0.0,0.0,0.0,0.0,0.0,0.0,0.0,-0.6387,-0.6618,0.0,-0.6731,0.0,-0.3141,-0.3027,-0.4441,-0.3634,0.0,0.0,-0.4034,-0.3957,-0.2379,-0.2749,-0.2781,-0.193,-0.1623,-0.1497,-0.1457,-0.151,-0.151,-0.1495,-0.1453,-0.1507,-0.1515,-0.1515,-0.1526,-0.1554,-0.1562,-0.1571,-0.1601,-0.162,-0.1636,-0.1658,-0.166,-0.1665,-0.1671,-0.1672,-0.1675,-0.1682,-0.1684,-0.1684,-0.1682,-0.1684,-0.167,-0.1637,-0.1611,-0.1545,-0.1595,-0.1545,-0.1545,-1.4546,-1.3908,-1.3066,-1.2773,-1.2808,-1.2813,-1.256,-1.2137,-1.1393,-1.0785,-1.014,-0.9215,-0.866,-0.838,-0.7959,-0.763,-0.7308,-0.6552,-0.6222,-0.6175,-0.5892,-0.5831,-0.5896,-0.5554,-0.5381,-0.5441,-0.512,-0.4957,-0.4957,-0.542,-0.5473,-0.5216,-0.5674,-0.5695,-0.5429,-0.6487,-0.7131,-0.7196,-0.7717,-0.8211,-0.8635,-0.8689,-0.8958,-0.9461,-0.9032,-0.9024,-0.9465,-0.8621,-0.8204,-0.8407,-0.759,-0.7168,-0.7397,-0.7576,-0.7414,0.0,0.0,0.0,0.0,0.0,0.0,0.0,0.0,0.0,0.0,0.0,-0.6021,-0.4612,-0.2961,-0.2596,-0.4108,-0.3073,-0.2332,-0.2442,-0.2881,-0.2703,-0.1569,-0.202,-0.2133,-0.1596,-0.1516,-0.1478,-0.1478,-0.1538,-0.1547,-0.1547,-0.1558,-0.1561,-0.155,-0.1509,-0.1577,-0.1657,-0.1622,-0.1635,-0.1654,-0.1734,-0.1701,-0.1703,-0.1704,-0.1704,-0.1704,-0.1704,-0.1704,-0.1704,-0.1704,-0.1704,-0.1704,-0.1704,-0.1592,-0.121,-0.1094,-0.1081,-0.1064,-0.0808,-0.0555,-1.3568,-1.247,-1.2221,-1.1698,-1.1027,-1.0924,-1.0795,-1.0541,-0.9861,-0.9148,-0.8345,-0.7266,-0.6747,-0.6747,-0.6655,-0.6605,-0.6557,-0.5839,-0.5503,-0.5458,-0.489,-0.4606,-0.4614,-0.4613,-0.4589,-0.4607,-0.4648,-0.4616,-0.4627,-0.4627,-0.447,-0.4101,-0.4101,-0.3895,-0.3583,-0.5677,-0.6944,-0.7258,-0.7272,-0.733,-0.7495,-0.7498,-0.8037,-0.9078,-0.8088,-0.8003,-0.905,-0.7976,-0.7675,-0.8379,-0.7498,-0.7217,-0.7869,-0.7325,-0.6877,0.0,-0.6462,0.0,0.0,0.0,0.0,0.0,0.0,0.0,0.0,-0.4054,-0.4602,-0.482,-0.285,-0.2,-0.303,-0.2129,-0.1482,-0.1479,-0.1478,-0.1478,-0.1478,-0.1481,-0.1484,-0.1532,-0.1535,-0.149,-0.1492,-0.1513,-0.1479,-0.153,-0.1302,-0.1207,-0.1393,-0.1504,-0.1582,-0.1563,-0.1432,-0.1124,-0.1181,-0.1303,-0.1309,-0.1346,-0.1236,-0.1394,-0.1289,-0.1289,-0.1341,-0.1449,-0.1451,-0.1504,-0.1555,-0.1502,-0.1233,-0.0374,-0.0107,-0.0053,-0.0154,0.0255,0.0812,-1.2101,-1.1798,-1.135,-1.066,-0.9884,-0.9475,-0.9353,-0.9514,-0.9314,-0.8607,-0.7454,-0.7211,-0.7112,-0.7063,-0.6421,-0.6129,-0.6077,-0.528,-0.4932,-0.4932,-0.4833,-0.4736,-0.4688,-0.3915,-0.3503,-0.345,-0.2644,-0.2253,-0.2179,-0.2179,-0.2604,-0.3459,-0.3459,-0.3725,-0.4257,0.0,0.0,0.0,-0.6333,-0.6915,-0.7582,-0.7582,-0.7711,-0.7922,-0.78,0.0,-0.7815,-0.7155,-0.6719,-0.6657,-0.5855,0.0,0.0,0.0,0.0,0.0,0.0,0.0,0.0,0.0,0.0,0.0,-0.2035,-0.2856,-0.3456,-0.3116,-0.3202,-0.3987,-0.2962,-0.213,-0.1946,-0.1705,-0.1553,-0.1529,-0.1478,-0.1478,-0.1479,-0.1548,-0.1563,-0.1563,-0.1585,-0.1549,-0.15,-0.1053,-0.0905,-0.1309,-0.0408,0.0103,-0.0462,-0.1135,-0.136,-0.0754,-0.0164,0.0333,0.0389,0.0334,0.0223,0.0389,0.0389,0.0333,0.0332,0.0333,0.0055,-0.0499,-0.0611,-0.0666,-0.0666,-0.0666,-0.0386,0.0491,0.1197,0.1514,0.09,0.0896,0.0949,-1.1072,0.0,-1.0024,-0.9362,0.0,-0.8259,-0.8021,-0.7785,-0.7782,-0.7175,-0.6154,-0.6154,-0.6123,-0.6121,-0.5667,-0.5436,-0.5388,-0.4987,-0.4782,-0.4782,-0.428,-0.3979,-0.3981,-0.2975,-0.239,-0.2257,-0.1708,-0.1406,-0.1198,-0.1199,-0.1362,-0.1691,-0.1691,-0.1706,-0.1845,-0.2036,-0.288,-0.4416,-0.4781,-0.5202,-0.5628,-0.5628,-0.6061,-0.6883,-0.6401,0.0,0.0,0.0,0.0,0.0,0.0,0.0,0.0,0.0,0.0,-0.2606,-0.3087,-0.2794,-0.1502,-0.1437,-0.0974,0.0155,-0.0207,-0.1186,-0.2911,-0.206,-0.1804,-0.2652,-0.2264,-0.1885,-0.1622,-0.1572,-0.1571,-0.1521,-0.1522,-0.1522,-0.1573,-0.1584,-0.16,-0.1665,-0.1629,-0.1489,-0.1036,-0.0674,-0.0363,-0.0311,0.0421,0.0854,0.043,-0.0107,-0.0215,0.0165,0.0557,0.0897,0.0897,0.0897,0.0897,0.0897,0.0897,0.0897,0.0897,0.0897,0.0729,0.0336,0.028,0.0224,0.0224,0.0224,0.0504,0.1345,0.1961,0.2356,0.229,0.2307,0.2211,-1.0031,-0.8892,-0.8711,-0.8183,-0.7384,-0.7384,-0.6906,-0.6163,0.0,0.0,0.0,-0.5106,-0.5067,-0.4998,-0.4996,-0.4953,-0.4835,-0.4883,-0.4731,-0.4474,-0.3612,-0.3103,-0.2852,-0.1841,-0.1284,-0.1021,-0.0829,-0.0617,-0.0337,-0.0336,-0.0168,0.0112,0.0168,0.0336,0.0673,0.0336,-0.0778,-0.2636,-0.2916,-0.3161,-0.3374,-0.3208,-0.3929,-0.5602,-0.437,-0.4467,-0.5976,-0.4534,-0.4073,-0.4834,-0.3788,-0.3097,-0.2985,-0.2606,-0.1997,-0.1118,-0.0851,-0.0532,-0.0053,0.0,0.032,0.1176,0.1334,0.0478,-0.175,-0.0826,-0.0456,-0.1111,-0.1294,-0.1384,-0.1388,-0.1389,-0.1349,-0.1374,-0.1377,-0.1377,-0.1377,-0.1377,-0.1386,-0.1457,-0.1252,-0.0943,-0.0265,0.0,0.0267,0.0857,0.1355,0.155,0.1461,0.1286,0.1115,0.1186,0.1476,0.1472,0.1409,0.1522,0.1407,0.1515,0.1458,0.1402,0.1402,0.1402,0.129,0.1177,0.1121,0.1123,0.1125,0.1127,0.1472,0.2358,0.2603,0.285,0.3582,0.3677,0.3529,-0.8332,-0.8164,-0.8149,-0.7593,-0.6832,-0.683,-0.6335,-0.555,-0.5336,-0.5214,-0.5106,-0.5106,-0.51,-0.5088,-0.509,-0.5081,-0.5069,-0.5071,-0.4488,-0.3537,-0.3327,-0.2745,-0.169,-0.0647,-0.011,0.0056,0.0951,0.1525,0.1827,0.1751,0.1457,0.084,0.0784,0.0616,0.0168,0.056,0.0616,0.0279,-0.0791,-0.1766,-0.2513,-0.177,-0.1831,-0.2813,-0.197,-0.1507,-0.1741,-0.1564,-0.1439,-0.1479,-0.1533,-0.1521,-0.1441,-0.1548,-0.1386,-0.0851,-0.0904,-0.0425,0.0958,0.1117,0.1445,0.201,0.2687,0.2329,0.0625,0.0621,0.0667,0.0455,-0.0202,-0.0557,-0.0564,-0.0514,-0.0517,-0.0579,-0.0581,-0.0581,-0.058,-0.058,-0.0581,-0.0584,0.0159,0.0584,0.0803,0.1338,0.1508,0.1416,0.2278,0.3222,0.3074,0.2684,0.2273,0.2278,0.2865,0.3314,0.3103,0.3263,0.3135,0.3202,0.309,0.3039,0.2984,0.304,0.2756,0.213,0.2081,0.2034,0.2112,0.2117,0.2485,0.3287,0.3505,0.366,0.3858,0.3857,0.3779,-0.7756,-0.7318,-0.7315,-0.6821,-0.5991,-0.5993,-0.577,-0.5373,-0.5294,-0.5255,-0.5257,-0.5257,-0.5228,-0.5184,-0.5181,-0.5153,-0.5053,-0.4417,-0.3831,-0.3245,-0.2022,-0.1069,-0.0324,0.0769,0.151,0.1874,0.2352,0.2775,0.3083,0.3064,0.2879,0.2474,0.2474,0.2244,0.184,0.2245,0.236,0.2187,0.074,-0.017,-0.0566,-0.017,-0.034,-0.1075,-0.0786,-0.0783,-0.1118,-0.0951,-0.0893,-0.0831,-0.0499,-0.011,0.0438,0.0328,0.0602,0.1313,0.1095,0.1313,0.2245,0.2539,0.2784,0.2976,0.3379,0.33,0.2474,0.1925,0.1421,0.0895,0.0523,0.0365,0.0368,0.0368,0.0369,0.0372,0.0373,0.0373,0.0373,0.0373,0.0375,0.0382,0.0712,0.1158,0.1685,0.2083,0.2481,0.2507,0.3349,0.3768,0.3852,0.3501,0.3179,0.3192,0.3532,0.3758,0.3732,0.3728,0.3714,0.3688,0.3685,0.3687,0.3687,0.3685,0.35,0.3135,0.305,0.3142,0.3094,0.3134,0.3421,0.3714,0.3931,0.3962,0.3995,0.4004,0.3901,-0.7041,-0.6437,-0.6381,-0.5991,-0.5382,-0.5382,-0.5382,-0.5382,-0.5382,-0.527,-0.5044,-0.527,-0.5343,-0.5223,-0.4945,-0.4796,-0.4634,-0.3498,-0.2745,-0.226,-0.0646,0.0489,0.116,0.2024,0.2688,0.3194,0.3177,0.3374,0.3669,0.3716,0.371,0.3768,0.3827,0.3651,0.3414,0.3651,0.3651,0.3351,0.2183,0.1474,0.1247,0.1417,0.1247,0.0566,0.0566,0.034,-0.0113,0.0057,0.017,0.017,0.0737,0.1417,0.2042,0.2099,0.2381,0.2948,0.2949,0.295,0.3233,0.3557,0.3699,0.3757,0.3743,0.3749,0.3637,0.3015,0.2294,0.1645,0.1411,0.1295,0.1301,0.1302,0.1356,0.1307,0.1308,0.1313,0.1309,0.1308,0.132,0.1298,0.1474,0.1947,0.2513,0.2707,0.3,0.3605,0.3842,0.3899,0.3879,0.3888,0.3846,0.3846,0.3809,0.3805,0.3855,0.3849,0.3789,0.3849,0.3847,0.3793,0.3801,0.3811,0.3796,0.3707,0.3754,0.3797,0.3842,0.3837,0.3915,0.4029,0.3995,0.409,0.4124,0.4091,0.3975,-0.5603,-0.5549,-0.5549,-0.5493,-0.5382,-0.5382,-0.5382,-0.5382,-0.5382,-0.4761,-0.3861,-0.4875,-0.5322,-0.5256,-0.4187,-0.3732,-0.3614,-0.2506,-0.1224,0.0,0.0334,0.1237,0.2457,0.2673,0.2837,0.2935,0.3005,0.3188,0.3487,0.3384,0.3535,0.3768,0.3827,0.3774,0.3771,0.3773,0.3771,0.3768,0.3582,0.3107,0.2344,0.3106,0.3106,0.2226,0.2988,0.34,0.31,0.3342,0.3341,0.3341,0.3045,0.3046,0.3105,0.2928,0.2871,0.2927,0.3104,0.34,0.3692,0.3758,0.382,0.376,0.3829,0.3773,0.3823,0.3687,0.3573,0.3219,0.2683,0.2244,0.2163,0.2278,0.2343,0.2251,0.2259,0.2274,0.2264,0.2275,0.2278,0.2282,0.2866,0.3582,0.3541,0.3547,0.368,0.3846,0.3895,0.3935,0.3884,0.3888,0.3887,0.3869,0.3868,0.3903,0.3867,0.3913,0.386,0.3917,0.3916,0.3882,0.3918,0.3933,0.3867,0.3901,0.3935,0.3966,0.3989,0.3965,0.399,0.4117,0.4161,0.4199,0.42,0.4159,0.4101,-0.5382,-0.5382,-0.5382,-0.5382,-0.5382,-0.5382,-0.4987,-0.4367,-0.4142,-0.3357,-0.235,-0.2628,-0.2852,-0.291,-0.2292,-0.2012,-0.19,-0.0727,0.0112,0.0784,0.1457,0.2274,0.3028,0.3108,0.3221,0.3478,0.3486,0.3545,0.3665,0.3705,0.3693,0.3877,0.3876,0.3876,0.3876,0.3876,0.3876,0.3877,0.3876,0.3693,0.3383,0.3627,0.3651,0.3297,0.3414,0.3532,0.3473,0.3356,0.3238,0.3297,0.3297,0.3297,0.3297,0.3356,0.3414,0.3414,0.3532,0.3651,0.3827,0.3862,0.3883,0.3823,0.3857,0.3876,0.3876,0.3876,0.3852,0.3747,0.3443,0.3184,0.3203,0.3206,0.3274,0.3233,0.3237,0.3238,0.3237,0.3238,0.3247,0.3337,0.3584,0.3838,0.3867,0.3876,0.3887,0.3912,0.3877,0.3887,0.3888,0.3888,0.3888,0.3888,0.3888,0.388,0.392,0.3946,0.3958,0.3967,0.3995,0.4033,0.4042,0.399,0.3982,0.4011,0.4059,0.4086,0.4082,0.4158,0.4207,0.4299,0.424,0.427,0.427,0.4221,0.4432,-0.5382,-0.5382,-0.5044,-0.4931,-0.4875,-0.4426,-0.3807,-0.3021,-0.2627,-0.1845,-0.0839,-0.0503,-0.0391,-0.0336,-0.0391,-0.0391,-0.028,0.0839,0.1456,0.1569,0.2421,0.3039,0.341,0.3432,0.3607,0.3875,0.3887,0.3888,0.3888,0.3888,0.3888,0.3888,0.3888,0.3888,0.3888,0.3888,0.3888,0.3887,0.3888,0.3888,0.3876,0.3864,0.3819,0.3819,0.3579,0.346,0.346,0.328,0.3161,0.3161,0.334,0.346,0.346,0.3698,0.3819,0.3819,0.3819,0.3819,0.3819,0.386,0.3886,0.389,0.3928,0.3888,0.3888,0.3888,0.3888,0.3876,0.3871,0.3819,0.3818,0.3819,0.3819,0.3819,0.3819,0.3819,0.3822,0.3819,0.3839,0.3877,0.3886,0.3901,0.3877,0.3883,0.3883,0.3884,0.3887,0.3888,0.3888,0.3889,0.3893,0.3907,0.3912,0.3914,0.3915,0.3935,0.3974,0.4089,0.4121,0.4146,0.4168,0.4176,0.4173,0.4157,0.4211,0.4225,0.4198,0.426,0.4632,0.4839,0.4906,0.5171,0.5765,0.5442,0.5859,-0.5382,-0.5212,-0.4142,-0.3638,-0.358,-0.2238,-0.1512,-0.1399,-0.1173,-0.0447,0.0392,0.0728,0.1288,0.1907,0.1176,0.0839,0.1007,0.2073,0.2693,0.2921,0.3076,0.3417,0.377,0.3828,0.3888,0.3885,0.3888,0.3888,0.3888,0.3888,0.3888,0.3888,0.3888,0.3888,0.3888,0.3888,0.3888,0.3888,0.3888,0.3888,0.3888,0.3881,0.3872,0.3871,0.3877,0.3809,0.3875,0.3879,0.3816,0.3877,0.3811,0.3875,0.3876,0.3876,0.3873,0.3873,0.3876,0.3876,0.3873,0.3876,0.388,0.3883,0.3884,0.3888,0.3888,0.3888,0.3888,0.3888,0.3881,0.3873,0.3873,0.3863,0.3865,0.3868,0.3876,0.3876,0.3877,0.3939,0.388,0.3888,0.3892,0.3956,0.3893,0.3888,0.3892,0.3891,0.3888,0.3888,0.3891,0.3889,0.3914,0.3948,0.3966,0.397,0.397,0.4057,0.4041,0.415,0.4189,0.4226,0.427,0.43,0.4288,0.4281,0.4283,0.4288,0.4297,0.4635,0.5238,0.5642,0.6176,0.6642,0.7176,0.8012,0.823,-0.3638,-0.2743,-0.2294,-0.2013,-0.1844,-0.1454,-0.0895,-0.0168,-0.0056,0.0728,0.1793,0.2185,0.2577,0.3083,0.2801,0.252,0.2353,0.2971,0.3328,0.3473,0.3496,0.3614,0.3823,0.3912,0.3892,0.3881,0.3888,0.3888,0.3888,0.3888,0.3888,0.3888,0.3888,0.3888,0.3888,0.3888,0.3888,0.3888,0.3888,0.3888,0.3888,0.3888,0.3888,0.3888,0.3888,0.3888,0.3888,0.3888,0.3888,0.3888,0.3888,0.3888,0.3888,0.3888,0.3888,0.3888,0.3888,0.3888,0.3888,0.3888,0.3888,0.3888,0.3888,0.3889,0.3888,0.3888,0.3888,0.3895,0.3926,0.394,0.3934,0.3911,0.3889,0.3893,0.3922,0.3943,0.395,0.3974,0.3999,0.3999,0.4061,0.4049,0.395,0.3942,0.3927,0.3896,0.3889,0.3892,0.3896,0.3918,0.3952,0.4036,0.4005,0.4044,0.415,0.4151,0.4173,0.4206,0.424,0.4264,0.4368,0.4434,0.4487,0.4892,0.4772,0.4841,0.5037,0.5571,0.6176,0.731,0.7774,0.8041,0.8507,0.9105,0.9485,-0.2103,-0.1308,-0.0853,-0.0625,-0.0511,-0.0114,0.0455,0.1252,0.1479,0.205,0.2849,0.3076,0.3246,0.336,0.3475,0.3417,0.3184,0.3438,0.3609,0.3651,0.3689,0.3811,0.3824,0.3871,0.391,0.3884,0.3888,0.3888,0.3888,0.3888,0.3888,0.3888,0.3888,0.3888,0.3888,0.3888,0.3888,0.3888,0.3888,0.3888,0.3888,0.3888,0.3888,0.3888,0.3888,0.3888,0.3888,0.3888,0.3888,0.3888,0.3888,0.3888,0.3888,0.3888,0.3888,0.3888,0.3888,0.3888,0.3888,0.3888,0.3888,0.3888,0.3889,0.3895,0.3911,0.3916,0.3923,0.3947,0.4037,0.4063,0.3994,0.3967,0.3946,0.3948,0.3978,0.4064,0.4003,0.41,0.4054,0.4054,0.4053,0.4037,0.4011,0.4003,0.4048,0.4011,0.3944,0.3944,0.4014,0.3974,0.4011,0.4091,0.413,0.418,0.421,0.4213,0.4196,0.4287,0.4421,0.446,0.4812,0.4812,0.5155,0.5434,0.5642,0.5642,0.5975,0.6575,0.7641,0.8906,0.9305,0.9504,0.9836,1.017,1.0631,-0.0821,-0.0761,0.0117,0.0527,0.0585,0.1873,0.2702,0.2755,0.3286,0.3339,0.3218,0.3286,0.3219,0.3052,0.3336,0.3347,0.3385,0.3544,0.362,0.3634,0.3782,0.3833,0.38,0.3895,0.388,0.3888,0.3888,0.3888,0.3888,0.3888,0.3888,0.3888,0.3888,0.3888,0.3888,0.3888,0.3888,0.3888,0.3888,0.3888,0.3888,0.3888,0.3888,0.3888,0.3888,0.3888,0.3888,0.3888,0.3888,0.3888,0.3888,0.3888,0.3888,0.3888,0.3888,0.3888,0.3888,0.3888,0.3888,0.3888,0.3891,0.3899,0.3893,0.3919,0.3963,0.4037,0.4055,0.4094,0.4053,0.4127,0.4127,0.4128,0.4056,0.4123,0.4119,0.4125,0.4127,0.4064,0.413,0.414,0.4083,0.4066,0.4062,0.4062,0.4117,0.4108,0.404,0.4038,0.41,0.4113,0.4085,0.4188,0.421,0.4237,0.4253,0.426,0.43,0.4348,0.4534,0.474,0.5597,0.5929,0.663,0.6984,0.7234,0.7303,0.7907,0.8507,0.9172,1.017,1.0502,1.0993,1.1356,1.1707,1.2047,0.1058,0.1881,0.2294,0.253,0.2648,0.3061,0.3119,0.3119,0.3179,0.3237,0.3297,0.3297,0.3356,0.3474,0.3592,0.3652,0.3651,0.3768,0.3774,0.3783,0.3876,0.3856,0.3895,0.3872,0.3888,0.3888,0.3888,0.3889,0.3892,0.3891,0.3888,0.3888,0.3889,0.3888,0.3888,0.3888,0.3888,0.3888,0.3888,0.3888,0.3888,0.3888,0.3888,0.3888,0.3888,0.3888,0.3888,0.3888,0.3888,0.3888,0.3888,0.3888,0.3888,0.3888,0.3888,0.3888,0.3888,0.3888,0.3889,0.3891,0.3908,0.3936,0.3946,0.3974,0.4024,0.4098,0.4106,0.4132,0.4161,0.4188,0.4195,0.4228,0.4213,0.4135,0.4162,0.4188,0.4192,0.4222,0.4248,0.4251,0.4251,0.4234,0.42,0.4188,0.4173,0.414,0.4069,0.4134,0.4135,0.4169,0.4189,0.4215,0.4247,0.4474,0.4678,0.5199,0.5694,0.5657,0.5631,0.6033,0.6745,0.7322,0.8021,0.8607,0.8866,0.9163,0.9769,1.0319,1.0864,1.146,1.1869,1.2386,1.2853,1.3027,1.3047,0.2635,0.3356,0.3356,0.3415,0.3476,0.3415,0.3356,0.3355,0.3295,0.3356,0.3476,0.3536,0.3597,0.3781,0.3857,0.3868,0.3875,0.3932,0.3959,0.3954,0.3931,0.3948,0.3923,0.3946,0.3952,0.3952,0.3952,0.3952,0.3952,0.3931,0.3919,0.3981,0.4391,0.4378,0.4073,0.4379,0.4502,0.4073,0.4379,0.4439,0.4133,0.4378,0.4378,0.4013,0.3888,0.3888,0.3888,0.3888,0.3888,0.3888,0.3888,0.3888,0.3888,0.3888,0.3888,0.3888,0.3891,0.3896,0.3915,0.3923,0.4007,0.4055,0.4068,0.4095,0.4145,0.4158,0.4165,0.4198,0.4226,0.4251,0.4256,0.4281,0.4268,0.4204,0.4228,0.4249,0.4258,0.4283,0.4303,0.43,0.4301,0.4286,0.4263,0.4249,0.4237,0.4199,0.4192,0.4194,0.42,0.4228,0.424,0.4517,0.4939,0.516,0.5233,0.6007,0.7021,0.7103,0.7052,0.7742,0.8418,0.8915,0.9459,1.0336,1.0812,1.0962,1.1439,1.1585,1.1959,1.2609,1.297,1.3092,1.3197,1.3197,1.3222,0.3701,0.3517,0.3516,0.3386,0.32,0.3384,0.3566,0.3574,0.3757,0.3819,0.3887,0.3884,0.3892,0.3908,0.3939,0.4021,0.3983,0.4089,0.4112,0.4104,0.4076,0.4059,0.3985,0.4085,0.4038,0.4109,0.4112,0.405,0.4102,0.4251,0.4103,0.4412,0.5423,0.55,0.4964,0.55,0.5575,0.4904,0.5571,0.5511,0.4526,0.5444,0.5567,0.4462,0.4465,0.4529,0.4594,0.441,0.409,0.3952,0.3888,0.3888,0.3889,0.3891,0.3899,0.3901,0.3897,0.3932,0.3965,0.3977,0.4067,0.4121,0.4132,0.4157,0.421,0.4224,0.4239,0.4279,0.4294,0.43,0.43,0.4305,0.4301,0.4304,0.4293,0.4298,0.4304,0.4307,0.4307,0.4307,0.4307,0.4305,0.4298,0.4298,0.4297,0.4293,0.4288,0.4282,0.4283,0.4285,0.4367,0.4906,0.5637,0.617,0.6372,0.7683,0.8629,0.8744,0.8804,0.9397,0.9895,1.026,1.0882,1.1769,1.2285,1.2546,1.2726,1.2645,1.2704,1.2982,1.3197,1.3331,1.3384,1.3384,1.3425,0.3888,0.3826,0.3765,0.3765,0.3702,0.3765,0.3765,0.3828,0.3889,0.3915,0.3942,0.4012,0.3973,0.4014,0.4028,0.4101,0.4116,0.4165,0.4194,0.4199,0.4228,0.4177,0.4117,0.4117,0.413,0.4195,0.433,0.4061,0.4188,0.5259,0.5691,0.5755,0.699,0.7542,0.7365,0.7476,0.7552,0.7299,0.7484,0.7544,0.7229,0.7479,0.7615,0.7299,0.7105,0.7105,0.7047,0.6229,0.5035,0.4018,0.3888,0.3888,0.3899,0.393,0.4012,0.4018,0.399,0.4018,0.4095,0.4102,0.413,0.4183,0.4194,0.4218,0.4277,0.4282,0.429,0.4307,0.4307,0.4307,0.4307,0.4307,0.4307,0.4307,0.4307,0.4307,0.4307,0.4307,0.4307,0.4307,0.4311,0.4316,0.4318,0.4318,0.4318,0.4318,0.4315,0.4447,0.452,0.4574,0.4775,0.5642,0.6372,0.704,0.7902,0.9215,1.0132,1.0336,1.0612,1.1004,1.1225,1.1276,1.2094,1.301,1.2867,1.3061,1.3126,1.315,1.3295,1.3299,1.3364,1.3465,1.3543,1.3575,1.3644,0.3888,0.3888,0.3888,0.3888,0.3888,0.3888,0.3901,0.3922,0.3926,0.3956,0.4064,0.4074,0.4091,0.4061,0.4151,0.4164,0.4237,0.4816,0.5111,0.525,0.5882,0.545,0.4671,0.4659,0.5048,0.5178,0.5699,0.6029,0.6149,0.6895,0.7195,0.7439,0.8556,0.8912,0.8328,0.8976,0.8915,0.8591,0.8849,0.8973,0.8467,0.8976,0.8779,0.8527,0.8403,0.8403,0.8273,0.7571,0.6246,0.4539,0.3962,0.396,0.4026,0.399,0.4072,0.4075,0.4044,0.4134,0.4159,0.4164,0.4192,0.424,0.4255,0.4271,0.4297,0.4307,0.4307,0.4307,0.4307,0.4307,0.4307,0.4307,0.4307,0.4307,0.4307,0.4307,0.4307,0.4331,0.4343,0.435,0.4365,0.438,0.438,0.4379,0.4379,0.4379,0.4364,0.4763,0.5158,0.5201,0.5653,0.6801,0.7799,0.8667,0.9404,1.0591,1.1311,1.1589,1.1758,1.2328,1.2316,1.2246,1.2732,1.3319,1.3356,1.3384,1.3417,1.3453,1.3486,1.3498,1.3539,1.3604,1.3697,1.3717,1.3798,0.39,0.3891,0.3895,0.3897,0.39,0.3899,0.3934,0.3974,0.3982,0.4079,0.4125,0.4134,0.4146,0.4147,0.4535,0.4488,0.4623,0.5996,0.6556,0.6965,0.7441,0.7153,0.5487,0.6209,0.6541,0.6745,0.8033,0.8222,0.8183,0.8446,0.8742,0.9045,0.9986,0.9995,0.9707,1.0136,0.9854,0.956,1.0156,1.0223,0.971,1.0159,1.0226,0.9585,0.9386,0.9126,0.8925,0.8528,0.7486,0.4723,0.4454,0.437,0.4246,0.4124,0.4135,0.414,0.4153,0.4183,0.4215,0.4226,0.4245,0.429,0.4301,0.4307,0.4307,0.4307,0.4307,0.4307,0.4307,0.4307,0.4307,0.4307,0.4307,0.4309,0.4311,0.4319,0.4327,0.4365,0.4401,0.4409,0.4454,0.4476,0.4481,0.4482,0.4477,0.4572,0.4694,0.5505,0.6106,0.6562,0.7416,0.8679,0.9673,1.0585,1.1255,1.1992,1.2417,1.2827,1.2791,1.3058,1.2994,1.3026,1.3271,1.3461,1.3559,1.3567,1.3535,1.3575,1.3636,1.3685,1.3713,1.3798,1.388,1.3839,1.3872,0.3971,0.3893,0.3997,0.4016,0.3954,0.3955,0.3987,0.4041,0.4105,0.414,0.4187,0.4196,0.4288,0.4331,0.5401,0.5948,0.6138,0.7362,0.8107,0.8174,0.8374,0.8374,0.771,0.8107,0.8107,0.824,0.8374,0.864,0.8892,0.9804,1.0254,1.0435,1.1319,1.2115,1.1838,1.1747,1.2192,1.1926,1.2111,1.1961,1.1693,1.1827,1.1957,1.1566,1.1635,1.1123,1.0405,1.0212,0.9354,0.786,0.6519,0.5553,0.4726,0.4435,0.439,0.4336,0.4306,0.4336,0.4283,0.4283,0.4292,0.4303,0.4307,0.4307,0.4307,0.4307,0.4307,0.4307,0.4307,0.4307,0.4308,0.4307,0.4313,0.4323,0.4353,0.4382,0.4383,0.4392,0.4425,0.4457,0.4478,0.4484,0.4486,0.4635,0.4702,0.4692,0.5449,0.6337,0.7148,0.7954,0.9083,1.0341,1.089,1.1625,1.218,1.2672,1.295,1.3311,1.3405,1.3486,1.3494,1.3518,1.3587,1.3689,1.3798,1.3766,1.3681,1.3734,1.3803,1.3843,1.3859,1.3884,1.39,1.39,1.39,0.4089,0.3974,0.4002,0.4014,0.4078,0.4078,0.4112,0.4161,0.4168,0.4202,0.4382,0.4855,0.5272,0.5439,0.6708,0.7441,0.7774,0.8906,0.9971,1.0435,1.0638,1.0571,1.0571,1.0439,1.0303,0.9839,1.0373,1.0505,1.0836,1.1171,1.1696,1.1703,1.2437,1.2614,1.277,1.277,1.2754,1.2688,1.277,1.277,1.277,1.277,1.277,1.277,1.277,1.2367,1.1758,1.1696,1.0899,0.9735,0.8779,0.7729,0.6496,0.6211,0.5905,0.5325,0.528,0.4842,0.4574,0.4307,0.4305,0.4307,0.4307,0.4307,0.4307,0.4307,0.4307,0.4307,0.4307,0.4307,0.4309,0.4341,0.4346,0.436,0.4402,0.4447,0.4471,0.4481,0.4489,0.4525,0.4624,0.4568,0.4639,0.5188,0.5694,0.6067,0.7211,0.8101,0.919,0.9995,1.0777,1.1646,1.201,1.2506,1.3009,1.3324,1.3319,1.3535,1.3616,1.3685,1.3725,1.3754,1.3786,1.3847,1.388,1.3888,1.3831,1.39,1.39,1.3892,1.3888,1.3896,1.39,1.39,1.39,0.4143,0.4062,0.4135,0.4139,0.4139,0.4139,0.4173,0.4225,0.4493,0.4718,0.4899,0.6111,0.67,0.7042,0.824,0.8972,0.957,1.0369,1.1501,1.2235,1.2305,1.2301,1.2371,1.2235,1.1967,1.1237,1.1901,1.2433,1.2503,1.277,1.2503,1.2704,1.277,1.277,1.277,1.277,1.277,1.277,1.277,1.277,1.277,1.277,1.277,1.277,1.277,1.277,1.2568,1.2503,1.2169,1.1171,1.1038,1.0369,0.9573,0.8573,0.8176,0.6771,0.6439,0.5776,0.4975,0.4507,0.4307,0.4307,0.4307,0.4307,0.4307,0.4307,0.4307,0.4307,0.4307,0.4307,0.4311,0.4356,0.4387,0.4407,0.4452,0.4515,0.4559,0.4578,0.4585,0.4662,0.5109,0.5486,0.586,0.6359,0.6887,0.7616,0.876,0.9833,1.086,1.1682,1.2344,1.2688,1.2932,1.3017,1.3452,1.3591,1.366,1.3689,1.3778,1.3847,1.3912,1.3953,1.3953,1.3888,1.3896,1.3908,1.3908,1.39,1.39,1.39,1.39,1.39,1.39,1.39,1.39,0.4218,0.413,0.418,0.4202,0.4202,0.4202,0.4234,0.4485,0.5484,0.6028,0.6174,0.7576,0.824,0.8643,0.9703,1.0902,1.1637,1.2103,1.2437,1.277,1.277,1.277,1.277,1.277,1.2568,1.2568,1.2766,1.277,1.277,1.277,1.277,1.277,1.277,1.277,1.277,1.277,1.277,1.277,1.277,1.277,1.277,1.277,1.277,1.277,1.277,1.277,1.277,1.277,1.27,1.2503,1.2437,1.2235,1.1505,0.9902,0.8773,0.8174,0.7376,0.6711,0.6109,0.4975,0.4441,0.4307,0.4307,0.4307,0.4307,0.4307,0.4307,0.4307,0.4307,0.4307,0.4308,0.4368,0.4395,0.4424,0.4493,0.4563,0.4583,0.4756,0.4856,0.5072,0.581,0.6545,0.6835,0.7485,0.8564,0.9283,1.0323,1.107,1.17,1.2563,1.3358,1.3586,1.3685,1.3764,1.3839,1.3819,1.3831,1.3815,1.3876,1.3953,1.4022,1.4107,1.4107,1.4054,1.3977,1.3945,1.3932,1.3924,1.39,1.39,1.39,1.39,1.39,1.39,1.39,0.4273,0.4224,0.4252,0.4263,0.4264,0.4263,0.4279,0.4504,0.5776,0.6376,0.7042,0.8573,0.9703,1.0038,1.1171,1.2239,1.2638,1.277,1.277,1.277,1.277,1.277,1.277,1.277,1.277,1.277,1.277,1.277,1.277,1.277,1.277,1.277,1.277,1.277,1.277,1.277,1.277,1.277,1.277,1.277,1.277,1.277,1.277,1.277,1.277,1.277,1.277,1.277,1.277,1.277,1.277,1.277,1.2371,1.1637,1.0435,0.9706,0.8972,0.8174,0.7441,0.6245,0.551,0.5309,0.4775,0.4307,0.4307,0.4307,0.4307,0.4307,0.4307,0.4307,0.4308,0.4387,0.4433,0.4462,0.4545,0.4606,0.4842,0.5443,0.567,0.5822,0.6545,0.7123,0.734,0.835,0.9934,1.1084,1.1947,1.2309,1.2599,1.3174,1.39,1.39,1.3892,1.3896,1.3896,1.39,1.39,1.39,1.3924,1.4006,1.4103,1.4172,1.4233,1.4245,1.4152,1.4083,1.401,1.4014,1.3957,1.3908,1.3904,1.3904,1.39,1.39,1.39,0.4307,0.4307,0.4307,0.4307,0.4307,0.4307,0.4507,0.4977,0.6309,0.7176,0.7641,0.9839,1.1104,1.1435,1.2103,1.277,1.277,1.277,1.277,1.277,1.277,1.277,1.277,1.277,1.277,1.277,1.277,1.277,1.277,1.277,1.277,1.277,1.277,1.277,1.277,1.277,1.277,1.277,1.277,1.277,1.277,1.277,1.277,1.277,1.277,1.2836,1.2968,1.2836,1.2902,1.2902,1.284,1.277,1.277,1.277,1.2235,1.1306,1.0906,1.0038,0.9039,0.7643,0.6711,0.6176,0.5309,0.4774,0.4307,0.4307,0.4307,0.4307,0.4307,0.4319,0.4342,0.442,0.4477,0.4521,0.4662,0.4879,0.5525,0.6181,0.6902,0.7195,0.7555,0.8203,0.8853,1.0078,1.1879,1.2098,1.2888,1.3103,1.3321,1.3464,1.39,1.39,1.39,1.39,1.39,1.39,1.39,1.39,1.3924,1.3981,1.4103,1.4217,1.4302,1.4408,1.4404,1.4326,1.4217,1.4103,1.4054,1.4002,1.3941,1.3908,1.3904,1.4043,1.4181,0.4307,0.4307,0.4307,0.4307,0.4374,0.4374,0.5109,0.6309,0.7707,0.9105,0.9902,1.1637,1.2437,1.2503,1.2568,1.277,1.277,1.277,1.277,1.277,1.277,1.277,1.277,1.277,1.277,1.277,1.277,1.277,1.277,1.277,1.277,1.277,1.277,1.277,1.277,1.277,1.277,1.277,1.277,1.277,1.277,1.2836,1.2836,1.2836,1.2902,1.3038,1.3231,1.3099,1.3034,1.3235,1.2972,1.2836,1.277,1.277,1.277,1.2235,1.1501,1.0634,1.024,0.9105,0.791,0.7176,0.6243,0.551,0.4708,0.4307,0.4307,0.4307,0.4307,0.4331,0.4373,0.4442,0.4501,0.4698,0.4904,0.5596,0.6328,0.7697,0.8348,0.9139,0.9715,1.0434,1.108,1.2456,1.3615,1.3686,1.3757,1.3829,1.39,1.39,1.39,1.39,1.39,1.39,1.39,1.39,1.39,1.39,1.3924,1.3973,1.416,1.4318,1.4481,1.4562,1.4574,1.4566,1.4464,1.4343,1.42,1.4091,1.4022,1.3957,1.3904,1.4114,1.4256,0.4307,0.4307,0.4307,0.4775,0.5443,0.551,0.6309,0.771,0.9172,1.0104,1.0902,1.2169,1.277,1.277,1.277,1.277,1.277,1.277,1.277,1.277,1.277,1.277,1.277,1.277,1.277,1.277,1.277,1.277,1.277,1.277,1.277,1.277,1.277,1.277,1.277,1.277,1.277,1.277,1.277,1.277,1.284,1.2972,1.3099,1.3165,1.3297,1.349,1.3555,1.3555,1.3363,1.3433,1.3169,1.3038,1.2836,1.277,1.277,1.27,1.2305,1.1971,1.1703,1.0502,0.9504,0.8507,0.7376,0.5709,0.4708,0.4307,0.4307,0.4307,0.4307,0.4337,0.4394,0.445,0.4508,0.4782,0.5424,0.6309,0.741,0.9139,1.0215,1.1009,1.1732,1.2162,1.2595,1.3174,1.3829,1.3829,1.3829,1.3829,1.39,1.39,1.39,1.39,1.39,1.39,1.39,1.39,1.39,1.39,1.39,1.4002,1.4253,1.4432,1.455,1.4712,1.4797,1.4765,1.4692,1.4489,1.4265,1.4168,1.4095,1.4058,1.4018,1.4063,1.4273,0.4307,0.4307,0.4307,0.5109,0.6376,0.6376,0.7441,0.9172,1.017,1.0902,1.1435,1.2305,1.277,1.277,1.277,1.277,1.277,1.277,1.277,1.277,1.277,1.277,1.277,1.277,1.277,1.277,1.277,1.277,1.277,1.277,1.277,1.277,1.277,1.277,1.277,1.277,1.277,1.277,1.277,1.277,1.2836,1.3169,1.3305,1.3498,1.3687,1.394,1.4006,1.3875,1.3687,1.3757,1.3433,1.3239,1.3034,1.2902,1.277,1.277,1.2568,1.2634,1.2371,1.1765,1.1171,0.9971,0.824,0.5975,0.5176,0.4641,0.4307,0.4307,0.4307,0.4346,0.4406,0.4463,0.4873,0.5507,0.6224,0.7106,0.8203,0.9931,1.1442,1.2309,1.2885,1.325,1.3539,1.3682,1.39,1.39,1.39,1.39,1.39,1.39,1.39,1.39,1.39,1.39,1.39,1.39,1.39,1.39,1.39,1.3961,1.4164,1.4363,1.4501,1.4692,1.4899,1.4923,1.4826,1.457,1.4335,1.4347,1.433,1.4225,1.4148,1.4178,1.4428,0.4307,0.4307,0.4307,0.5175,0.651,0.6376,0.8041,1.0502,1.0704,1.1501,1.2371,1.2766,1.277,1.277,1.277,1.277,1.277,1.277,1.277,1.277,1.277,1.277,1.277,1.277,1.277,1.277,1.277,1.277,1.277,1.277,1.277,1.277,1.277,1.277,1.277,1.277,1.277,1.277,1.277,1.2836,1.2968,1.3235,1.3433,1.3564,1.3752,1.4006,1.4338,1.4137,1.401,1.4211,1.3822,1.3437,1.3235,1.3038,1.2902,1.277,1.277,1.277,1.2634,1.2503,1.1901,1.0303,0.8504,0.6708,0.5908,0.4908,0.4441,0.4374,0.4307,0.4362,0.4428,0.4629,0.5447,0.6322,0.7391,0.8763,0.9787,1.0865,1.2305,1.3389,1.3825,1.39,1.39,1.39,1.39,1.39,1.39,1.39,1.39,1.39,1.39,1.39,1.39,1.39,1.39,1.39,1.39,1.39,1.39,1.392,1.3997,1.4196,1.4473,1.4623,1.481,1.4891,1.5028,1.4745,1.4607,1.4615,1.455,1.4359,1.4481,1.4621,1.4973,0.4307,0.4307,0.4307,0.5644,0.7777,0.7774,0.9371,1.1699,1.1971,1.2235,1.277,1.277,1.277,1.277,1.277,1.277,1.277,1.277,1.277,1.277,1.277,1.277,1.277,1.277,1.277,1.277,1.277,1.277,1.277,1.277,1.277,1.277,1.277,1.277,1.277,1.277,1.277,1.277,1.2836,1.2902,1.3235,1.3494,1.3822,1.4015,1.4342,1.4539,1.467,1.4604,1.4473,1.4342,1.4141,1.3818,1.3498,1.3235,1.3038,1.2836,1.277,1.277,1.277,1.2704,1.2169,1.0969,0.957,0.8374,0.6973,0.5841,0.5042,0.4708,0.4308,0.436,0.4525,0.5323,0.6418,0.7267,0.8562,1.0075,1.1227,1.2234,1.2813,1.3682,1.3829,1.39,1.39,1.39,1.39,1.39,1.39,1.39,1.39,1.39,1.39,1.39,1.39,1.39,1.39,1.39,1.39,1.39,1.39,1.3932,1.3981,1.4229,1.4473,1.4607,1.4741,1.4875,1.4931,1.4903,1.4854,1.4801,1.4619,1.4387,1.462,1.491,1.5044,0.4307,0.4307,0.4307,0.5977,0.844,0.8573,1.0237,1.2503,1.277,1.277,1.277,1.277,1.277,1.277,1.277,1.277,1.277,1.277,1.277,1.277,1.277,1.277,1.277,1.277,1.277,1.277,1.277,1.277,1.277,1.277,1.277,1.277,1.277,1.277,1.277,1.277,1.277,1.277,1.2836,1.3034,1.3367,1.3752,1.4076,1.4338,1.467,1.48,1.487,1.48,1.473,1.46,1.4403,1.4076,1.3757,1.3433,1.3169,1.2972,1.277,1.2774,1.277,1.2704,1.2371,1.1571,1.077,0.9507,0.8174,0.6973,0.5776,0.5176,0.4714,0.4354,0.4603,0.567,0.7072,0.8002,0.9775,1.1299,1.2237,1.3174,1.3392,1.39,1.39,1.39,1.39,1.39,1.39,1.39,1.39,1.39,1.39,1.39,1.39,1.39,1.39,1.39,1.39,1.39,1.39,1.39,1.3908,1.3949,1.4046,1.427,1.4424,1.4525,1.4676,1.4858,1.4927,1.5004,1.5016,1.5028,1.4757,1.457,1.4501,1.4778,1.453,0.4307,0.4307,0.4307,0.5977,0.8509,0.8573,1.0167,1.2634,1.277,1.277,1.277,1.277,1.277,1.277,1.277,1.277,1.277,1.277,1.277,1.277,1.277,1.277,1.277,1.277,1.277,1.277,1.277,1.277,1.277,1.277,1.277,1.277,1.277,1.277,1.277,1.277,1.277,1.277,1.277,1.3038,1.3428,1.3748,1.4076,1.4469,1.4735,1.487,1.487,1.48,1.4735,1.467,1.4408,1.4146,1.3752,1.3498,1.3248,1.2869,1.2794,1.279,1.2848,1.2774,1.2634,1.2371,1.1571,1.0638,0.9905,0.8374,0.6443,0.591,0.5044,0.4568,0.4983,0.6021,0.7595,0.9273,1.0983,1.2237,1.3178,1.3539,1.3757,1.39,1.39,1.39,1.39,1.39,1.39,1.39,1.39,1.39,1.39,1.39,1.39,1.39,1.39,1.39,1.39,1.39,1.39,1.39,1.3912,1.3941,1.4022,1.4188,1.4326,1.444,1.4655,1.4883,1.494,1.5041,1.5045,1.5045,1.5045,1.4842,1.4753,1.4639,1.4489,0.4307,0.4307,0.4307,0.5975,0.844,0.864,1.017,1.2503,1.277,1.277,1.277,1.277,1.277,1.277,1.277,1.277,1.277,1.277,1.277,1.277,1.277,1.277,1.277,1.277,1.277,1.277,1.277,1.277,1.277,1.277,1.277,1.277,1.277,1.277,1.277,1.277,1.277,1.277,1.2836,1.3099,1.3617,1.3879,1.4141,1.467,1.4866,1.487,1.4866,1.4735,1.467,1.4609,1.4347,1.4037,1.3713,1.3462,1.3315,1.3045,1.3007,1.3007,1.297,1.2929,1.2774,1.2572,1.2371,1.1567,1.0634,0.9039,0.7641,0.6508,0.5441,0.5252,0.5972,0.746,0.9035,1.0643,1.2162,1.3031,1.3757,1.3829,1.39,1.39,1.39,1.39,1.39,1.39,1.39,1.39,1.39,1.39,1.39,1.39,1.39,1.39,1.39,1.39,1.39,1.39,1.39,1.39,1.39,1.3912,1.4014,1.4119,1.4286,1.4432,1.4672,1.4899,1.5012,1.5045,1.5045,1.5045,1.5045,1.5,1.4793,1.4741,1.4708,0.4343,0.4311,0.433,0.5667,0.7712,0.8374,1.0237,1.2503,1.277,1.277,1.277,1.277,1.277,1.277,1.277,1.277,1.277,1.277,1.277,1.277,1.277,1.277,1.277,1.277,1.277,1.277,1.277,1.277,1.277,1.277,1.277,1.277,1.277,1.277,1.277,1.277,1.277,1.277,1.2836,1.3161,1.3613,1.394,1.4207,1.467,1.487,1.487,1.48,1.467,1.4473,1.4422,1.4204,1.391,1.3667,1.3536,1.3403,1.3296,1.3193,1.3157,1.3072,1.3015,1.2925,1.2774,1.277,1.2367,1.1369,1.017,0.8706,0.7441,0.6176,0.6141,0.6873,0.8495,1.0214,1.1846,1.2742,1.3611,1.39,1.39,1.39,1.39,1.39,1.39,1.39,1.39,1.39,1.39,1.39,1.39,1.39,1.39,1.39,1.39,1.39,1.39,1.39,1.39,1.39,1.39,1.39,1.39,1.3932,1.403,1.4225,1.4408,1.4578,1.4745,1.4907,1.5045,1.5045,1.5045,1.5045,1.4903,1.481,1.481,1.483,0.4416,0.4328,0.4376,0.518,0.6598,0.821,1.0332,1.2708,1.277,1.277,1.277,1.277,1.277,1.277,1.277,1.277,1.277,1.277,1.277,1.277,1.277,1.277,1.277,1.277,1.277,1.277,1.277,1.277,1.277,1.277,1.277,1.277,1.277,1.2836,1.2836,1.2939,1.2926,1.2984,1.303,1.342,1.3875,1.401,1.4338,1.4735,1.487,1.4894,1.4908,1.4791,1.4669,1.4592,1.4556,1.4219,1.3966,1.3819,1.3678,1.3513,1.338,1.3295,1.3206,1.3161,1.3019,1.2921,1.2811,1.2786,1.2235,1.1101,0.9637,0.8706,0.7715,0.7376,0.7495,0.9362,1.1127,1.2214,1.3159,1.3611,1.3829,1.39,1.39,1.39,1.39,1.39,1.39,1.39,1.39,1.39,1.39,1.39,1.39,1.39,1.39,1.39,1.39,1.39,1.39,1.39,1.39,1.39,1.39,1.3904,1.3924,1.3997,1.4225,1.4395,1.4378,1.4607,1.4866,1.5041,1.5045,1.5045,1.5045,1.5028,1.4879,1.4971,1.5124,0.4462,0.4436,0.4451,0.5276,0.6837,0.93,1.1308,1.2724,1.277,1.277,1.277,1.277,1.2803,1.277,1.277,1.2778,1.277,1.277,1.277,1.277,1.277,1.277,1.277,1.277,1.277,1.277,1.277,1.277,1.277,1.277,1.277,1.277,1.286,1.2988,1.317,1.3365,1.3332,1.3364,1.3479,1.3805,1.412,1.4261,1.4585,1.4857,1.4932,1.504,1.5059,1.4883,1.4801,1.4818,1.4603,1.4376,1.4317,1.4032,1.3813,1.362,1.3559,1.353,1.3474,1.3364,1.321,1.3063,1.3011,1.2929,1.2484,1.1574,1.024,0.9437,0.9183,0.8839,0.8919,1.0269,1.1874,1.2902,1.3599,1.3682,1.39,1.39,1.39,1.39,1.39,1.39,1.39,1.39,1.39,1.39,1.39,1.39,1.39,1.39,1.39,1.39,1.39,1.39,1.39,1.39,1.39,1.39,1.39,1.3912,1.3949,1.4054,1.4261,1.4436,1.4578,1.4732,1.4915,1.4964,1.5045,1.5045,1.5045,1.5045,1.5045,1.5113,1.5943,0.4526,0.4489,0.451,0.5344,0.6915,0.9201,1.0961,1.2045,1.2775,1.3047,1.3047,1.3055,1.3011,1.2966,1.3015,1.2994,1.284,1.2921,1.2855,1.277,1.279,1.277,1.277,1.2782,1.277,1.277,1.2774,1.277,1.2782,1.2786,1.2782,1.295,1.3008,1.3328,1.3608,1.3966,1.4159,1.4107,1.4125,1.4308,1.4494,1.4622,1.484,1.5096,1.5163,1.5248,1.527,1.5097,1.5108,1.5092,1.4773,1.4711,1.4669,1.4302,1.4096,1.3953,1.3812,1.3689,1.3612,1.3535,1.338,1.3242,1.3141,1.3043,1.2754,1.2157,1.0923,1.0038,1.0199,1.0331,1.0717,1.1248,1.2499,1.3713,1.3808,1.39,1.39,1.39,1.39,1.39,1.39,1.39,1.39,1.39,1.39,1.39,1.39,1.39,1.39,1.39,1.39,1.39,1.39,1.39,1.39,1.39,1.39,1.39,1.39,1.392,1.3965,1.4103,1.431,1.4538,1.4765,1.4883,1.4964,1.4964,1.5045,1.5045,1.5194,1.5501,1.5501,1.5348,1.6703,0.46,0.4506,0.4556,0.54,0.6733,0.8413,0.9868,1.1248,1.2781,1.3392,1.336,1.3356,1.3246,1.3157,1.323,1.3153,1.3059,1.3068,1.3063,1.2819,1.2954,1.2962,1.2954,1.2827,1.2978,1.2921,1.2843,1.2986,1.2909,1.2917,1.2978,1.3171,1.3457,1.3777,1.4091,1.4587,1.4869,1.4923,1.4864,1.4882,1.5028,1.5114,1.521,1.5458,1.5526,1.555,1.5574,1.5515,1.5451,1.5325,1.5137,1.512,1.4758,1.4542,1.4419,1.4231,1.4002,1.3807,1.3738,1.3677,1.3567,1.3405,1.3238,1.3181,1.2978,1.2656,1.1648,1.0836,1.086,1.0991,1.1244,1.1982,1.3137,1.3712,1.3892,1.39,1.39,1.39,1.39,1.39,1.39,1.39,1.39,1.39,1.39,1.39,1.39,1.39,1.39,1.39,1.39,1.39,1.39,1.39,1.39,1.39,1.39,1.39,1.39,1.3957,1.4022,1.4176,1.4351,1.4615,1.4871,1.4911,1.5045,1.5045,1.5045,1.5117,1.5424,1.6029,1.6105,1.6182,1.7687,0.4721,0.4621,0.4636,0.5568,0.6987,0.8558,1.0048,1.1622,1.3126,1.362,1.3409,1.3376,1.3356,1.3336,1.3376,1.3315,1.3271,1.3254,1.3271,1.3222,1.3202,1.3165,1.3222,1.3173,1.321,1.3246,1.3242,1.3197,1.3233,1.3188,1.3255,1.3691,1.3921,1.4177,1.4658,1.516,1.5376,1.5584,1.5603,1.5464,1.5439,1.5442,1.556,1.5578,1.5588,1.5687,1.573,1.5791,1.589,1.5873,1.5634,1.5252,1.4628,1.4529,1.4332,1.4118,1.3971,1.3863,1.3839,1.3798,1.3721,1.3632,1.3502,1.3421,1.3267,1.2999,1.2518,1.1846,1.15,1.166,1.1941,1.2795,1.3482,1.3697,1.39,1.39,1.39,1.39,1.39,1.39,1.39,1.39,1.39,1.39,1.39,1.39,1.39,1.39,1.39,1.39,1.39,1.39,1.39,1.39,1.39,1.39,1.39,1.39,1.39,1.3977,1.4083,1.4318,1.4546,1.4753,1.4948,1.5041,1.5045,1.5045,1.5045,1.5194,1.5497,1.6029,1.7545,1.792,1.9645,0.4665,0.4665,0.4738,0.5171,0.6257,0.835,0.9793,1.0868,1.2888,1.3794,1.3624,1.3604,1.3567,1.353,1.3563,1.3474,1.3437,1.3461,1.3405,1.3384,1.3396,1.3352,1.3372,1.3396,1.3348,1.3368,1.3437,1.3416,1.3578,1.3588,1.3712,1.422,1.4388,1.47,1.5247,1.5528,1.5789,1.6013,1.6136,1.6027,1.581,1.5819,1.5834,1.5834,1.5857,1.5914,1.5938,1.6074,1.6065,1.6075,1.5806,1.5518,1.5022,1.4684,1.4403,1.4189,1.4047,1.39,1.39,1.3884,1.3851,1.377,1.359,1.3539,1.3461,1.3206,1.2928,1.2363,1.2258,1.2319,1.2481,1.315,1.3465,1.3669,1.3827,1.39,1.39,1.39,1.39,1.39,1.39,1.39,1.39,1.39,1.39,1.39,1.39,1.39,1.39,1.39,1.39,1.39,1.39,1.39,1.39,1.39,1.39,1.39,1.392,1.4071,1.4233,1.4501,1.4749,1.4879,1.496,1.5041,1.5045,1.5045,1.5198,1.5429,1.5727,1.6024,1.7768,1.9655,2.1008,0.4665,0.4665,0.4955,0.4882,0.5171,0.7991,0.9363,0.9865,1.2312,1.3686,1.3872,1.3872,1.3803,1.3778,1.3803,1.364,1.3571,1.3636,1.3567,1.3514,1.3486,1.3526,1.3518,1.3478,1.3502,1.3551,1.36,1.3758,1.3987,1.407,1.4311,1.4823,1.5178,1.5434,1.5703,1.5961,1.6155,1.6141,1.6183,1.6183,1.6169,1.6183,1.6141,1.6155,1.6188,1.6188,1.6183,1.6178,1.6178,1.5895,1.5612,1.5252,1.4968,1.4546,1.4474,1.4189,1.4047,1.3904,1.39,1.39,1.3892,1.3851,1.3738,1.3652,1.3583,1.3368,1.3154,1.3025,1.2916,1.2929,1.3033,1.3207,1.3461,1.3636,1.3778,1.39,1.39,1.39,1.39,1.39,1.39,1.39,1.39,1.39,1.39,1.39,1.39,1.39,1.39,1.39,1.39,1.39,1.39,1.39,1.39,1.3916,1.392,1.3989,1.4042,1.4196,1.4383,1.4643,1.4826,1.4907,1.5045,1.5045,1.5045,1.5122,1.5352,1.5586,1.6334,1.7088,1.9127,2.0789,2.1918,0.4665,0.4809,0.6039,0.5896,0.5315,0.7989,0.9291,0.9576,1.1227,1.267,1.3682,1.39,1.3872,1.3851,1.3876,1.3807,1.3762,1.3811,1.3835,1.3811,1.3729,1.3758,1.3758,1.3697,1.3778,1.3874,1.3941,1.4163,1.4439,1.4605,1.4924,1.5445,1.5464,1.5703,1.6009,1.6188,1.6188,1.6188,1.6188,1.6188,1.6183,1.6183,1.6188,1.6188,1.6188,1.6188,1.6183,1.6183,1.6042,1.5612,1.511,1.4759,1.4474,1.4261,1.4118,1.4118,1.3975,1.3904,1.39,1.39,1.39,1.3896,1.3815,1.3819,1.3738,1.364,1.3409,1.3324,1.3254,1.3031,1.3133,1.3303,1.3482,1.3648,1.3803,1.3868,1.39,1.39,1.39,1.39,1.39,1.39,1.39,1.39,1.39,1.39,1.39,1.39,1.39,1.39,1.39,1.3912,1.3912,1.39,1.3904,1.3945,1.3973,1.405,1.4172,1.4347,1.4542,1.4777,1.4927,1.5037,1.5045,1.5045,1.5122,1.5198,1.5586,1.6046,1.7093,1.8299,2.0263,2.1769,2.2744]},{"header":{"parameterUnit":"m.s-1","parameterCategory":1,"la1":31.0,"la2":29.5877,"lo1":-88.7671,"lo2":-86.6584,"dx":0.0162,"dy":0.0185,"nx":115,"ny":88,"refTime":"2023-01-06T18:00:00:Z","depth":0,"parameterNumber":3,"parameterNumberName":"V-component_of_WINDS"},"data":[0.0,0.0,0.0,0.0,0.0,0.0,0.0,0.0,0.0,0.0,0.0,0.0,0.0,0.0,0.0,0.0,0.0,0.0,0.0,0.0,0.0,0.0,0.0,0.0,0.0,0.0,0.0,0.0,0.0,0.0,0.0,0.0,0.0,0.0,0.0,0.0,0.0,0.0,0.0,0.0,0.0,0.0,0.0,0.0,0.0,0.0,0.0,0.0,0.0,0.0,0.0,0.0,0.0,0.0,0.0,0.0,0.0,0.0,0.0,0.0,0.0,0.0,0.0,0.0,0.0,0.0,0.0,0.0,0.0,0.0,0.0,0.0,0.0,0.0,0.0,0.0,0.0,0.0,0.0,0.0,0.0,0.0,0.0,0.0,0.0,0.0,0.0,0.0,0.0,0.0,0.0,0.0,0.0,0.0,0.0,0.0,0.0,0.0,0.0,0.0,0.0,0.0,0.0,0.0,0.0,0.0,0.0,0.0,0.0,0.0,0.0,0.0,0.0,0.0,0.0,0.0,0.0,0.0,0.0,0.0,0.0,0.0,0.0,0.0,0.0,0.0,0.0,0.0,0.0,0.0,0.0,0.0,0.0,0.0,0.0,0.0,0.0,0.0,0.0,0.0,0.0,0.0,0.0,0.0,0.0,0.0,0.0,0.0,0.0,0.0,0.0,0.0,0.0,0.0,0.0,0.0,0.0,0.0,0.0,0.0,0.0,0.0,0.0,0.0,0.0,0.0,0.0,0.0,0.0,0.0,0.0,0.0,0.0,0.0,0.0,0.0,0.0,0.0,0.0,0.0,0.0,0.0,0.0,0.0,0.0,0.0,0.0,0.0,0.0,0.0,0.0,0.0,0.0,0.0,0.0,0.0,0.0,0.0,0.0,0.0,0.0,0.0,0.0,0.0,0.0,0.0,0.0,0.0,0.0,0.0,0.0,0.0,0.0,0.0,0.0,0.0,0.0,0.0,0.0,0.0,0.0,0.0,0.0,0.0,0.0,0.0,0.0,0.0,0.0,0.0,0.0,0.0,0.0,0.0,0.0,0.0,0.0,0.0,0.0,0.0,0.0,0.0,0.0,0.0,0.0,0.0,0.0,0.0,0.0,0.0,0.0,0.0,0.0,0.0,0.0,0.0,0.0,0.0,0.0,0.0,0.0,0.0,0.0,0.0,0.0,0.0,0.0,0.0,0.0,0.0,0.0,0.0,0.0,0.0,0.0,0.0,0.0,0.0,0.0,0.0,0.0,0.0,0.0,0.0,0.0,0.0,0.0,0.0,0.0,0.0,0.0,0.0,0.0,0.0,0.0,0.0,0.0,0.0,0.0,0.0,0.0,0.0,0.0,0.0,0.0,0.0,0.0,0.0,0.0,0.0,0.0,0.0,0.0,0.0,0.0,0.0,0.0,0.0,0.0,0.0,0.0,0.0,0.0,0.0,0.0,0.0,0.0,0.0,0.0,0.0,0.0,0.0,0.0,0.0,0.0,0.0,0.0,0.0,0.0,0.0,0.0,0.0,0.0,0.0,0.0,0.0,0.0,0.0,0.0,0.0,0.0,0.0,0.0,0.0,0.0,0.0,0.0,0.0,0.0,0.0,0.0,0.0,0.0,0.0,0.0,0.0,0.0,0.0,0.0,0.0,0.0,0.0,0.0,0.0,0.0,0.0,0.0,0.0,0.0,0.0,0.0,0.0,0.0,0.0,0.0,0.0,0.0,0.0,0.0,0.0,0.0,0.0,0.0,0.0,0.0,0.0,0.0,0.0,0.0,0.0,0.0,0.0,0.0,0.0,0.0,0.0,0.0,0.0,0.0,0.0,0.0,0.0,0.0,0.0,0.0,0.0,0.0,0.0,0.0,0.0,0.0,0.0,0.0,0.0,0.0,0.0,0.0,0.0,0.0,0.0,0.0,0.0,0.0,0.0,0.0,0.0,0.0,0.0,0.0,0.0,0.0,0.0,0.0,0.0,0.0,0.0,0.0,0.0,0.0,0.0,0.0,0.0,0.0,0.0,0.0,0.0,0.0,0.0,0.0,0.0,0.0,0.0,0.0,0.0,0.0,0.0,0.0,0.0,0.0,0.0,0.0,0.0,0.0,0.0,0.0,0.0,0.0,0.0,0.0,0.0,0.0,0.0,0.0,0.0,0.0,0.0,0.0,0.0,0.0,0.0,0.0,0.0,0.0,0.0,0.0,0.0,0.0,0.0,0.0,0.0,0.0,0.0,0.0,0.0,0.0,0.0,0.0,0.0,0.0,0.0,0.0,0.0,0.0,0.0,0.0,0.0,0.0,0.0,0.0,0.0,0.0,0.0,0.0,0.0,0.0,0.0,0.0,0.0,0.0,0.0,0.0,0.0,0.0,0.0,0.0,0.0,0.0,0.0,0.0,0.0,0.0,0.0,0.0,0.0,0.0,0.0,0.0,0.0,0.0,0.0,0.0,0.0,0.0,0.0,0.0,0.0,0.0,0.0,0.0,0.0,0.0,0.0,0.0,0.0,0.0,0.0,0.0,0.0,0.0,0.0,0.0,0.0,0.0,0.0,0.0,0.0,0.0,0.0,0.0,0.0,0.0,0.0,0.0,0.0,0.0,0.0,0.0,0.0,0.0,0.0,0.0,0.0,0.0,0.0,0.0,0.0,0.0,0.0,0.0,0.0,0.0,0.0,0.0,0.0,0.0,0.0,0.0,0.0,0.0,0.0,0.0,0.0,0.0,0.0,0.0,0.0,0.0,0.0,0.0,0.0,0.0,0.0,0.0,0.0,0.0,0.0,0.0,0.0,0.0,0.0,0.0,0.0,0.0,0.0,0.0,0.0,0.0,0.0,0.0,0.0,0.0,0.0,0.0,0.0,0.0,0.0,0.0,0.0,0.0,0.0,0.0,0.0,0.0,0.0,0.0,0.0,0.0,0.0,0.0,0.0,0.0,0.0,0.0,0.0,0.0,0.0,0.0,0.0,0.0,0.0,0.0,0.0,0.0,0.0,0.0,0.0,0.0,0.0,0.0,0.0,0.0,0.0,0.0,0.0,0.0,0.0,0.0,0.0,0.0,0.0,0.0,0.0,0.0,0.0,0.0,0.0,0.0,0.0,0.0,0.0,0.0,0.0,0.0,0.0,0.0,0.0,0.0,0.0,0.0,0.0,0.0,0.0,0.0,0.0,0.0,0.0,0.0,0.0,0.0,0.0,0.0,0.0,0.0,0.0,0.0,0.0,0.0,0.0,0.0,0.0,0.0,0.0,0.0,0.0,0.0,0.0,0.0,0.0,0.0,0.0,0.0,0.0,0.0,0.0,0.0,0.0,0.0,0.0,0.0,0.0,0.0,0.0,0.0,0.0,0.0,0.0,0.0,0.0,0.0,0.0,0.0,0.0,0.0,0.0,0.0,0.0,0.0,0.0,0.0,0.0,0.0,0.0,0.0,0.0,0.0,0.0,0.0,0.0,0.0,0.0,0.0,0.0,0.0,0.0,0.0,0.0,0.0,0.0,0.0,0.0,0.0,0.0,0.0,0.0,0.0,0.0,0.0,0.0,0.0,0.0,0.0,0.0,0.0,0.0,0.0,0.0,0.0,0.0,0.0,0.0,0.0,0.0,0.0,0.0,0.0,0.0,0.0,0.0,0.0,0.0,0.0,0.0,0.0,0.0,0.0,0.0,0.0,0.0,0.0,0.0,0.0,0.0,0.0,0.0,0.0,0.0,0.0,0.0,0.0,0.0,0.0,0.0,0.0,0.0,0.0,0.0,0.0,0.0,0.0,0.0,0.0,0.0,0.0,0.0,0.0,0.0,0.0,0.0,0.0,0.0,0.0,0.0,0.0,0.0,0.0,0.0,0.0,0.0,0.0,0.0,0.0,0.0,0.0,0.0,0.0,0.0,0.0,0.0,0.0,0.0,0.0,0.0,0.0,0.0,0.0,0.0,0.0,0.0,0.0,0.0,0.0,0.0,0.0,0.0,0.0,0.0,0.0,0.0,0.0,0.0,0.0,0.0,0.0,0.0,0.0,0.0,0.0,0.0,0.0,0.0,0.0,0.0,0.0,0.0,0.0,0.0,0.0,0.0,0.0,0.0,0.0,0.0,0.0,0.0,0.0,0.0,0.0,0.0,0.0,0.0,0.0,0.0,0.0,0.0,0.0,0.0,0.0,0.0,0.0,0.0,0.0,0.0,0.0,0.0,0.0,0.0,0.0,0.0,0.0,0.0,0.0,0.0,0.0,0.0,0.0,0.0,0.0,0.0,0.0,0.0,0.0,0.0,2.1237,0.0,0.0,0.0,2.0831,0.0,0.0,0.0,0.0,0.0,0.0,0.0,0.0,0.0,0.0,0.0,0.0,0.0,0.0,0.0,0.0,0.0,0.0,0.0,0.0,0.0,0.0,0.0,0.0,0.0,0.0,0.0,0.0,0.0,0.0,0.0,0.0,0.0,0.0,0.0,0.0,0.0,0.0,0.0,0.0,0.0,0.0,0.0,0.0,0.0,0.0,0.0,0.0,0.0,0.0,0.0,0.0,0.0,0.0,0.0,0.0,0.0,0.0,0.0,0.0,0.0,0.0,0.0,0.0,0.0,0.0,0.0,0.0,0.0,0.0,0.0,0.0,0.0,0.0,0.0,0.0,0.0,0.0,0.0,0.0,0.0,0.0,0.0,0.0,0.0,0.0,0.0,0.0,0.0,0.0,0.0,0.0,0.0,0.0,0.0,0.0,0.0,0.0,0.0,0.0,0.0,0.0,0.0,0.0,0.0,0.0,0.0,0.0,0.0,0.0,2.1263,2.0738,2.1551,2.159,2.0751,0.0,0.0,0.0,0.0,0.0,0.0,0.0,0.0,0.0,0.0,0.0,0.0,0.0,0.0,0.0,0.0,0.0,0.0,0.0,0.0,0.0,0.0,0.0,0.0,0.0,0.0,0.0,0.0,0.0,0.0,0.0,0.0,0.0,0.0,0.0,0.0,0.0,0.0,0.0,0.0,0.0,0.0,0.0,0.0,0.0,0.0,0.0,0.0,0.0,0.0,0.0,0.0,0.0,0.0,0.0,0.0,0.0,0.0,0.0,0.0,0.0,0.0,0.0,0.0,0.0,0.0,0.0,0.0,0.0,0.0,0.0,0.0,0.0,0.0,0.0,0.0,0.0,0.0,0.0,0.0,0.0,0.0,0.0,0.0,0.0,0.0,0.0,0.0,0.0,0.0,0.0,0.0,0.0,0.0,0.0,0.0,0.0,0.0,0.0,0.0,0.0,0.0,0.0,0.0,0.0,0.0,0.0,0.0,0.0,0.0,0.0,0.0,2.1721,2.1786,2.0923,0.0,0.0,0.0,0.0,0.0,0.0,0.0,0.0,0.0,0.0,0.0,0.0,0.0,0.0,0.0,0.0,0.0,0.0,0.0,0.0,0.0,0.0,0.0,0.0,0.0,0.0,0.0,0.0,0.0,0.0,0.0,0.0,0.0,0.0,0.0,0.0,0.0,0.0,0.0,0.0,0.0,0.0,0.0,0.0,0.0,0.0,0.0,0.0,0.0,0.0,0.0,0.0,0.0,0.0,0.0,0.0,0.0,0.0,0.0,0.0,0.0,0.0,0.0,0.0,0.0,0.0,0.0,0.0,0.0,0.0,0.0,0.0,0.0,0.0,0.0,0.0,0.0,0.0,0.0,0.0,0.0,0.0,0.0,0.0,0.0,0.0,0.0,0.0,0.0,0.0,0.0,0.0,0.0,0.0,0.0,0.0,0.0,0.0,0.0,0.0,0.0,0.0,0.0,0.0,0.0,0.0,0.0,0.0,0.0,0.0,2.0988,2.142,2.1498,0.0,2.1459,0.0,0.0,0.0,0.0,0.0,0.0,0.0,0.0,0.0,0.0,0.0,0.0,0.0,0.0,0.0,0.0,0.0,0.0,0.0,0.0,0.0,0.0,0.0,0.0,0.0,0.0,0.0,0.0,0.0,0.0,0.0,0.0,0.0,0.0,0.0,0.0,0.0,0.0,0.0,0.0,0.0,0.0,0.0,0.0,0.0,0.0,0.0,0.0,0.0,0.0,0.0,0.0,0.0,0.0,0.0,0.0,0.0,0.0,0.0,0.0,0.0,0.0,0.0,0.0,0.0,0.0,0.0,0.0,0.0,0.0,0.0,0.0,0.0,0.0,0.0,0.0,0.0,0.0,0.0,0.0,0.0,0.0,0.0,0.0,0.0,0.0,0.0,0.0,0.0,0.0,0.0,0.0,0.0,0.0,0.0,0.0,0.0,0.0,0.0,0.0,0.0,0.0,0.0,0.0,0.0,0.0,0.0,0.0,0.0,0.0,2.0771,2.0894,2.0907,2.0951,0.0,0.0,0.0,0.0,0.0,0.0,0.0,0.0,0.0,0.0,0.0,0.0,0.0,0.0,0.0,0.0,0.0,0.0,0.0,0.0,0.0,0.0,0.0,0.0,0.0,0.0,0.0,0.0,0.0,0.0,0.0,0.0,0.0,0.0,0.0,0.0,0.0,0.0,0.0,0.0,0.0,0.0,0.0,0.0,0.0,0.0,0.0,0.0,0.0,0.0,0.0,0.0,0.0,0.0,0.0,0.0,0.0,0.0,0.0,0.0,0.0,0.0,0.0,0.0,0.0,0.0,0.0,0.0,0.0,0.0,0.0,0.0,0.0,0.0,0.0,0.0,0.0,0.0,0.0,0.0,0.0,0.0,0.0,0.0,0.0,0.0,0.0,0.0,0.0,0.0,0.0,0.0,0.0,0.0,0.0,0.0,0.0,0.0,0.0,0.0,0.0,0.0,0.0,0.0,0.0,0.0,0.0,0.0,0.0,0.0,2.0682,2.0602,2.0516,2.0553,2.0596,2.0694,0.0,0.0,0.0,0.0,0.0,0.0,0.0,0.0,0.0,0.0,0.0,0.0,0.0,0.0,0.0,0.0,0.0,0.0,0.0,0.0,0.0,0.0,0.0,0.0,0.0,0.0,0.0,0.0,0.0,0.0,0.0,0.0,0.0,0.0,0.0,0.0,0.0,0.0,0.0,0.0,0.0,0.0,0.0,0.0,0.0,0.0,0.0,0.0,0.0,0.0,0.0,0.0,0.0,0.0,0.0,0.0,0.0,0.0,0.0,0.0,0.0,0.0,0.0,0.0,0.0,0.0,0.0,0.0,0.0,0.0,0.0,0.0,0.0,0.0,0.0,0.0,0.0,0.0,0.0,0.0,0.0,0.0,0.0,0.0,0.0,0.0,0.0,0.0,0.0,0.0,0.0,0.0,0.0,0.0,0.0,0.0,0.0,0.0,0.0,0.0,0.0,0.0,0.0,0.0,0.0,0.0,0.0,0.0,2.2002,2.1055,2.0526,2.0499,2.0615,2.0679,0.0,0.0,0.0,0.0,0.0,0.0,0.0,0.0,0.0,0.0,0.0,0.0,0.0,0.0,0.0,0.0,0.0,0.0,0.0,0.0,0.0,0.0,0.0,0.0,0.0,0.0,0.0,0.0,0.0,0.0,0.0,0.0,0.0,0.0,0.0,0.0,0.0,0.0,0.0,0.0,0.0,0.0,0.0,0.0,0.0,0.0,0.0,0.0,0.0,0.0,0.0,0.0,0.0,0.0,0.0,0.0,0.0,0.0,0.0,0.0,0.0,0.0,0.0,0.0,0.0,0.0,0.0,0.0,0.0,0.0,0.0,0.0,0.0,0.0,0.0,0.0,0.0,0.0,0.0,0.0,0.0,0.0,0.0,0.0,0.0,0.0,0.0,0.0,0.0,0.0,0.0,0.0,0.0,0.0,0.0,0.0,0.0,0.0,0.0,0.0,0.0,0.0,0.0,0.0,0.0,0.0,0.0,0.0,0.0,2.1056,2.0364,2.0132,2.0465,2.0121,2.0318,0.0,0.0,0.0,0.0,0.0,0.0,0.0,0.0,0.0,0.0,0.0,0.0,0.0,0.0,0.0,0.0,0.0,0.0,0.0,0.0,0.0,0.0,0.0,0.0,0.0,0.0,0.0,0.0,0.0,0.0,0.0,0.0,0.0,0.0,0.0,0.0,0.0,0.0,0.0,0.0,0.0,0.0,0.0,0.0,0.0,0.0,0.0,0.0,0.0,0.0,0.0,0.0,0.0,0.0,0.0,0.0,0.0,0.0,0.0,0.0,0.0,0.0,0.0,0.0,0.0,0.0,0.0,0.0,0.0,0.0,0.0,0.0,0.0,0.0,0.0,0.0,0.0,0.0,0.0,0.0,0.0,0.0,0.0,0.0,0.0,0.0,0.0,0.0,0.0,0.0,0.0,0.0,0.0,0.0,0.0,0.0,0.0,0.0,0.0,0.0,0.0,0.0,0.0,0.0,0.0,0.0,0.0,0.0,0.0,2.0469,2.0318,2.0149,1.9909,1.9628,1.982,0.0,0.0,0.0,0.0,0.0,0.0,0.0,0.0,0.0,0.0,0.0,0.0,0.0,0.0,0.0,0.0,0.0,0.0,0.0,0.0,0.0,0.0,0.0,0.0,0.0,0.0,0.0,0.0,0.0,0.0,0.0,0.0,0.0,0.0,0.0,0.0,0.0,0.0,0.0,0.0,0.0,0.0,0.0,0.0,0.0,0.0,0.0,0.0,0.0,0.0,0.0,0.0,0.0,0.0,0.0,0.0,0.0,0.0,0.0,0.0,0.0,0.0,0.0,0.0,0.0,0.0,0.0,0.0,0.0,0.0,0.0,0.0,0.0,0.0,0.0,0.0,0.0,0.0,0.0,0.0,0.0,0.0,0.0,0.0,0.0,0.0,0.0,0.0,0.0,0.0,0.0,0.0,0.0,0.0,0.0,0.0,0.0,0.0,0.0,0.0,0.0,0.0,0.0,0.0,0.0,0.0,0.0,0.0,2.0653,2.0425,2.1012,2.0511,1.8819,1.9257,1.9296,0.0,0.0,0.0,0.0,0.0,0.0,0.0,0.0,0.0,0.0,0.0,0.0,0.0,0.0,0.0,0.0,0.0,0.0,0.0,0.0,0.0,0.0,0.0,0.0,0.0,0.0,0.0,0.0,0.0,0.0,0.0,0.0,0.0,0.0,0.0,0.0,0.0,0.0,0.0,0.0,0.0,0.0,0.0,0.0,0.0,0.0,0.0,0.0,0.0,0.0,0.0,0.0,0.0,0.0,0.0,0.0,0.0,0.0,0.0,0.0,0.0,0.0,0.0,0.0,0.0,0.0,0.0,0.0,0.0,0.0,0.0,0.0,0.0,0.0,0.0,0.0,0.0,0.0,0.0,0.0,0.0,0.0,0.0,0.0,0.0,0.0,0.0,0.0,0.0,0.0,0.0,0.0,0.0,0.0,0.0,0.0,0.0,0.0,0.0,0.0,0.0,0.0,0.0,0.0,0.0,0.0,0.0,0.0,0.0,2.0058,2.0507,2.0299,1.9298,1.9371,1.9563,0.0,0.0,0.0,0.0,0.0,0.0,0.0,0.0,0.0,0.0,0.0,0.0,0.0,0.0,0.0,0.0,0.0,0.0,0.0,0.0,0.0,0.0,0.0,0.0,0.0,0.0,0.0,0.0,0.0,0.0,0.0,0.0,0.0,0.0,0.0,0.0,0.0,0.0,0.0,0.0,0.0,0.0,0.0,0.0,0.0,0.0,0.0,0.0,0.0,0.0,0.0,0.0,0.0,0.0,0.0,0.0,0.0,0.0,0.0,0.0,0.0,0.0,0.0,0.0,0.0,0.0,0.0,0.0,0.0,0.0,0.0,0.0,0.0,0.0,0.0,0.0,0.0,0.0,0.0,0.0,0.0,0.0,0.0,0.0,0.0,0.0,0.0,0.0,0.0,0.0,0.0,0.0,0.0,0.0,0.0,0.0,0.0,0.0,0.0,0.0,0.0,0.0,0.0,0.0,0.0,0.0,0.0,0.0,0.0,2.0726,2.0962,2.0842,2.0133,2.0062,2.0121,2.0282,0.0,0.0,0.0,0.0,0.0,0.0,0.0,0.0,0.0,0.0,0.0,0.0,0.0,0.0,0.0,0.0,0.0,0.0,0.0,0.0,0.0,0.0,0.0,0.0,0.0,0.0,0.0,0.0,0.0,0.0,0.0,0.0,0.0,0.0,0.0,0.0,0.0,0.0,0.0,0.0,0.0,0.0,0.0,0.0,0.0,0.0,0.0,0.0,0.0,0.0,0.0,0.0,0.0,0.0,0.0,0.0,0.0,0.0,0.0,0.0,0.0,0.0,0.0,0.0,0.0,0.0,0.0,0.0,0.0,0.0,0.0,0.0,0.0,0.0,0.0,0.0,0.0,0.0,0.0,0.0,0.0,0.0,0.0,0.0,0.0,0.0,0.0,0.0,0.0,0.0,0.0,0.0,0.0,0.0,0.0,0.0,0.0,0.0,0.0,0.0,0.0,0.0,0.0,0.0,0.0,0.0,0.0,0.0,2.2153,2.2317,2.2007,2.117,2.1113,2.0815,0.0,0.0,0.0,0.0,0.0,0.0,0.0,0.0,0.0,0.0,0.0,0.0,0.0,0.0,0.0,0.0,0.0,0.0,0.0,0.0,0.0,0.0,0.0,0.0,0.0,0.0,0.0,0.0,0.0,0.0,0.0,0.0,0.0,0.0,0.0,0.0,0.0,0.0,0.0,0.0,0.0,0.0,0.0,0.0,0.0,0.0,0.0,0.0,0.0,0.0,0.0,0.0,0.0,0.0,0.0,0.0,0.0,0.0,0.0,0.0,0.0,0.0,0.0,0.0,0.0,0.0,0.0,0.0,0.0,0.0,0.0,0.0,0.0,0.0,0.0,0.0,0.0,0.0,0.0,0.0,0.0,0.0,0.0,0.0,0.0,0.0,0.0,0.0,0.0,0.0,0.0,0.0,0.0,0.0,0.0,0.0,0.0,0.0,0.0,0.0,0.0,0.0,0.0,0.0,0.0,0.0,0.0,0.0,0.0,2.4068,2.3658,2.2871,2.1746,2.15,2.1152,0.0,0.0,0.0,0.0,0.0,0.0,0.0,0.0,0.0,0.0,0.0,0.0,0.0,0.0,0.0,0.0,0.0,0.0,0.0,0.0,0.0,0.0,0.0,0.0,0.0,0.0,0.0,0.0,0.0,0.0,0.0,0.0,0.0,0.0,0.0,0.0,0.0,0.0,0.0,0.0,0.0,0.0,0.0,0.0,0.0,0.0,0.0,0.0,0.0,0.0,0.0,0.0,0.0,0.0,0.0,0.0,0.0,0.0,0.0,0.0,0.0,0.0,0.0,0.0,0.0,0.0,0.0,0.0,0.0,0.0,0.0,0.0,0.0,0.0,0.0,0.0,0.0,0.0,0.0,0.0,0.0,0.0,0.0,0.0,0.0,0.0,0.0,0.0,0.0,0.0,0.0,0.0,0.0,0.0,0.0,0.0,0.0,0.0,0.0,0.0,0.0,0.0,0.0,0.0,0.0,0.0,0.0,0.0,2.4884,2.5256,2.4882,2.4331,2.3599,2.2799,2.2048,0.0,0.0,0.0,0.0,0.0,0.0,0.0,0.0,0.0,0.0,0.0,0.0,0.0,0.0,0.0,0.0,0.0,0.0,0.0,0.0,0.0,0.0,0.0,0.0,0.0,0.0,0.0,0.0,0.0,0.0,0.0,0.0,0.0,0.0,0.0,0.0,0.0,0.0,0.0,0.0,0.0,0.0,0.0,0.0,0.0,0.0,0.0,0.0,0.0,0.0,0.0,0.0,0.0,0.0,0.0,0.0,0.0,0.0,0.0,0.0,0.0,0.0,0.0,0.0,0.0,0.0,0.0,0.0,0.0,0.0,0.0,0.0,0.0,0.0,0.0,0.0,0.0,0.0,0.0,0.0,0.0,0.0,0.0,0.0,0.0,0.0,0.0,0.0,0.0,0.0,0.0,0.0,0.0,0.0,0.0,0.0,0.0,0.0,0.0,0.0,0.0,0.0,0.0,0.0,0.0,0.0,0.0,0.0,2.5385,2.6072,2.607,2.607,2.6056,2.4498,2.3228,0.0,0.0,0.0,0.0,0.0,0.0,0.0,0.0,0.0,0.0,0.0,0.0,0.0,0.0,0.0,0.0,0.0,0.0,0.0,0.0,0.0,0.0,0.0,0.0,0.0,0.0,0.0,0.0,0.0,0.0,0.0,0.0,0.0,0.0,0.0,0.0,0.0,0.0,0.0,0.0,0.0,0.0,0.0,0.0,0.0,0.0,0.0,0.0,0.0,0.0,0.0,0.0,0.0,0.0,0.0,0.0,0.0,0.0,0.0,0.0,0.0,0.0,0.0,0.0,0.0,0.0,0.0,0.0,0.0,0.0,0.0,0.0,0.0,0.0,0.0,0.0,0.0,0.0,0.0,0.0,0.0,0.0,0.0,0.0,0.0,0.0,0.0,0.0,0.0,0.0,0.0,0.0,0.0,0.0,0.0,0.0,0.0,0.0,0.0,0.0,0.0,0.0,0.0,0.0,0.0,0.0,0.0,0.0,2.6919,2.7364,2.7114,2.7114,2.7364,2.51,2.3737,0.0,0.0,0.0,0.0,0.0,0.0,0.0,0.0,0.0,0.0,0.0,0.0,0.0,0.0,0.0,0.0,0.0,0.0,0.0,0.0,0.0,0.0,0.0,0.0,0.0,0.0,0.0,0.0,0.0,0.0,0.0,0.0,0.0,0.0,0.0,0.0,0.0,0.0,0.0,0.0,0.0,0.0,0.0,0.0,0.0,0.0,0.0,0.0,3.2583,0.0,0.0,0.0,0.0,0.0,0.0,0.0,0.0,0.0,0.0,0.0,0.0,0.0,0.0,0.0,0.0,0.0,0.0,0.0,0.0,0.0,0.0,0.0,0.0,0.0,0.0,0.0,0.0,0.0,0.0,0.0,0.0,0.0,0.0,0.0,0.0,0.0,0.0,0.0,0.0,0.0,0.0,0.0,0.0,0.0,0.0,0.0,0.0,0.0,0.0,0.0,0.0,0.0,0.0,0.0,0.0,0.0,0.0,0.0,2.7897,2.8201,2.8036,2.8036,2.8158,2.6299,2.5038,0.0,0.0,0.0,0.0,0.0,0.0,0.0,0.0,0.0,0.0,0.0,0.0,0.0,0.0,0.0,0.0,0.0,0.0,0.0,0.0,0.0,0.0,0.0,0.0,0.0,0.0,0.0,0.0,0.0,0.0,0.0,0.0,0.0,0.0,0.0,0.0,0.0,0.0,0.0,0.0,0.0,0.0,0.0,0.0,0.0,0.0,0.0,0.0,0.0,0.0,0.0,0.0,0.0,0.0,0.0,0.0,0.0,0.0,0.0,0.0,0.0,0.0,0.0,0.0,0.0,0.0,0.0,0.0,0.0,0.0,0.0,0.0,0.0,0.0,0.0,0.0,0.0,0.0,0.0,0.0,0.0,0.0,0.0,0.0,0.0,0.0,0.0,0.0,0.0,0.0,0.0,0.0,0.0,0.0,0.0,0.0,0.0,0.0,0.0,0.0,0.0,0.0,0.0,0.0,0.0,0.0,0.0,2.8474,2.8742,2.9188,2.9025,2.8953,2.8985,2.7808,2.6693,2.5715,0.0,0.0,0.0,0.0,0.0,0.0,0.0,0.0,0.0,0.0,0.0,0.0,0.0,0.0,0.0,0.0,0.0,0.0,0.0,0.0,0.0,0.0,0.0,0.0,0.0,0.0,0.0,0.0,0.0,0.0,0.0,0.0,0.0,0.0,0.0,0.0,0.0,0.0,3.19,3.2634,0.0,0.0,0.0,0.0,0.0,0.0,0.0,0.0,3.3521,0.0,0.0,0.0,0.0,0.0,0.0,0.0,0.0,0.0,0.0,0.0,0.0,0.0,0.0,0.0,0.0,0.0,0.0,0.0,0.0,0.0,0.0,0.0,0.0,0.0,0.0,0.0,0.0,0.0,0.0,0.0,0.0,0.0,0.0,0.0,0.0,0.0,0.0,0.0,0.0,0.0,0.0,0.0,0.0,0.0,0.0,0.0,0.0,0.0,0.0,0.0,0.0,0.0,0.0,0.0,0.0,3.0555,2.9853,3.0136,3.1467,3.0425,3.0015,3.0244,2.9271,2.8292,2.7396,0.0,0.0,0.0,0.0,0.0,0.0,0.0,0.0,0.0,0.0,0.0,0.0,0.0,0.0,0.0,0.0,0.0,0.0,0.0,0.0,0.0,0.0,0.0,0.0,0.0,0.0,0.0,0.0,0.0,0.0,0.0,0.0,0.0,0.0,0.0,0.0,0.0,0.0,0.0,3.4061,3.4458,0.0,0.0,0.0,0.0,0.0,0.0,0.0,0.0,3.435,0.0,0.0,0.0,0.0,0.0,0.0,0.0,0.0,0.0,0.0,0.0,0.0,0.0,0.0,0.0,0.0,0.0,0.0,0.0,0.0,0.0,0.0,0.0,0.0,0.0,0.0,0.0,0.0,0.0,0.0,0.0,0.0,0.0,0.0,0.0,0.0,0.0,0.0,0.0,0.0,0.0,0.0,0.0,0.0,0.0,0.0,0.0,0.0,0.0,0.0,0.0,0.0,0.0,0.0,0.0,3.0601,3.1014,3.1354,3.1664,3.0878,3.0417,3.0326,2.9378,2.8441,0.0,0.0,0.0,0.0,0.0,0.0,0.0,0.0,0.0,0.0,0.0,0.0,0.0,0.0,0.0,0.0,0.0,0.0,0.0,0.0,0.0,0.0,0.0,0.0,0.0,0.0,0.0,0.0,0.0,0.0,0.0,0.0,0.0,0.0,0.0,0.0,0.0,0.0,0.0,0.0,3.5014,3.5219,3.5595,0.0,0.0,0.0,0.0,0.0,0.0,3.5449,3.5282,0.0,0.0,0.0,0.0,0.0,0.0,0.0,0.0,0.0,0.0,0.0,0.0,0.0,0.0,0.0,0.0,0.0,0.0,0.0,0.0,0.0,0.0,0.0,0.0,0.0,0.0,0.0,0.0,0.0,0.0,0.0,0.0,0.0,0.0,0.0,0.0,0.0,0.0,0.0,0.0,0.0,0.0,0.0,0.0,0.0,0.0,0.0,0.0,0.0,0.0,0.0,0.0,0.0,0.0,0.0,3.069,3.1854,3.2262,3.1703,3.1264,3.0822,3.0341,2.9567,2.8598,0.0,0.0,0.0,0.0,0.0,0.0,0.0,0.0,0.0,0.0,0.0,0.0,0.0,0.0,0.0,0.0,0.0,0.0,0.0,0.0,0.0,0.0,0.0,0.0,0.0,0.0,0.0,0.0,0.0,0.0,0.0,0.0,0.0,0.0,0.0,0.0,0.0,0.0,0.0,0.0,0.0,3.5648,3.5662,3.5775,0.0,0.0,0.0,0.0,3.5643,3.5776,0.0,0.0,0.0,0.0,0.0,0.0,0.0,0.0,0.0,0.0,0.0,0.0,0.0,0.0,0.0,0.0,0.0,0.0,0.0,0.0,0.0,0.0,0.0,0.0,0.0,0.0,0.0,0.0,0.0,0.0,0.0,0.0,0.0,0.0,0.0,0.0,0.0,0.0,0.0,0.0,0.0,0.0,0.0,0.0,0.0,0.0,0.0,0.0,0.0,0.0,0.0,0.0,0.0,0.0,0.0,0.0,3.2038,3.2104,3.2482,3.3069,3.2239,3.1581,3.1161,3.1057,2.9973,0.0,0.0,0.0,0.0,0.0,0.0,0.0,0.0,0.0,0.0,0.0,0.0,0.0,0.0,0.0,0.0,0.0,0.0,0.0,0.0,0.0,0.0,0.0,0.0,0.0,0.0,0.0,0.0,0.0,0.0,0.0,0.0,0.0,0.0,0.0,0.0,0.0,0.0,0.0,0.0,0.0,3.5655,3.555,3.622,3.6475,0.0,0.0,3.6427,3.5786,3.5811,0.0,0.0,0.0,0.0,0.0,0.0,0.0,0.0,0.0,0.0,0.0,0.0,0.0,0.0,0.0,0.0,0.0,0.0,0.0,0.0,0.0,0.0,0.0,0.0,0.0,0.0,0.0,0.0,0.0,0.0,0.0,0.0,0.0,0.0,0.0,0.0,0.0,0.0,0.0,0.0,0.0,0.0,0.0,0.0,0.0,0.0,0.0,0.0,0.0,0.0,0.0,0.0,0.0,0.0,0.0,3.2329,3.236,3.3608,3.3992,3.3399,3.2788,3.2112,3.1363,3.1189,3.0397,0.0,0.0,0.0,0.0,0.0,0.0,0.0,0.0,0.0,0.0,0.0,0.0,0.0,0.0,0.0,0.0,0.0,0.0,0.0,0.0,0.0,0.0,0.0,0.0,0.0,0.0,0.0,0.0,0.0,0.0,0.0,0.0,0.0,0.0,0.0,0.0,0.0,0.0,0.0,0.0,0.0,0.0,3.562,3.5927,0.0,0.0,0.0,3.62,3.6406,0.0,0.0,0.0,0.0,0.0,0.0,0.0,0.0,0.0,0.0,0.0,0.0,0.0,0.0,0.0,0.0,0.0,0.0,0.0,0.0,0.0,0.0,0.0,0.0,0.0,0.0,0.0,0.0,0.0,0.0,0.0,0.0,0.0,0.0,0.0,0.0,0.0,0.0,0.0,0.0,0.0,0.0,0.0,0.0,0.0,0.0,0.0,0.0,0.0,0.0,0.0,0.0,0.0,0.0,0.0,0.0,0.0,3.2539,3.4681,3.5128,3.3818,3.3524,3.2945,3.2093,3.1812,0.0,0.0,0.0,0.0,0.0,0.0,0.0,0.0,0.0,0.0,0.0,0.0,0.0,0.0,0.0,0.0,0.0,0.0,0.0,0.0,0.0,0.0,0.0,0.0,0.0,0.0,0.0,3.0459,0.0,0.0,0.0,0.0,0.0,0.0,0.0,0.0,0.0,0.0,0.0,0.0,0.0,0.0,3.5557,3.5706,3.5684,3.5679,0.0,0.0,3.5878,3.6589,3.6794,3.7232,0.0,0.0,0.0,0.0,0.0,0.0,0.0,0.0,0.0,0.0,0.0,0.0,0.0,0.0,0.0,0.0,0.0,0.0,0.0,0.0,0.0,0.0,0.0,0.0,0.0,0.0,0.0,0.0,0.0,0.0,0.0,0.0,0.0,0.0,0.0,0.0,0.0,0.0,0.0,0.0,0.0,0.0,0.0,0.0,0.0,0.0,0.0,0.0,0.0,0.0,0.0,0.0,0.0,0.0,0.0,3.3038,3.4723,3.535,3.4738,3.4697,3.4431,3.3931,3.3865,3.3274,0.0,0.0,0.0,0.0,0.0,0.0,0.0,0.0,0.0,0.0,0.0,0.0,0.0,0.0,0.0,0.0,0.0,0.0,0.0,0.0,0.0,0.0,0.0,0.0,0.0,0.0,0.0,0.0,0.0,0.0,0.0,0.0,0.0,0.0,0.0,0.0,0.0,0.0,0.0,0.0,0.0,3.5654,3.5776,3.5788,3.5811,0.0,0.0,3.5745,3.5888,3.5915,3.646,3.8139,0.0,0.0,0.0,0.0,0.0,0.0,0.0,0.0,0.0,0.0,0.0,0.0,0.0,0.0,0.0,0.0,0.0,0.0,0.0,0.0,0.0,0.0,0.0,0.0,0.0,0.0,0.0,0.0,0.0,0.0,0.0,0.0,0.0,0.0,0.0,0.0,0.0,0.0,0.0,0.0,0.0,0.0,0.0,0.0,0.0,0.0,0.0,0.0,0.0,0.0,0.0,0.0,0.0,3.5378,3.5702,3.6168,3.6151,3.5681,3.5425,3.5052,3.4528,3.4544,3.4268,0.0,0.0,0.0,0.0,0.0,0.0,0.0,0.0,0.0,0.0,0.0,0.0,0.0,0.0,0.0,0.0,0.0,0.0,0.0,0.0,0.0,0.0,0.0,0.0,0.0,0.0,0.0,0.0,3.3108,3.328,3.2756,0.0,0.0,0.0,0.0,0.0,0.0,0.0,0.0,0.0,0.0,3.5702,3.5797,3.6219,0.0,0.0,3.7049,3.7529,3.8159,3.8225,3.8627,3.9869,4.0036,0.0,0.0,0.0,0.0,0.0,0.0,0.0,0.0,0.0,0.0,0.0,0.0,0.0,0.0,0.0,0.0,0.0,0.0,0.0,0.0,0.0,0.0,0.0,0.0,0.0,0.0,0.0,0.0,0.0,0.0,0.0,0.0,0.0,0.0,0.0,0.0,0.0,0.0,0.0,0.0,0.0,0.0,0.0,0.0,0.0,0.0,0.0,0.0,0.0,0.0,0.0,0.0,3.6772,3.7379,3.7173,3.6904,3.6591,3.6302,3.5938,3.5453,3.5531,3.5453,0.0,0.0,0.0,0.0,0.0,0.0,0.0,0.0,0.0,0.0,0.0,0.0,0.0,0.0,0.0,0.0,0.0,0.0,0.0,0.0,0.0,0.0,0.0,0.0,0.0,0.0,0.0,0.0,3.4063,3.4235,3.3864,0.0,0.0,0.0,0.0,0.0,0.0,0.0,0.0,0.0,0.0,3.6149,3.6242,3.6917,3.7417,3.7534,3.8171,3.889,3.9558,3.9678,3.9899,4.0535,0.0,0.0,0.0,0.0,0.0,0.0,0.0,0.0,0.0,0.0,0.0,0.0,0.0,0.0,0.0,0.0,0.0,0.0,0.0,0.0,0.0,0.0,0.0,0.0,0.0,0.0,0.0,0.0,0.0,0.0,3.0941,0.0,0.0,0.0,0.0,0.0,0.0,0.0,0.0,0.0,0.0,0.0,0.0,0.0,0.0,0.0,0.0,0.0,0.0,0.0,0.0,0.0,0.0,3.7415,3.7451,3.7541,3.7523,3.7504,3.7469,3.73,3.6895,3.7228,3.7099,3.6384,0.0,0.0,0.0,0.0,0.0,0.0,0.0,0.0,0.0,0.0,0.0,0.0,0.0,0.0,0.0,0.0,0.0,0.0,0.0,0.0,0.0,0.0,0.0,0.0,0.0,0.0,3.2928,3.4227,3.5534,0.0,0.0,0.0,0.0,0.0,0.0,0.0,0.0,0.0,0.0,3.7082,3.7102,3.7255,3.7837,3.8309,3.8376,3.8967,3.9402,3.9454,3.9552,3.961,0.0,0.0,0.0,0.0,0.0,0.0,0.0,0.0,0.0,0.0,0.0,0.0,0.0,0.0,0.0,0.0,0.0,0.0,0.0,0.0,0.0,0.0,0.0,0.0,0.0,0.0,0.0,3.2007,3.2567,0.0,0.0,0.0,0.0,0.0,0.0,0.0,0.0,0.0,0.0,0.0,3.7039,3.7607,0.0,0.0,0.0,0.0,0.0,0.0,0.0,0.0,0.0,0.0,0.0,0.0,3.9545,4.054,3.9353,3.8941,3.9464,3.9226,3.9039,3.8887,3.8503,3.7984,3.7357,0.0,0.0,0.0,0.0,0.0,0.0,0.0,0.0,0.0,0.0,0.0,0.0,0.0,0.0,0.0,0.0,0.0,0.0,0.0,0.0,0.0,0.0,0.0,0.0,0.0,3.4776,0.0,0.0,0.0,0.0,0.0,0.0,0.0,0.0,0.0,0.0,0.0,3.6569,3.7806,3.7492,3.7407,3.8061,3.882,3.9309,0.0,0.0,0.0,0.0,0.0,0.0,0.0,0.0,0.0,0.0,0.0,0.0,0.0,0.0,4.1109,4.1109,4.1557,4.1967,4.1967,0.0,0.0,0.0,0.0,0.0,0.0,0.0,0.0,0.0,0.0,0.0,0.0,0.0,0.0,3.3336,0.0,3.3963,0.0,0.0,0.0,0.0,0.0,0.0,0.0,0.0,3.6973,3.7761,3.8419,3.9127,3.9439,0.0,3.8707,3.7551,0.0,0.0,0.0,0.0,0.0,0.0,0.0,0.0,4.083,4.1635,4.0081,3.9628,4.0379,4.0092,3.9968,4.0091,3.9476,3.8898,3.8467,3.8577,3.8666,0.0,0.0,0.0,0.0,0.0,0.0,0.0,0.0,0.0,0.0,0.0,0.0,0.0,0.0,0.0,0.0,0.0,0.0,0.0,0.0,0.0,0.0,0.0,3.6381,0.0,0.0,0.0,0.0,0.0,0.0,0.0,0.0,0.0,3.6816,3.647,3.6679,3.7854,3.8053,3.8344,3.8941,0.0,0.0,0.0,0.0,0.0,0.0,0.0,4.1891,4.1184,4.1198,4.134,4.1465,4.1525,4.1751,4.2356,0.0,0.0,4.1226,4.1557,4.1947,4.1947,4.1947,4.1947,4.1947,4.1498,4.1109,0.0,0.0,0.0,0.0,0.0,0.0,0.0,0.0,3.4676,3.5044,0.0,3.4945,0.0,0.0,0.0,0.0,0.0,3.6621,0.0,0.0,3.8983,3.9477,3.957,3.9853,3.9981,3.9973,3.9443,3.9443,3.9829,3.7981,0.0,0.0,0.0,0.0,0.0,0.0,4.1274,4.0827,3.9834,3.9654,4.0438,4.0231,4.0246,4.0598,4.0238,3.995,3.979,3.9423,3.8953,3.841,3.7801,0.0,0.0,0.0,0.0,0.0,0.0,0.0,0.0,0.0,0.0,0.0,0.0,0.0,0.0,0.0,0.0,0.0,0.0,0.0,0.0,3.7032,0.0,0.0,0.0,0.0,0.0,0.0,0.0,0.0,0.0,0.0,3.7093,3.707,3.7222,3.7453,0.0,0.0,0.0,0.0,4.0922,4.0974,4.1531,4.197,4.2039,4.2167,4.1997,4.1185,0.0,0.0,4.2141,4.2435,4.296,4.46,4.4133,4.3178,4.1519,4.1324,4.1324,4.1304,4.1363,4.1226,4.1226,4.1422,4.1324,3.6918,0.0,0.0,0.0,0.0,3.5793,3.5651,3.5166,3.558,3.6108,3.676,3.6784,0.0,0.0,0.0,0.0,0.0,0.0,3.7328,3.8308,3.8637,3.9493,4.0789,4.1055,4.1512,4.2115,4.2033,4.2082,4.2206,4.156,4.1049,4.0699,0.0,0.0,0.0,0.0,4.1999,4.2372,4.2163,4.2398,4.3203,4.3156,4.2897,4.2437,4.2311,4.1983,4.1353,4.1213,4.0822,4.005,3.9821,0.0,0.0,0.0,0.0,0.0,0.0,0.0,0.0,0.0,0.0,0.0,0.0,0.0,0.0,0.0,0.0,0.0,0.0,0.0,3.7056,3.8786,3.9747,0.0,0.0,0.0,0.0,0.0,0.0,0.0,0.0,0.0,3.8101,3.8093,3.8617,0.0,0.0,4.0034,4.0639,4.0922,4.1051,4.1072,4.1232,0.0,4.1381,4.2373,4.2877,4.2137,4.2311,4.2767,4.3255,4.3313,4.3489,4.4016,4.3879,4.353,4.31,4.2964,4.2944,4.2944,4.2964,4.2942,4.2962,4.2964,4.2944,3.9386,3.8232,3.8191,3.8018,3.7811,3.8233,3.798,3.7348,3.7561,3.7849,3.8122,3.7932,3.8343,3.9141,3.8471,0.0,0.0,0.0,3.8233,3.921,3.93,3.9947,4.1023,4.1525,4.2051,4.2533,4.2656,4.2867,4.3176,4.2753,4.2696,4.2854,0.0,0.0,4.28,4.2662,4.2712,4.2968,4.2913,4.3271,4.4069,4.4301,4.4172,4.3683,4.3665,4.3342,4.2668,4.2643,4.2303,4.1567,4.1106,4.0472,0.0,0.0,0.0,0.0,0.0,0.0,0.0,0.0,0.0,0.0,0.0,3.5449,3.495,0.0,0.0,0.0,3.8318,3.8968,3.8981,4.0372,0.0,0.0,0.0,0.0,0.0,0.0,0.0,4.0161,3.9896,3.9685,3.9494,3.9847,4.0231,4.0542,4.0424,4.062,4.1498,0.0,4.1734,4.2066,4.2124,4.2259,4.2591,4.3156,4.3419,4.2978,4.3352,4.384,4.4172,4.4211,4.4348,4.4623,4.472,4.4719,4.472,4.4719,4.4445,4.3842,4.3705,4.3705,4.3705,4.3705,4.3705,4.1576,4.1088,4.0438,4.0348,4.0664,4.0914,4.0717,4.0226,4.0222,4.0002,3.9564,3.8802,3.8951,3.9786,3.8999,0.0,4.0309,3.9639,3.9819,4.0622,4.0757,4.0846,4.0942,4.174,4.2153,4.2249,4.2219,4.2632,4.3378,4.2644,4.2997,4.4454,4.4006,4.3365,4.2636,4.3308,4.3428,4.2938,4.2743,4.3001,4.3725,4.4208,4.4484,4.4465,4.4541,4.4321,4.377,4.3793,4.3547,4.2928,4.1916,4.143,4.1514,0.0,0.0,0.0,0.0,0.0,0.0,0.0,0.0,0.0,0.0,0.0,0.0,0.0,0.0,0.0,4.0097,0.0,4.0999,4.1726,0.0,0.0,0.0,4.0814,4.082,4.0283,4.0214,4.1016,0.0,0.0,4.1207,4.2006,4.1927,4.0307,4.0815,4.1597,4.2376,4.2513,4.2806,4.3626,4.3783,4.4114,4.4777,4.4541,4.4288,4.4348,4.4115,4.4563,4.5246,4.5402,4.5675,4.6358,4.6515,4.6497,4.6495,4.6495,4.5987,4.4426,4.4036,4.3957,4.4036,4.4057,4.4076,4.314,4.3056,4.319,4.2421,4.1146,4.1209,4.1203,4.1181,4.1372,4.1475,4.1462,4.1409,4.1575,4.1876,4.1767,4.1944,4.2294,4.2236,4.2325,4.2533,4.2582,4.2917,4.3508,4.3813,4.4311,4.4918,4.5,4.5132,4.532,4.5073,4.515,4.5524,4.5305,4.4761,4.3972,4.4107,4.4143,4.4012,4.4507,4.4804,4.4878,4.5014,4.5076,4.5076,4.5685,4.5651,4.4955,4.5587,4.5314,4.3942,4.3707,4.3074,4.1894,4.2857,0.0,0.0,0.0,0.0,0.0,0.0,0.0,0.0,0.0,3.8952,3.9548,0.0,4.133,0.0,4.2266,4.2627,4.1816,4.207,0.0,0.0,4.1425,4.157,4.1103,4.1941,4.2428,4.2104,4.2488,4.2864,4.3061,4.3255,4.3255,4.2825,4.2944,4.3157,4.3372,4.3391,4.3704,4.4504,4.4738,4.4992,4.5851,4.6397,4.6846,4.749,4.7549,4.7666,4.7861,4.7881,4.7978,4.8174,4.8213,4.8213,4.8154,4.8213,4.7822,4.6885,4.6144,4.5677,4.5675,4.5657,4.5657,4.4438,4.4621,4.4468,4.3821,4.2894,4.2913,4.2744,4.25,4.2706,4.2662,4.2438,4.2668,4.2805,4.286,4.294,4.3,4.3096,4.3197,4.3246,4.3253,4.3292,4.3557,4.4041,4.4833,4.5464,4.5968,4.6752,4.7162,4.7162,4.7111,4.7125,4.7154,4.7061,4.6803,4.6304,4.5438,4.5341,4.6082,4.6116,4.6269,4.6589,4.6599,4.6906,4.7564,4.7011,4.6973,4.7583,4.7088,4.6528,4.5916,4.5662,4.494,4.3615,4.4377,4.4306,0.0,0.0,0.0,0.0,0.0,0.0,0.0,0.0,0.0,0.0,0.0,4.2841,4.2111,4.3023,4.3223,4.2183,4.2604,4.271,4.2195,4.2539,4.2668,4.2275,4.3038,4.3424,4.3017,4.3411,4.3705,4.3705,4.4036,4.4289,4.4289,4.4602,4.4699,4.4387,4.4603,4.5168,4.6005,4.6456,4.6827,4.7354,4.8152,4.872,4.8779,4.8798,4.8798,4.8798,4.8798,4.8798,4.8798,4.8798,4.8798,4.8798,4.8798,4.8626,4.8227,4.7761,4.7175,4.6453,4.6262,4.6247,4.5623,4.5935,4.5213,4.5029,4.5278,4.5283,4.4751,4.3908,4.4026,4.3741,4.3185,4.342,4.3523,4.3523,4.3557,4.3545,4.3552,4.3615,4.3639,4.3664,4.3771,4.3821,4.3899,4.5313,4.6081,4.6255,4.7723,4.8492,4.8608,4.8608,4.8643,4.8714,4.8714,4.881,4.8931,4.7081,4.6812,4.8207,4.7592,4.7623,4.8348,4.8367,4.9013,5.0201,4.8332,4.8148,5.0048,4.8311,4.745,4.7826,4.7339,4.6553,4.5496,4.5607,4.5341,0.0,4.5264,0.0,0.0,0.0,0.0,0.0,0.0,0.0,0.0,4.3601,4.333,4.2717,4.3481,4.3626,4.2666,4.3346,4.3803,4.3725,4.3705,4.3705,4.3686,4.3783,4.3862,4.386,4.3957,4.4037,4.4115,4.472,4.5171,4.5228,4.588,4.6097,4.5584,4.5952,4.675,4.7748,4.8612,4.9069,4.9185,4.9748,4.9983,4.9337,4.9262,4.914,4.9241,4.9221,4.9161,4.9178,4.9256,4.9215,4.9135,4.9176,4.9125,4.9002,4.8926,4.8437,4.7148,4.6737,4.6536,4.7002,4.7099,4.7049,4.711,4.7259,4.7362,4.649,4.5001,4.5023,4.5064,4.515,4.521,4.5225,4.5233,4.5329,4.5408,4.5396,4.5456,4.5495,4.5495,4.5506,4.5536,4.556,4.5907,4.645,4.712,4.7485,4.7994,4.8682,4.8682,4.868,4.8705,4.8705,4.9391,5.0563,0.0,0.0,0.0,4.8928,4.9204,4.9264,4.9264,4.9382,4.9665,4.9249,0.0,4.8654,4.8972,4.858,4.7366,4.7256,0.0,0.0,0.0,0.0,0.0,0.0,0.0,0.0,0.0,0.0,0.0,4.5462,4.5085,4.4534,4.4559,4.5082,4.6156,4.5959,4.538,4.4567,4.4635,4.4465,4.3782,4.3705,4.3705,4.3725,4.4328,4.4758,4.4758,4.5382,4.5794,4.5815,4.5964,4.6065,4.6153,4.6756,4.7187,4.7087,4.7271,4.793,4.935,5.0254,5.0858,5.0916,5.0995,5.1015,5.0916,5.0916,5.0858,5.08,5.0839,5.0859,5.0837,5.0914,5.0874,5.0874,5.0913,5.0604,4.9997,4.9868,4.9547,4.8546,4.8312,4.8311,4.8198,0.0,4.7928,4.7882,0.0,4.8065,4.761,4.6838,4.6818,4.6955,4.7139,4.7139,4.6907,4.6493,4.657,4.6362,4.5955,4.6,4.5982,4.5982,4.6032,4.6059,4.6078,4.6957,4.7596,4.8072,4.8915,4.955,4.9927,4.9946,4.9942,4.9991,4.9991,5.042,5.1236,5.0428,4.976,4.9236,4.9653,5.0023,5.037,5.037,5.0733,5.1416,5.0317,0.0,0.0,0.0,0.0,0.0,0.0,0.0,0.0,0.0,0.0,4.6802,4.7106,4.7379,4.7457,4.7048,4.6982,4.7441,4.746,4.7251,4.6765,4.6028,4.5921,4.6702,4.6077,4.5449,4.5049,4.5012,4.4992,4.4974,4.4994,4.4994,4.5031,4.5363,4.5812,4.6239,4.6651,4.7066,4.7489,4.7534,4.7538,4.7577,4.824,4.8918,4.9295,4.9062,4.9335,5.0546,5.1071,5.1379,5.1398,5.1398,5.1398,5.1398,5.1398,5.1398,5.1398,5.1398,5.1401,5.1386,5.1386,5.1386,5.1386,5.1386,5.1365,5.1349,5.133,5.1391,5.1179,5.0318,4.9404,4.9302,4.9481,4.8779,4.8573,4.8681,4.8681,4.8751,4.8871,0.0,0.0,0.0,4.858,4.8211,4.755,4.7531,4.7123,4.6487,4.6463,4.6478,4.6465,4.654,4.6557,4.6632,4.8187,4.9026,4.9247,5.0638,5.1383,5.1464,5.1307,5.1269,5.1308,5.1308,5.1327,5.1382,5.1327,5.0971,5.0302,5.0384,5.078,5.1471,5.1521,5.2098,5.33,5.124,5.1055,5.2965,5.1186,5.0343,5.0786,5.0973,5.0628,4.9695,4.9717,4.9452,4.8776,4.8762,4.8806,4.8808,4.8808,4.8846,4.9009,4.8888,4.8728,4.8601,4.7297,4.6462,4.6295,4.5626,4.5291,4.5428,4.5447,4.5781,4.664,4.6737,4.6737,4.6737,4.6737,4.705,4.7673,4.7796,4.8037,4.8632,4.8711,4.8886,4.9094,4.9688,5.0718,5.1503,5.1253,5.1081,5.1783,5.203,5.1893,5.166,5.1657,5.1563,5.1423,5.1385,5.1387,5.1387,5.1387,5.139,5.1373,5.1374,5.1452,5.157,5.1667,5.1893,5.2682,5.2983,5.3264,5.3748,5.2586,5.1265,5.0469,5.0477,5.038,5.0428,5.0615,5.0596,5.068,5.0673,4.9223,4.8588,4.858,4.858,4.8522,4.8405,4.8425,4.8347,4.823,4.825,4.8268,4.8308,4.8343,4.834,4.8388,4.941,5.0293,5.0996,5.13,5.1774,5.2331,5.1767,5.1346,5.1321,5.1302,5.1324,5.1308,5.1364,5.1324,5.121,5.181,5.2197,5.2322,5.2333,5.2429,5.2581,5.1583,5.115,5.1474,5.1187,5.0741,5.0193,5.0172,4.9781,4.8924,4.8921,4.8847,4.8782,4.8742,4.8729,4.8799,4.8737,4.9061,4.9784,4.9223,4.8479,4.775,4.7457,4.7026,4.6306,4.623,4.6403,4.7028,4.7106,4.7438,4.8239,4.8414,4.8434,4.8356,4.8356,4.8453,4.8688,4.8632,4.8707,4.9056,4.9044,4.9371,4.9921,5.0906,5.1755,5.3114,5.3448,5.3409,5.3526,5.3556,5.3237,5.2623,5.2418,5.2191,5.1424,5.145,5.1531,5.1554,5.1551,5.1508,5.1362,5.154,5.1757,5.2301,5.2418,5.2949,5.3747,5.4379,5.4917,5.5178,5.5158,5.4909,5.0758,5.0863,5.0844,5.0952,5.1095,5.1115,5.114,5.1125,5.0367,4.9998,5.0017,5.0017,4.9745,4.9318,4.9299,4.9027,4.8585,4.8647,4.8677,4.87,4.8747,4.8973,4.9471,5.0365,5.1247,5.2036,5.2545,5.2955,5.327,5.2939,5.2734,5.2715,5.2715,5.2706,5.2702,5.2745,5.274,5.2728,5.2182,5.1894,5.1891,5.1894,5.1893,5.1864,5.1439,5.1263,5.1257,5.128,5.1144,5.0774,5.0779,5.0586,5.0193,5.0175,5.0172,5.0158,5.0164,5.0158,5.0165,5.0561,5.0998,5.1418,5.1549,5.1202,5.0349,4.8986,4.8221,4.8273,4.7946,4.7791,4.8182,4.8202,4.8377,4.8748,4.8807,4.8807,4.8807,4.8807,4.9159,4.9998,5.021,5.0553,5.1476,5.1579,5.1659,5.2186,5.2863,5.3892,5.508,5.526,5.4927,5.4125,5.3888,5.3736,5.3366,5.3307,5.3112,5.2742,5.2703,5.2723,5.2723,5.2703,5.252,5.2191,5.2705,5.3286,5.3465,5.4148,5.4952,5.5736,5.621,5.6658,5.7126,5.7262,5.6682,5.0902,5.1041,5.1048,5.1095,5.1202,5.1202,5.1202,5.1202,5.1202,5.1214,5.1217,5.1214,5.0833,5.0217,5.0206,4.9809,4.9255,4.9251,4.9298,4.9284,4.9332,4.9802,5.0612,5.1523,5.2392,5.3166,5.3871,5.4192,5.4173,5.3993,5.3896,5.3892,5.3888,5.39,5.3896,5.39,5.39,5.3821,5.263,5.1971,5.1958,5.1953,5.1938,5.1891,5.1891,5.1874,5.1875,5.1953,5.1972,5.1972,5.1967,5.1953,5.1971,5.1969,5.1938,5.1908,5.1928,5.1947,5.1931,5.2516,5.2898,5.2894,5.3522,5.3619,5.2844,5.1122,5.0025,5.0246,4.9726,4.9436,4.969,4.9709,4.9727,4.9905,4.9963,5.0139,5.0002,4.9944,5.0412,5.1741,5.1971,5.2483,5.3535,5.3897,5.3862,5.4099,5.4944,5.5762,5.6351,5.6487,5.5883,5.5002,5.4476,5.4418,5.4277,5.4199,5.4184,5.4199,5.416,5.4242,5.4359,5.4496,5.4281,5.3857,5.4539,5.5162,5.4944,5.5747,5.6877,5.7613,5.8046,5.849,5.8977,5.8509,5.7754,5.1159,5.1184,5.1184,5.119,5.1202,5.1202,5.1202,5.1202,5.1202,5.1205,5.1202,5.1214,5.1169,5.1078,5.1059,5.0977,5.0887,5.1013,5.1001,5.0996,5.1073,5.1528,5.2345,5.3234,5.4125,5.4863,5.5035,5.5083,5.5046,5.4348,5.3927,5.3892,5.3888,5.397,5.3931,5.395,5.3931,5.3892,5.3748,5.368,5.3679,5.366,5.366,5.3665,5.3647,5.3662,5.3563,5.3685,5.3666,5.3666,5.3624,5.3644,5.3641,5.3631,5.3654,5.3611,5.3621,5.3662,5.3642,5.3736,5.379,5.3775,5.3907,5.395,5.3829,5.3565,5.275,5.1697,5.1199,5.1396,5.2143,5.2177,5.235,5.2882,5.3077,5.3428,5.3194,5.3448,5.3506,5.3604,5.3576,5.3748,5.4025,5.4122,5.4329,5.5002,5.5704,5.6269,5.6429,5.6487,5.6468,5.6215,5.6195,5.5821,5.5295,5.5095,5.5197,5.5154,5.5134,5.5509,5.6035,5.6249,5.6176,5.5782,5.6269,5.6717,5.7048,5.7598,5.7968,5.888,5.9503,6.0049,6.0068,5.9484,5.8646,5.1202,5.1202,5.1202,5.1202,5.1202,5.1202,5.1203,5.1201,5.12,5.1218,5.1255,5.1222,5.121,5.1245,5.1218,5.121,5.1215,5.1284,5.1308,5.1302,5.1346,5.2079,5.3332,5.3699,5.4612,5.5868,5.5985,5.5962,5.5915,5.5599,5.5424,5.545,5.5431,5.5431,5.5431,5.5431,5.5431,5.545,5.5431,5.5424,5.5307,5.443,5.39,5.3903,5.3896,5.3888,5.3892,5.3899,5.3907,5.3903,5.3903,5.3903,5.3903,5.3899,5.3896,5.3896,5.3888,5.39,5.3888,5.4375,5.4667,5.4671,5.5158,5.5431,5.5431,5.5431,5.508,5.4441,5.3424,5.301,5.3322,5.338,5.3533,5.3829,5.3887,5.3907,5.3887,5.3907,5.4063,5.4566,5.4687,5.4885,5.5295,5.5431,5.5587,5.5937,5.6331,5.6468,5.6487,5.6487,5.6487,5.6487,5.6487,5.637,5.6054,5.6425,5.66,5.6736,5.7126,5.7672,5.7808,5.7968,5.7851,5.736,5.8042,5.8431,5.8373,5.9464,6.0165,6.0531,6.0633,6.1062,6.1062,6.036,5.964,5.1202,5.1202,5.1217,5.1208,5.1214,5.1235,5.1226,5.1219,5.1202,5.1236,5.1302,5.1247,5.1248,5.1307,5.1268,5.1229,5.1249,5.1282,5.1307,5.1343,5.1584,5.251,5.3818,5.4169,5.5038,5.6292,5.6468,5.6487,5.6487,5.6487,5.6487,5.6487,5.6487,5.6487,5.6487,5.6487,5.6487,5.6468,5.6487,5.6487,5.6312,5.5256,5.4613,5.4613,5.4609,5.4617,5.4617,5.4608,5.4616,5.4616,5.4605,5.4617,5.4617,5.4601,5.4613,5.4613,5.4613,5.4613,5.4613,5.5197,5.5567,5.5626,5.6171,5.6487,5.6487,5.6487,5.6487,5.6312,5.5353,5.4613,5.4593,5.4613,5.4613,5.4613,5.4613,5.4613,5.4652,5.4613,5.4905,5.545,5.5567,5.5782,5.6331,5.6409,5.6409,5.6429,5.6468,5.6487,5.6487,5.6507,5.6565,5.676,5.6838,5.6858,5.6877,5.7169,5.7734,5.847,5.8938,5.9289,5.96,5.9717,5.9678,5.9445,6.0224,6.0419,6.0029,6.0925,6.1427,6.1489,6.1484,6.1423,6.1272,6.0674,6.0164,5.1202,5.12,5.12,5.1219,5.1203,5.126,5.1306,5.1289,5.1217,5.1248,5.1307,5.1303,5.1331,5.139,5.1315,5.1302,5.1299,5.1345,5.1394,5.144,5.2155,5.3015,5.3911,5.4749,5.5606,5.6448,5.6487,5.6487,5.6487,5.6487,5.6487,5.6487,5.6487,5.6487,5.6487,5.6487,5.6487,5.6487,5.6487,5.6487,5.6487,5.639,5.6253,5.6234,5.6331,5.6238,5.6292,5.6351,5.6336,5.6331,5.6258,5.6292,5.6312,5.6312,5.6273,5.6273,5.6312,5.6312,5.6273,5.6312,5.637,5.6409,5.6429,5.6487,5.6487,5.6487,5.6487,5.6487,5.639,5.6273,5.6273,5.6117,5.6156,5.6195,5.6312,5.6312,5.6331,5.6327,5.637,5.6487,5.6546,5.658,5.6565,5.6487,5.6546,5.6526,5.6487,5.6487,5.6526,5.6507,5.6858,5.7364,5.7617,5.7676,5.7676,5.8022,5.8709,5.9347,5.9912,6.0438,6.1062,6.149,6.1315,6.1218,6.1257,6.1315,6.1451,6.1466,6.1417,6.1401,6.133,6.1262,6.1202,6.0349,5.9985,5.1219,5.1274,5.1257,5.123,5.1217,5.1268,5.1301,5.1308,5.1269,5.1303,5.1336,5.1321,5.1322,5.1333,5.131,5.1305,5.1313,5.134,5.1631,5.2111,5.2462,5.3354,5.4671,5.5076,5.5665,5.639,5.6487,5.6487,5.6487,5.6487,5.6487,5.6487,5.6487,5.6487,5.6487,5.6487,5.6487,5.6487,5.6487,5.6487,5.6487,5.6487,5.6487,5.6487,5.6487,5.6487,5.6487,5.6487,5.6487,5.6487,5.6487,5.6487,5.6487,5.6487,5.6487,5.6487,5.6487,5.6487,5.6487,5.6487,5.6487,5.6487,5.6487,5.6507,5.6487,5.6487,5.6487,5.6585,5.7033,5.7247,5.715,5.6819,5.6507,5.6565,5.6974,5.7286,5.7384,5.7734,5.8105,5.8105,5.8081,5.7905,5.7384,5.7267,5.7052,5.6604,5.6507,5.6546,5.6604,5.6916,5.7423,5.7711,5.8183,5.8748,5.9347,5.9367,5.9678,6.0146,6.0633,6.0984,6.1505,6.1481,6.1281,6.1309,6.1495,6.1509,6.1434,6.1369,6.133,6.1186,6.1109,6.1074,6.1011,6.0471,6.0313,5.2067,5.2112,5.2122,5.2125,5.2087,5.2129,5.2127,5.2153,5.2127,5.2167,5.2188,5.2155,5.2145,5.2138,5.215,5.2134,5.2051,5.1585,5.1612,5.2216,5.2762,5.3654,5.4691,5.5353,5.5918,5.6429,5.6487,5.6487,5.6487,5.6487,5.6487,5.6487,5.6487,5.6487,5.6487,5.6487,5.6487,5.6487,5.6487,5.6487,5.6487,5.6487,5.6487,5.6487,5.6487,5.6487,5.6487,5.6487,5.6487,5.6487,5.6487,5.6487,5.6487,5.6487,5.6487,5.6487,5.6487,5.6487,5.6487,5.6487,5.6487,5.6487,5.6507,5.6585,5.6819,5.6896,5.6994,5.7345,5.773,5.81,5.8027,5.7637,5.7325,5.7364,5.7793,5.812,5.8163,5.8626,5.8903,5.8903,5.8884,5.865,5.828,5.8163,5.7886,5.736,5.7306,5.7306,5.7399,5.7734,5.828,5.8509,5.9055,5.9776,6.0204,6.0243,6.001,6.0356,6.0385,6.0911,6.1139,6.1139,6.1229,6.1342,6.1401,6.1401,6.135,6.1269,6.1126,6.0954,6.0895,6.0864,6.0811,6.0776,6.0677,5.3724,5.3686,5.3847,5.3708,5.3649,5.3639,5.3799,5.3699,5.3728,5.3627,5.3575,5.3728,5.3595,5.3741,5.3588,5.3763,5.3428,5.2321,5.1768,5.1963,5.3245,5.3966,5.434,5.5704,5.637,5.6487,5.6487,5.6487,5.6487,5.6487,5.6487,5.6487,5.6487,5.6487,5.6487,5.6487,5.6487,5.6487,5.6487,5.6487,5.6487,5.6487,5.6487,5.6487,5.6487,5.6487,5.6487,5.6487,5.6487,5.6487,5.6487,5.6487,5.6487,5.6487,5.6487,5.6487,5.6487,5.6487,5.6487,5.6487,5.6526,5.6643,5.6565,5.6935,5.7578,5.773,5.7983,5.8548,5.8884,5.9016,5.9016,5.9035,5.8923,5.8957,5.8899,5.8996,5.9016,5.904,5.9055,5.9211,5.9313,5.9079,5.902,5.902,5.888,5.8743,5.8689,5.867,5.8626,5.8821,5.9352,5.9893,6.0204,6.0594,6.0828,6.0925,6.055,6.0292,6.0122,6.0224,6.0189,6.0197,6.0536,6.0713,6.1116,6.1128,6.1092,6.1011,6.0915,6.0776,6.0719,6.0791,6.0903,6.0936,6.091,5.3876,5.3873,5.3896,5.3905,5.39,5.3897,5.3894,5.3894,5.391,5.3887,5.3903,5.3903,5.3899,5.3911,5.3904,5.3919,5.39,5.3892,5.397,5.4106,5.4569,5.5139,5.5704,5.6253,5.6487,5.6487,5.6487,5.6507,5.6546,5.6526,5.6487,5.6487,5.6507,5.6487,5.6487,5.6487,5.6487,5.6487,5.6487,5.6487,5.6487,5.6487,5.6487,5.6487,5.6487,5.6487,5.6487,5.6487,5.6487,5.6487,5.6487,5.6487,5.6487,5.6487,5.6487,5.6487,5.6487,5.6487,5.6507,5.6526,5.678,5.7189,5.7325,5.7734,5.8455,5.8607,5.8724,5.9094,5.9503,5.9893,5.999,6.0458,6.0243,5.9133,5.9522,5.9893,5.9951,6.038,6.075,6.0789,6.0789,6.0555,6.0068,5.9893,5.9678,5.9211,5.9118,5.9113,5.9133,5.962,5.9912,6.0282,6.073,6.1106,6.1149,6.095,6.0514,6.0125,5.9853,5.9912,5.9777,5.963,5.9915,6.0287,6.0684,6.0857,6.0822,6.085,6.0834,6.0725,6.0706,6.0882,6.1124,6.1287,6.1382,5.4858,5.4878,5.4878,5.4855,5.487,5.4855,5.4878,5.4858,5.4862,5.4878,5.487,5.4867,5.4882,5.4929,5.5158,5.5314,5.5411,5.623,5.6619,5.6541,5.621,5.6464,5.6994,5.7325,5.7423,5.7423,5.7423,5.7423,5.7423,5.7111,5.6935,5.6931,5.6588,5.6412,5.6474,5.6432,5.6422,5.6474,5.6432,5.6407,5.645,5.6412,5.6412,5.6498,5.6487,5.6487,5.6487,5.6487,5.6487,5.6487,5.6487,5.6487,5.6487,5.6487,5.6487,5.6487,5.6526,5.6604,5.6877,5.6994,5.7301,5.7983,5.8178,5.8568,5.9269,5.9464,5.9561,6.0029,6.0438,6.0789,6.0867,6.1218,6.1042,6.0126,6.0458,6.0769,6.0886,6.1257,6.1529,6.149,6.151,6.1295,6.0964,6.0769,6.0594,6.0049,5.9951,5.9971,6.0068,6.0458,6.0633,6.0789,6.105,6.1287,6.1359,6.0994,6.0453,6.0011,5.9584,5.9813,5.9899,5.965,5.9724,6.0153,6.0546,6.0618,6.061,6.1019,6.1166,6.0955,6.1019,6.1593,6.2089,6.2089,6.2204,5.6461,5.6492,5.6473,5.6363,5.6354,5.6344,5.6293,5.641,5.6379,5.6375,5.6468,5.6429,5.6546,5.678,5.7228,5.7496,5.7871,5.847,5.8802,5.8685,5.8295,5.8042,5.789,5.8412,5.867,5.8763,5.8802,5.8845,5.8665,5.8067,5.7765,5.7663,5.6969,5.6471,5.6736,5.6471,5.6601,5.6761,5.6562,5.6588,5.6714,5.6535,5.6523,5.67,5.6738,5.6753,5.6787,5.6821,5.6708,5.6522,5.6487,5.6487,5.6507,5.6526,5.6643,5.6682,5.6624,5.713,5.7598,5.7773,5.8159,5.8938,5.9094,5.9445,6.0204,6.0399,6.0614,6.1198,6.1412,6.149,6.149,6.1568,6.151,6.1549,6.1393,6.1471,6.1549,6.1588,6.1588,6.1588,6.1588,6.1568,6.1471,6.1471,6.1451,6.1393,6.1315,6.1237,6.1257,6.1276,6.1486,6.1484,6.1343,6.1272,6.1271,6.0924,6.0442,6.0307,5.9804,5.9754,5.9931,5.9711,6.0176,6.0546,6.0723,6.0649,6.0851,6.1467,6.1753,6.1736,6.2089,6.272,6.2968,6.2968,6.3159,5.6487,5.6492,5.6496,5.6496,5.648,5.6496,5.6496,5.6511,5.6507,5.6877,5.7267,5.7379,5.7715,5.8319,5.8514,5.8646,5.886,5.9561,5.9971,6.0049,6.0458,5.9737,5.888,5.888,5.9055,5.907,5.9138,5.9001,5.8972,5.8632,5.8434,5.8428,5.7978,5.7771,5.7893,5.776,5.7849,5.7881,5.7818,5.7791,5.7831,5.778,5.7841,5.7881,5.7866,5.7866,5.7913,5.8046,5.7553,5.6576,5.6487,5.6487,5.6643,5.7091,5.7379,5.7457,5.7968,5.8377,5.8568,5.8665,5.9055,5.9815,5.9971,6.0321,6.1159,6.1237,6.1354,6.1588,6.1588,6.1588,6.1588,6.1588,6.1588,6.1588,6.1588,6.1588,6.1588,6.1588,6.1588,6.1588,6.1646,6.1724,6.1744,6.1744,6.1744,6.1744,6.1705,6.1656,6.1729,6.1549,6.1534,6.1401,6.1271,6.1198,6.1053,6.075,6.0545,6.055,6.0185,5.9737,5.9835,5.9746,6.0801,6.1869,6.1859,6.1779,6.2085,6.2538,6.2548,6.2567,6.2873,6.335,6.3713,6.3866,6.4191,5.6487,5.6487,5.6487,5.6487,5.6487,5.6487,5.6682,5.6974,5.7033,5.7481,5.812,5.8256,5.8509,5.9001,5.9367,5.9542,5.9654,6.0355,6.0703,6.077,6.1085,6.0772,6.019,6.0034,5.9963,5.9933,5.9866,5.9873,5.9762,5.9366,5.9134,5.8986,5.8558,5.8327,5.8334,5.8317,5.8346,5.8355,5.8336,5.8298,5.8393,5.8317,5.8307,5.8365,5.8402,5.8402,5.8401,5.8496,5.8201,5.7673,5.7559,5.754,5.7574,5.7968,5.8237,5.8276,5.8748,5.9113,5.9484,5.9542,5.9951,6.0633,6.0847,6.1081,6.1451,6.1588,6.1588,6.1588,6.1588,6.1588,6.1588,6.1588,6.1588,6.1588,6.1588,6.1588,6.1588,6.1938,6.2114,6.2211,6.2426,6.264,6.264,6.262,6.262,6.262,6.2406,6.2259,6.2071,6.1773,6.1518,6.148,6.1303,6.1186,6.1097,6.0843,6.1031,6.1038,6.1205,6.0594,6.0537,6.0531,6.1548,6.2662,6.2834,6.2968,6.3121,6.3293,6.3446,6.3503,6.3694,6.4,6.4439,6.4535,6.4917,5.6663,5.6526,5.6585,5.6624,5.6663,5.6643,5.715,5.7734,5.7851,5.8334,5.8996,5.9113,5.9289,5.9308,6.0142,6.04,6.0429,6.0877,6.1094,6.1128,6.115,6.1008,6.118,6.0993,6.0958,6.0976,6.1016,6.0912,6.0622,6.0093,5.9833,5.963,5.8886,5.8547,5.8794,5.8602,5.8492,5.8699,5.8718,5.8726,5.8813,5.8737,5.8745,5.8853,5.8846,5.8867,5.8839,5.8818,5.8842,5.9187,5.907,5.8803,5.887,5.8977,5.9133,5.9211,5.9386,5.9815,6.0282,6.0438,6.0711,6.1354,6.151,6.1588,6.1588,6.1588,6.1588,6.1588,6.1588,6.1588,6.1588,6.1588,6.1588,6.1627,6.1646,6.1763,6.188,6.2426,6.2932,6.3049,6.3692,6.4004,6.4082,6.4101,6.4023,6.339,6.3166,6.2924,6.2692,6.2429,6.2078,6.1756,6.1509,6.1201,6.1101,6.098,6.1374,6.1668,6.2174,6.2099,6.2132,6.2285,6.2772,6.3331,6.379,6.3828,6.3675,6.3866,6.4153,6.4382,6.4516,6.4917,6.5299,6.5108,6.5261,5.7695,5.6565,5.7165,5.7438,5.7442,5.7462,5.7929,5.8709,5.8704,5.9211,5.9873,6.001,6.0375,6.0979,6.0972,6.1078,6.0961,6.1062,6.1066,6.1057,6.103,6.103,6.1137,6.1066,6.1066,6.1048,6.103,6.0993,6.0858,6.0618,6.0465,6.0335,5.9976,5.988,5.9856,5.9735,5.9925,5.9958,5.9861,5.9792,5.9805,5.9799,5.9773,5.985,5.9856,6.0013,6.0161,6.0214,6.0334,6.0212,5.9527,5.9017,5.9226,5.9679,5.9957,6.0117,6.0628,6.1057,6.1257,6.1257,6.1373,6.1529,6.1588,6.1588,6.1588,6.1588,6.1588,6.1588,6.1588,6.1588,6.1607,6.1588,6.1685,6.1822,6.225,6.2659,6.2679,6.2815,6.3283,6.3731,6.4043,6.4121,6.416,6.4267,6.4222,6.4086,6.3889,6.363,6.3348,6.3075,6.2646,6.2213,6.2159,6.1966,6.1939,6.194,6.2261,6.2624,6.3064,6.3446,6.3484,6.3599,6.3923,6.4401,6.4917,6.4764,6.4363,6.4611,6.4936,6.5127,6.5203,6.5318,6.5394,6.5394,6.5394,5.847,5.7734,5.8144,5.8319,5.8314,5.8314,5.8802,5.9503,5.96,6.0088,6.076,6.0842,6.1023,6.14,6.1255,6.115,6.1109,6.0954,6.0809,6.0731,6.0716,6.0727,6.0727,6.075,6.0754,6.083,6.0762,6.0739,6.0681,6.064,6.0521,6.0559,6.0453,6.0316,6.0403,6.0403,6.0327,6.034,6.0403,6.0403,6.0403,6.0403,6.0403,6.0403,6.0403,6.0447,6.0489,6.0521,6.0649,6.061,6.0085,5.9717,5.9922,6.0365,6.0631,6.0861,6.112,6.1528,6.1549,6.1588,6.1568,6.1588,6.1588,6.1588,6.1588,6.1588,6.1588,6.1588,6.1588,6.1588,6.1627,6.2075,6.2153,6.2348,6.2952,6.3595,6.3945,6.4082,6.4199,6.4705,6.5109,6.5329,6.5324,6.5008,6.5083,6.5246,6.454,6.4237,6.3873,6.3555,6.313,6.2836,6.2887,6.287,6.2887,6.3021,6.3341,6.3675,6.4057,6.4382,6.4573,6.4707,6.4859,6.5146,6.5299,6.5337,6.507,6.5394,6.5394,6.5356,6.5337,6.5375,6.5394,6.5394,6.5394,5.925,5.902,5.9133,5.9191,5.9191,5.9191,5.9678,6.0419,6.0458,6.0794,6.1387,6.1356,6.1177,6.1217,6.1048,6.0945,6.0853,6.0742,6.0578,6.0474,6.048,6.046,6.0466,6.0474,6.0507,6.0628,6.052,6.0433,6.0439,6.0403,6.0439,6.0417,6.0403,6.0403,6.0403,6.0403,6.0403,6.0403,6.0403,6.0403,6.0403,6.0403,6.0403,6.0403,6.0403,6.0403,6.0425,6.0439,6.0487,6.064,6.0664,6.0742,6.0873,6.1002,6.1076,6.1209,6.1264,6.1389,6.1498,6.1554,6.1588,6.1588,6.1588,6.1588,6.1588,6.1588,6.1588,6.1588,6.1588,6.1588,6.1646,6.2289,6.2737,6.303,6.3672,6.4569,6.5192,6.5465,6.5562,6.5635,6.5837,6.6022,6.6147,6.6042,6.6225,6.6204,6.5432,6.4825,6.4463,6.42,6.3877,6.3789,6.392,6.3982,6.3972,6.3942,6.4267,6.4401,6.4821,6.5146,6.5452,6.5643,6.5643,6.5337,6.5375,6.5433,6.5433,6.5394,6.5394,6.5394,6.5394,6.5394,6.5394,6.5394,6.5394,6.0321,5.9055,5.9776,6.0088,6.0088,6.0088,6.0555,6.1262,6.1141,6.1208,6.1311,6.1153,6.1048,6.1012,6.0832,6.0669,6.0572,6.05,6.0453,6.0403,6.0403,6.0403,6.0403,6.0403,6.0425,6.0425,6.0384,6.0403,6.0403,6.0403,6.0403,6.0403,6.0403,6.0403,6.0403,6.0403,6.0403,6.0403,6.0403,6.0403,6.0403,6.0403,6.0403,6.0403,6.0403,6.0403,6.0403,6.0403,6.0398,6.0439,6.0453,6.0474,6.0597,6.08,6.0974,6.1057,6.1178,6.1274,6.1337,6.1498,6.1578,6.1588,6.1588,6.1588,6.1588,6.1588,6.1588,6.1588,6.1588,6.1588,6.1607,6.2465,6.2854,6.3263,6.4257,6.5251,6.5543,6.5942,6.6326,6.629,6.6406,6.6456,6.6426,6.6337,6.6167,6.605,6.5638,6.5279,6.5109,6.5008,6.4929,6.4962,6.5081,6.5104,6.5108,6.5012,6.507,6.4993,6.528,6.5643,6.5967,6.6369,6.6369,6.612,6.5757,6.5605,6.5547,6.5509,6.5394,6.5394,6.5394,6.5394,6.5394,6.5394,6.5394,6.1101,6.0399,6.0808,6.0964,6.0984,6.0964,6.1198,6.1515,6.1389,6.131,6.1217,6.1002,6.0832,6.0798,6.064,6.0493,6.0431,6.0403,6.0403,6.0403,6.0403,6.0403,6.0403,6.0403,6.0403,6.0403,6.0403,6.0403,6.0403,6.0403,6.0403,6.0403,6.0403,6.0403,6.0403,6.0403,6.0403,6.0403,6.0403,6.0403,6.0403,6.0403,6.0403,6.0403,6.0403,6.0403,6.0403,6.0403,6.0403,6.0403,6.0403,6.0403,6.0466,6.0572,6.0731,6.0852,6.0945,6.1057,6.115,6.1343,6.1433,6.1451,6.1534,6.1588,6.1588,6.1588,6.1588,6.1588,6.1588,6.1588,6.1607,6.2737,6.34,6.3809,6.4997,6.5874,6.6131,6.6379,6.6477,6.6543,6.6456,6.6377,6.6353,6.6214,6.5975,6.5792,6.566,6.5613,6.5578,6.5485,6.5394,6.5394,6.5356,6.5375,6.5375,6.5394,6.5394,6.5394,6.5509,6.5891,6.635,6.6674,6.6961,6.7018,6.6579,6.6254,6.591,6.5929,6.5662,6.5433,6.5413,6.5413,6.5394,6.5394,6.5394,6.1588,6.1588,6.1588,6.1588,6.1588,6.1588,6.1554,6.1518,6.1317,6.1202,6.1126,6.083,6.0652,6.059,6.05,6.0403,6.0403,6.0403,6.0403,6.0403,6.0403,6.0403,6.0403,6.0403,6.0403,6.0403,6.0403,6.0403,6.0403,6.0403,6.0403,6.0403,6.0403,6.0403,6.0403,6.0403,6.0403,6.0403,6.0403,6.0403,6.0403,6.0403,6.0403,6.0403,6.0403,6.0389,6.0361,6.0389,6.0375,6.0375,6.0408,6.0403,6.0403,6.0403,6.0474,6.0634,6.0688,6.0798,6.0935,6.1145,6.1274,6.133,6.1451,6.1514,6.1588,6.1588,6.1588,6.1588,6.1588,6.1763,6.2094,6.3205,6.4023,6.4647,6.5635,6.6638,6.6489,6.6471,6.6361,6.6369,6.6309,6.6212,6.6129,6.5953,6.5692,6.5672,6.5542,6.5499,6.5475,6.5446,6.5394,6.5394,6.5394,6.5394,6.5394,6.5394,6.5394,6.5394,6.5509,6.5776,6.635,6.6885,6.7286,6.7782,6.7763,6.74,6.6885,6.635,6.612,6.5872,6.5585,6.5433,6.5413,6.5364,6.5314,6.1588,6.1588,6.1588,6.1588,6.1583,6.1583,6.1487,6.1317,6.1117,6.0925,6.08,6.0572,6.0453,6.0439,6.0425,6.0403,6.0403,6.0403,6.0403,6.0403,6.0403,6.0403,6.0403,6.0403,6.0403,6.0403,6.0403,6.0403,6.0403,6.0403,6.0403,6.0403,6.0403,6.0403,6.0403,6.0403,6.0403,6.0403,6.0403,6.0403,6.0403,6.0389,6.0389,6.0389,6.0375,6.0366,6.0304,6.0332,6.0347,6.0323,6.038,6.0389,6.0403,6.0403,6.0403,6.0474,6.0578,6.0696,6.0784,6.0925,6.1111,6.1202,6.1324,6.1433,6.1539,6.1588,6.1588,6.1588,6.1588,6.1938,6.2542,6.3517,6.4374,6.5143,6.599,6.6464,6.6477,6.6273,6.6194,6.607,6.5988,6.5878,6.5772,6.5605,6.5454,6.544,6.5425,6.5409,6.5394,6.5394,6.5394,6.5394,6.5394,6.5394,6.5394,6.5394,6.5394,6.5394,6.5509,6.5738,6.6617,6.7362,6.8126,6.8508,6.8566,6.8527,6.805,6.7477,6.6808,6.6292,6.5967,6.5662,6.5413,6.5349,6.5318,6.1588,6.1588,6.1588,6.1534,6.1439,6.1433,6.1317,6.1137,6.0915,6.0787,6.0669,6.0487,6.0403,6.0403,6.0403,6.0403,6.0403,6.0403,6.0403,6.0403,6.0403,6.0403,6.0403,6.0403,6.0403,6.0403,6.0403,6.0403,6.0403,6.0403,6.0403,6.0403,6.0403,6.0403,6.0403,6.0403,6.0403,6.0403,6.0403,6.0403,6.0408,6.038,6.0332,6.0318,6.0289,6.0226,6.0212,6.0212,6.0275,6.0279,6.0337,6.0366,6.0389,6.0403,6.0403,6.0398,6.048,6.0527,6.0559,6.0719,6.0864,6.1011,6.1178,6.1395,6.1539,6.1588,6.1588,6.1588,6.1588,6.2016,6.2835,6.3634,6.4471,6.5313,6.6145,6.6282,6.6325,6.607,6.5892,6.5784,6.5699,6.5621,6.5559,6.5485,6.5409,6.5409,6.5409,6.5409,6.5394,6.5394,6.5394,6.5394,6.5394,6.5394,6.5394,6.5394,6.5394,6.5394,6.5394,6.5872,6.7056,6.7897,6.8451,6.9215,6.9616,6.9464,6.912,6.8165,6.7114,6.6655,6.6311,6.6139,6.5948,6.5459,6.5394,6.1588,6.1588,6.1588,6.1487,6.131,6.131,6.115,6.0915,6.0776,6.0669,6.059,6.048,6.0403,6.0403,6.0403,6.0403,6.0403,6.0403,6.0403,6.0403,6.0403,6.0403,6.0403,6.0403,6.0403,6.0403,6.0403,6.0403,6.0403,6.0403,6.0403,6.0403,6.0403,6.0403,6.0403,6.0403,6.0403,6.0403,6.0403,6.0403,6.0389,6.0337,6.0327,6.0264,6.0182,6.0084,6.0068,6.0099,6.0182,6.0186,6.0279,6.0342,6.0347,6.0375,6.0403,6.0403,6.0425,6.0412,6.0466,6.0527,6.064,6.0809,6.1048,6.135,6.1482,6.1544,6.1588,6.1588,6.1588,6.2153,6.301,6.3828,6.4621,6.5413,6.6153,6.6221,6.6212,6.5956,6.573,6.5613,6.5522,6.5489,6.545,6.542,6.5394,6.5394,6.5394,6.5394,6.5394,6.5394,6.5394,6.5394,6.5394,6.5394,6.5394,6.5394,6.5394,6.5394,6.5394,6.5681,6.6636,6.7572,6.8222,6.912,7.0094,7.0209,6.975,6.8547,6.7439,6.7496,6.7419,6.6923,6.656,6.5994,6.542,6.1588,6.1588,6.1588,6.1462,6.1296,6.131,6.1074,6.0719,6.0704,6.0578,6.0466,6.0384,6.0403,6.0403,6.0403,6.0403,6.0403,6.0403,6.0403,6.0403,6.0403,6.0403,6.0403,6.0403,6.0403,6.0403,6.0403,6.0403,6.0403,6.0403,6.0403,6.0403,6.0403,6.0403,6.0403,6.0403,6.0403,6.0403,6.0403,6.0389,6.0361,6.0323,6.0279,6.025,6.0167,6.0068,6.001,6.0038,6.0087,6.006,6.0171,6.0298,6.0323,6.0366,6.0375,6.0403,6.0403,6.0403,6.0412,6.0439,6.052,6.0754,6.0992,6.1255,6.1357,6.1504,6.1578,6.1583,6.1588,6.2387,6.3322,6.4189,6.4693,6.5653,6.6151,6.6003,6.5977,6.5808,6.5594,6.5441,6.539,6.5394,6.5394,6.5394,6.5394,6.5394,6.5394,6.5394,6.5394,6.5394,6.5394,6.5394,6.5394,6.5394,6.5394,6.5394,6.5394,6.5394,6.5394,6.549,6.5853,6.6789,6.8088,6.8795,6.9674,7.0056,7.0326,6.9368,6.8719,6.8757,6.8451,6.7553,6.7048,6.6637,6.5838,6.1588,6.1588,6.1588,6.1421,6.1128,6.1109,6.0884,6.054,6.0527,6.0474,6.0403,6.0403,6.0403,6.0403,6.0403,6.0403,6.0403,6.0403,6.0403,6.0403,6.0403,6.0403,6.0403,6.0403,6.0403,6.0403,6.0403,6.0403,6.0403,6.0403,6.0403,6.0403,6.0403,6.0403,6.0403,6.0403,6.0403,6.0403,6.0389,6.0375,6.0323,6.0245,6.0171,6.0106,6.0029,5.9982,5.995,5.9966,5.9998,6.0029,6.0057,6.0152,6.0264,6.0323,6.0366,6.0389,6.0403,6.0403,6.0403,6.0417,6.0487,6.0657,6.0853,6.103,6.1205,6.1363,6.1493,6.1539,6.1607,6.2348,6.3707,6.4056,6.4447,6.5693,6.6147,6.5934,6.5767,6.5607,6.5536,6.542,6.5409,6.5394,6.5394,6.5394,6.5394,6.5394,6.5394,6.5394,6.5394,6.5394,6.5394,6.5394,6.5394,6.5394,6.5394,6.5394,6.5394,6.5394,6.5394,6.5547,6.5776,6.6942,6.8088,6.8719,6.9349,6.9979,7.0247,7.0113,6.9884,6.9636,6.8776,6.7687,6.7337,6.7254,6.6483,6.1588,6.1588,6.1588,6.137,6.102,6.1002,6.0765,6.0439,6.0403,6.0403,6.0403,6.0403,6.0403,6.0403,6.0403,6.0403,6.0403,6.0403,6.0403,6.0403,6.0403,6.0403,6.0403,6.0403,6.0403,6.0403,6.0403,6.0403,6.0403,6.0403,6.0403,6.0403,6.0403,6.0403,6.0403,6.0403,6.0403,6.0403,6.0389,6.0347,6.0294,6.0167,6.0072,6.001,5.995,5.9918,5.9921,5.9918,5.9915,5.9947,5.9994,6.0072,6.0186,6.0279,6.0337,6.038,6.0403,6.0422,6.0403,6.0417,6.0466,6.0585,6.0692,6.0883,6.1057,6.1205,6.1389,6.1482,6.1617,6.227,6.3818,6.4007,6.4575,6.5765,6.59,6.5755,6.5626,6.5485,6.546,6.5394,6.5394,6.5394,6.5394,6.5394,6.5394,6.5394,6.5394,6.5394,6.5394,6.5394,6.5394,6.5394,6.5394,6.5394,6.5394,6.5394,6.5394,6.5394,6.5433,6.5624,6.6082,6.7133,6.7859,6.8336,6.9043,6.9903,7.0228,7.0211,7.0269,7.0326,6.9425,6.8547,6.8222,6.8062,6.7277,6.1588,6.1588,6.1588,6.137,6.1031,6.1002,6.0757,6.0412,6.0403,6.0403,6.0403,6.0403,6.0403,6.0403,6.0403,6.0403,6.0403,6.0403,6.0403,6.0403,6.0403,6.0403,6.0403,6.0403,6.0403,6.0403,6.0403,6.0403,6.0403,6.0403,6.0403,6.0403,6.0403,6.0403,6.0403,6.0403,6.0403,6.0403,6.0403,6.0366,6.026,6.0148,6.0072,5.9979,5.9934,5.9921,5.9921,5.9918,5.9934,5.995,6.0013,6.0076,6.0167,6.0264,6.038,6.0542,6.0518,6.0499,6.0446,6.0422,6.0412,6.0466,6.0585,6.0716,6.082,6.103,6.1303,6.1376,6.1512,6.2391,6.332,6.3995,6.4771,6.546,6.563,6.5626,6.5504,6.545,6.5425,6.5394,6.5394,6.5394,6.5394,6.5394,6.5394,6.5394,6.5394,6.5394,6.5394,6.5394,6.5394,6.5394,6.5394,6.5394,6.5394,6.5394,6.5394,6.5394,6.5452,6.5585,6.5967,6.6751,6.74,6.7935,6.8948,7.0018,7.0285,7.0383,7.0402,7.0402,7.0402,6.9827,6.9406,6.8871,6.8165,6.1588,6.1588,6.1588,6.135,6.102,6.0993,6.0776,6.0439,6.0403,6.0403,6.0403,6.0403,6.0403,6.0403,6.0403,6.0403,6.0403,6.0403,6.0403,6.0403,6.0403,6.0403,6.0403,6.0403,6.0403,6.0403,6.0403,6.0403,6.0403,6.0403,6.0403,6.0403,6.0403,6.0403,6.0403,6.0403,6.0403,6.0403,6.0389,6.0332,6.0178,6.0118,6.0057,5.995,5.9902,5.9921,5.9902,5.9934,5.995,5.9985,6.0048,6.0201,6.0296,6.0413,6.0685,6.1043,6.1191,6.1191,6.1019,6.0828,6.0422,6.0444,6.0466,6.0565,6.0696,6.0935,6.1126,6.1276,6.1419,6.2377,6.347,6.3626,6.429,6.535,6.5621,6.5513,6.5425,6.5409,6.5394,6.5394,6.5394,6.5394,6.5394,6.5394,6.5394,6.5394,6.5394,6.5394,6.5394,6.5394,6.5394,6.5394,6.5394,6.5394,6.5394,6.5394,6.5394,6.5394,6.5394,6.5452,6.5929,6.6426,6.7209,6.7897,6.9024,7.0094,7.025,7.0402,7.0402,7.0402,7.0402,7.0192,6.9597,6.9349,6.9196,6.2114,6.1646,6.1919,6.1674,6.1156,6.103,6.0765,6.0439,6.0403,6.0403,6.0403,6.0403,6.0403,6.0403,6.0403,6.0403,6.0403,6.0403,6.0403,6.0403,6.0403,6.0403,6.0403,6.0403,6.0403,6.0403,6.0403,6.0403,6.0403,6.0403,6.0403,6.0403,6.0403,6.0403,6.0403,6.0403,6.0403,6.0403,6.0389,6.0299,6.0159,6.0084,6.0041,5.995,5.9921,5.9921,5.9918,5.995,5.9998,6.007,6.0323,6.0552,6.0707,6.1056,6.1406,6.1889,6.207,6.1898,6.1497,6.123,6.0809,6.0422,6.0403,6.0447,6.0603,6.0776,6.0983,6.115,6.133,6.2354,6.3398,6.3457,6.4034,6.5103,6.555,6.5435,6.5394,6.5394,6.5394,6.5394,6.5394,6.5394,6.5394,6.5394,6.5394,6.5394,6.5394,6.5394,6.5394,6.5394,6.5394,6.5394,6.5394,6.5394,6.5394,6.5394,6.5394,6.5394,6.5394,6.5394,6.5547,6.6006,6.6923,6.7782,6.8585,6.9368,7.0132,7.0402,7.0402,7.0402,7.0402,7.0113,6.9674,6.9674,6.9769,6.3146,6.1899,6.2581,6.2344,6.1483,6.1328,6.0927,6.0436,6.0403,6.0403,6.0403,6.0403,6.0403,6.0403,6.0403,6.0403,6.0403,6.0403,6.0403,6.0403,6.0403,6.0403,6.0403,6.0403,6.0403,6.0403,6.0403,6.0403,6.0403,6.0403,6.0403,6.0403,6.0403,6.0389,6.0389,6.0547,6.049,6.0437,6.0328,6.0222,6.0099,6.0087,6.001,5.9934,5.9921,6.0015,6.0072,6.0161,6.0232,6.0491,6.0922,6.1282,6.1721,6.2334,6.2665,6.2901,6.2949,6.2548,6.2128,6.1917,6.1249,6.079,6.0594,6.0479,6.0474,6.0633,6.0843,6.0983,6.1175,6.2319,6.3327,6.3592,6.3921,6.4717,6.5408,6.5435,6.5409,6.5394,6.5394,6.5394,6.5394,6.5394,6.5394,6.5394,6.5394,6.5394,6.5394,6.5394,6.5394,6.5394,6.5394,6.5394,6.5394,6.5394,6.5394,6.5394,6.5394,6.5394,6.5394,6.5413,6.5509,6.5853,6.6923,6.7725,6.8008,6.8719,6.9941,7.0383,7.0402,7.0402,7.0402,7.0326,6.9999,7.0059,7.0026,6.3809,6.3439,6.3653,6.3492,6.3068,6.2693,6.1766,6.0512,6.0403,6.0403,6.0403,6.0403,6.0556,6.0403,6.0403,6.0441,6.0403,6.0403,6.0403,6.0403,6.0403,6.0403,6.0403,6.0403,6.0403,6.0403,6.0403,6.0403,6.0403,6.0403,6.0403,6.0403,6.0504,6.0456,6.0657,6.0914,6.0762,6.0594,6.0489,6.0395,6.0262,6.0269,6.0172,6.0145,6.0167,6.0321,6.0679,6.0823,6.1064,6.1723,6.2015,6.2268,6.2322,6.2647,6.2955,6.3737,6.379,6.3656,6.3388,6.2873,6.2147,6.1459,6.1211,6.0828,6.0682,6.0604,6.0784,6.0874,6.0992,6.1911,6.2965,6.3491,6.4065,6.4862,6.5378,6.542,6.5394,6.5394,6.5394,6.5394,6.5394,6.5394,6.5394,6.5394,6.5394,6.5394,6.5394,6.5394,6.5394,6.5394,6.5394,6.5394,6.5394,6.5394,6.5394,6.5394,6.5394,6.5394,6.5394,6.5452,6.5624,6.612,6.7095,6.7916,6.8585,6.9311,7.017,7.04,7.0402,7.0402,7.0402,7.0402,7.0402,7.0348,7.0104,6.4725,6.4199,6.4491,6.4309,6.3786,6.3457,6.2563,6.1607,6.142,6.1382,6.1382,6.1421,6.1211,6.1,6.123,6.1134,6.0408,6.079,6.0804,6.0403,6.0499,6.0403,6.0403,6.046,6.0403,6.0403,6.0422,6.0403,6.046,6.0479,6.046,6.0924,6.0872,6.1062,6.1381,6.1721,6.1637,6.1408,6.1183,6.1061,6.0957,6.0906,6.0934,6.083,6.0814,6.1155,6.1532,6.1695,6.2034,6.2561,6.2737,6.3093,6.3223,6.3527,6.3913,6.4604,6.4634,6.4401,6.4038,6.3675,6.2949,6.2299,6.1822,6.1363,6.0985,6.0768,6.0784,6.0798,6.0949,6.1323,6.2367,6.3385,6.4304,6.5214,6.5314,6.5394,6.5394,6.5394,6.5394,6.5394,6.5394,6.5394,6.5394,6.5394,6.5394,6.5394,6.5394,6.5394,6.5394,6.5394,6.5394,6.5394,6.5394,6.5394,6.5394,6.5394,6.5394,6.5394,6.5394,6.549,6.57,6.635,6.7324,6.8394,6.9464,7.0018,7.04,7.04,7.0402,7.0402,7.035,7.0283,7.0283,7.0317,6.9907,6.5777,6.4432,6.5153,6.4991,6.4061,6.3902,6.3654,6.3385,6.3173,6.3006,6.2853,6.2834,6.2319,6.1898,6.2242,6.1879,6.144,6.1478,6.1459,6.0632,6.0943,6.0981,6.0943,6.067,6.1058,6.079,6.0747,6.1096,6.0733,6.0771,6.1058,6.1636,6.1654,6.1823,6.2273,6.256,6.2534,6.2461,6.2515,6.2591,6.2295,6.2354,6.2452,6.229,6.2273,6.2368,6.2463,6.2518,6.2553,6.2926,6.3353,6.3899,6.4244,6.4594,6.5042,6.5203,6.5173,6.4955,6.463,6.4344,6.3828,6.3064,6.228,6.2013,6.1717,6.0846,6.0629,6.0681,6.0815,6.1546,6.2572,6.3111,6.3858,6.4855,6.5356,6.5394,6.5394,6.5394,6.5394,6.5394,6.5394,6.5394,6.5394,6.5394,6.5394,6.5394,6.5394,6.5394,6.5394,6.5394,6.5394,6.5394,6.5394,6.5394,6.5394,6.5394,6.5394,6.5394,6.5394,6.5662,6.5967,6.6693,6.7515,6.8757,6.996,7.0151,7.0402,7.0402,7.0402,7.0367,7.03,7.0125,7.0107,7.009,6.9644,6.6473,6.6088,6.6303,6.6133,6.5782,6.5557,6.5286,6.5084,6.4877,6.4076,6.3083,6.293,6.2834,6.2739,6.293,6.2643,6.2433,6.2357,6.2433,6.2204,6.2108,6.1936,6.2204,6.1975,6.2147,6.2319,6.2299,6.2089,6.1922,6.1712,6.1698,6.2402,6.2471,6.2654,6.2864,6.3147,6.3436,6.3386,6.3763,6.3495,6.2798,6.2515,6.2406,6.2482,6.2519,6.2917,6.3088,6.3334,6.3732,6.426,6.4499,6.4771,6.4975,6.5198,6.5321,6.5368,6.5379,6.5222,6.5108,6.4917,6.4554,6.4133,6.3522,6.314,6.2414,6.1153,6.0516,6.0591,6.0936,6.178,6.2522,6.2891,6.3427,6.4439,6.5394,6.5394,6.5394,6.5394,6.5394,6.5394,6.5394,6.5394,6.5394,6.5394,6.5394,6.5394,6.5394,6.5394,6.5394,6.5394,6.5394,6.5394,6.5394,6.5394,6.5394,6.5394,6.5394,6.5394,6.5394,6.5757,6.6254,6.7362,6.8432,6.9406,7.0323,7.0383,7.0402,7.0402,7.0402,7.035,7.0264,7.0125,6.9721,6.9605,6.9077,6.6712,6.6712,6.6707,6.6635,6.6503,6.6214,6.6016,6.5827,6.5542,6.4898,6.4095,6.4,6.3828,6.3656,6.3809,6.3388,6.3216,6.3331,6.3064,6.2968,6.3025,6.2815,6.2911,6.3025,6.2796,6.2892,6.2877,6.2782,6.2867,6.2585,6.2498,6.3165,6.3267,6.3356,6.3508,6.4063,6.422,6.4225,6.4718,6.4282,6.341,6.3448,6.3505,6.3505,6.36,6.3827,6.3922,6.417,6.4434,6.4773,6.49,6.4949,6.5066,6.5223,6.5305,6.5352,6.5383,6.5394,6.5394,6.5318,6.5165,6.4783,6.4282,6.3694,6.3331,6.2128,6.1148,6.1106,6.0589,6.1234,6.2038,6.2538,6.335,6.4305,6.505,6.5394,6.5394,6.5394,6.5394,6.5394,6.5394,6.5394,6.5394,6.5394,6.5394,6.5394,6.5394,6.5394,6.5394,6.5394,6.5394,6.5394,6.5394,6.5394,6.5394,6.5394,6.5394,6.5394,6.549,6.6197,6.6961,6.8222,6.9387,6.9999,7.0381,7.0383,7.0402,7.0402,7.0369,7.0319,7.0213,7.0106,6.9644,6.9115,6.8716,6.6712,6.6712,6.6671,6.6677,6.6635,6.6278,6.6098,6.6005,6.5632,6.544,6.5261,6.5261,6.4936,6.4821,6.4936,6.4172,6.3847,6.4153,6.3828,6.3579,6.3446,6.3637,6.3599,6.3408,6.3522,6.3412,6.3302,6.3367,6.3417,6.3139,6.3245,6.3889,6.4147,6.4286,6.4784,6.4922,6.4794,6.4737,6.4907,6.4907,6.485,6.4907,6.4737,6.4794,6.4926,6.4926,6.4907,6.4888,6.4888,6.4958,6.5027,6.5092,6.5158,6.5274,6.529,6.5352,6.5383,6.5413,6.5394,6.5394,6.5356,6.5165,6.463,6.4229,6.3904,6.3231,6.2218,6.1607,6.1091,6.0828,6.1645,6.2467,6.3331,6.4153,6.4821,6.5394,6.5394,6.5394,6.5394,6.5394,6.5394,6.5394,6.5394,6.5394,6.5394,6.5394,6.5394,6.5394,6.5394,6.5394,6.5394,6.5394,6.5394,6.5394,6.5394,6.5471,6.549,6.5815,6.6063,6.6789,6.7668,6.889,6.975,7.0132,7.0402,7.0402,7.0402,7.0386,7.0336,7.0305,7.0054,6.9834,6.9263,6.8803,6.8472,6.6712,6.6682,6.6523,6.6556,6.6605,6.6258,6.6108,6.6047,6.5767,6.5564,6.542,6.5394,6.5261,6.5165,6.528,6.4955,6.4745,6.4974,6.5089,6.4974,6.4592,6.4726,6.4726,6.4439,6.4821,6.4581,6.4207,6.4218,6.4137,6.3899,6.4006,6.4645,6.4721,6.4784,6.481,6.4926,6.4926,6.4926,6.4926,6.4926,6.4907,6.4907,6.4926,6.4926,6.4926,6.4926,6.4907,6.4907,6.4942,6.5027,6.5125,6.5226,6.529,6.5337,6.5368,6.5368,6.5398,6.5413,6.5394,6.5394,6.5394,6.5375,6.4993,6.5012,6.463,6.4172,6.3422,6.3021,6.2357,6.1306,6.1784,6.2586,6.3427,6.421,6.4936,6.5242,6.5394,6.5394,6.5394,6.5394,6.5394,6.5394,6.5394,6.5394,6.5394,6.5394,6.5394,6.5394,6.5394,6.5394,6.5394,6.5452,6.5452,6.5394,6.5413,6.5605,6.5738,6.6101,6.6674,6.7496,6.8413,6.9521,7.0228,7.0364,7.0402,7.0402,7.0386,7.0369,7.0305,7.0201,6.9853,6.9506,6.8959,6.852,6.8222]}]]